GFSSGP_sfc_temp_000.txt.gz
Temp
76 91 89 87 70 72 66 72 80 77 77 82 85 79 74 74 70 58 80 80 80 82 83 79 73 75 75 75 76 76 76 76 76 77 77 76 73 73 72 72 69 69 70 72 72 75 77 77 75
85 91 90 81 66 63 66 77 74 77 81 84 85 81 68 70 80 79 78 83 82 82 81 78 73 74 75 75 76 76 76 75 75 76 77 74 73 72 72 72 71 69 71 74 73 73 75 76 73
80 90 78 74 69 64 64 75 77 80 83 83 81 80 68 72 80 80 84 83 83 82 81 76 73 73 74 75 75 75 75 75 74 75 75 75 73 72 73 72 72 72 73 74 75 70 71 74 72
88 86 81 69 67 72 73 76 79 80 83 85 85 73 75 83 82 83 86 84 83 83 82 72 72 73 75 75 75 75 75 74 73 73 74 74 72 73 72 71 71 72 71 73 68 68 68 70 71
89 82 70 70 68 73 78 80 82 79 81 82 83 62 69 79 84 85 84 86 83 81 82 77 71 72 73 73 73 72 73 73 73 73 73 73 73 73 72 72 72 73 69 68 67 66 67 69 70
78 82 68 64 68 75 78 82 82 80 80 81 63 59 71 81 81 83 87 87 88 83 81 79 72 72 72 72 71 71 72 73 73 73 72 72 72 72 71 70 71 71 71 70 69 69 69 70 71
77 75 70 69 68 71 75 82 78 79 79 77 73 60 68 76 82 84 87 87 86 86 85 83 77 74 71 70 70 70 71 72 73 73 73 71 70 68 68 69 68 69 69 69 71 70 70 70 70
83 80 71 72 69 68 77 80 82 79 76 85 86 72 63 79 82 84 85 86 86 84 85 83 84 79 73 71 70 69 70 71 72 71 71 71 68 67 67 67 68 68 68 66 66 66 68 69 69
89 73 68 69 70 72 80 77 82 84 80 81 83 81 82 83 83 82 82 83 84 83 81 80 81 80 79 79 73 70 70 70 69 69 70 67 72 70 68 67 67 68 67 67 66 66 65 66 67
80 72 69 76 77 75 79 78 78 77 78 78 79 83 84 83 82 80 81 81 81 79 79 78 75 75 76 82 78 75 77 75 73 74 72 72 71 67 68 66 66 66 65 65 65 64 64 64 61
79 70 75 77 77 79 77 77 81 76 74 78 77 79 81 82 82 81 82 83 80 78 77 76 74 74 75 75 74 74 74 73 72 72 71 68 68 67 66 66 66 64 63 62 62 61 60 59 59
72 77 77 77 78 77 75 78 76 77 77 82 82 84 82 80 81 81 80 81 79 79 78 75 74 73 73 74 75 73 73 72 71 70 71 68 66 65 65 64 64 63 65 64 60 58 58 58 59
75 75 77 78 78 77 78 75 76 76 82 82 83 81 80 80 81 81 81 81 79 77 78 75 73 72 73 73 70 70 69 68 69 69 69 68 67 64 65 64 63 63 63 62 61 60 58 58 59
77 77 77 78 78 78 74 75 77 79 83 80 80 78 79 80 80 80 79 77 77 78 76 75 73 72 73 72 70 68 67 67 67 67 67 68 66 64 64 63 63 62 62 62 60 60 61 61 60
78 71 75 76 77 75 77 71 72 81 81 78 78 78 79 80 81 79 79 77 79 78 77 74 73 73 71 71 69 68 67 68 66 66 66 66 66 63 63 62 61 61 61 60 58 57 57 57 60
72 73 67 76 76 76 74 63 78 83 80 76 77 78 77 79 81 82 80 79 79 77 75 74 77 72 70 69 68 69 68 66 66 65 64 65 65 65 63 62 60 59 60 59 57 56 56 56 56
72 63 66 69 79 75 73 66 77 83 81 78 78 78 79 78 80 81 81 79 77 76 75 73 72 70 70 69 68 68 67 66 66 65 64 64 65 65 62 61 59 59 59 58 57 56 55 54 55
60 61 65 65 73 73 69 68 76 80 80 79 79 79 78 78 80 82 80 78 76 74 73 72 71 69 69 68 66 66 65 66 66 65 65 64 64 64 62 61 60 60 59 57 56 55 55 55 55
68 66 65 69 74 70 68 69 73 79 78 75 76 75 76 76 81 81 78 75 73 72 71 70 69 68 67 64 62 62 61 63 64 65 66 64 64 64 62 60 60 60 58 57 57 55 54 52 54
68 65 63 68 72 69 68 68 74 75 74 75 75 74 74 75 77 78 77 73 71 70 70 69 69 68 67 66 65 64 63 64 65 64 63 64 63 63 63 61 60 59 57 56 56 55 52 52 53
65 62 60 60 66 72 68 67 70 73 74 74 75 75 75 73 72 74 74 71 70 68 67 70 69 69 67 65 66 64 63 62 61 62 62 62 63 63 62 61 59 58 57 55 54 54 53 50 52
57 67 63 62 60 53 67 52 67 70 69 71 73 72 72 73 74 74 73 71 70 68 68 68 69 69 69 66 64 61 61 60 62 60 63 64 62 61 62 61 60 58 57 55 55 57 52 51 48
60 66 63 64 61 59 62 56 64 70 67 69 72 72 71 72 72 71 71 72 70 69 66 66 67 67 68 66 63 62 59 60 60 59 61 60 61 62 63 61 59 56 55 54 53 53 52 51 50
68 65 65 67 60 47 60 57 58 65 68 70 73 73 71 71 70 71 72 72 71 69 67 66 66 68 67 65 63 60 58 58 57 57 55 57 57 56 57 58 54 54 53 52 51 51 51 50 50
65 58 46 42 45 45 62 55 58 69 73 71 69 69 69 68 68 68 69 70 69 68 68 67 67 66 67 64 63 61 58 57 57 57 55 55 53 54 53 53 52 52 51 51 51 50 49 49 49
59 57 44 34 38 42 56 49 61 74 74 73 72 70 70 69 69 69 70 69 69 68 68 68 68 67 67 65 63 61 60 58 57 56 54 52 52 52 54 53 52 52 52 50 49 48 48 48 47
58 52 60 45 38 39 48 58 68 73 72 70 71 71 68 68 68 70 70 69 68 67 66 64 66 67 66 64 61 60 58 57 55 55 53 52 53 55 53 52 51 50 49 48 48 46 47 48 47
61 64 47 47 33 34 47 49 53 63 64 66 67 68 67 68 68 69 68 67 67 68 68 66 64 64 63 63 60 57 55 54 53 53 52 52 51 52 51 50 50 49 48 48 46 45 46 45 46
57 54 54 55 48 37 35 45 62 61 64 65 66 67 67 67 68 68 68 68 66 66 65 65 63 62 60 59 54 52 53 53 52 52 51 51 51 50 50 49 48 48 48 47 45 45 45 45 45
62 57 57 40 41 44 41 42 64 67 68 67 68 68 68 68 68 67 67 67 65 63 63 63 61 60 58 57 53 52 52 52 50 50 50 51 49 50 48 49 49 48 48 46 45 44 45 44 43

GFSSGP_sfc_temp_003.txt.gz
Temp
66 73 69 70 56 52 48 57 63 64 66 71 74 69 65 65 61 53 71 74 76 75 74 73 72 73 74 74 75 75 75 76 76 76 76 74 72 73 73 72 72 72 74 72 72 72 73 75 75
66 77 72 63 51 43 51 58 61 65 67 74 74 71 66 62 71 70 70 76 77 76 72 73 72 73 74 74 74 74 75 75 75 75 74 73 73 74 74 73 71 71 72 72 71 72 71 70 70
70 75 62 55 48 46 51 61 62 68 72 72 66 70 67 65 73 72 75 77 76 73 71 72 72 72 73 73 73 73 73 73 73 74 74 72 73 73 74 72 70 71 71 72 73 71 70 69 68
72 67 63 52 46 56 61 64 67 69 73 72 68 62 69 74 72 75 78 78 73 68 68 70 71 72 73 73 73 73 73 72 72 73 73 73 73 73 73 72 71 71 72 72 72 70 69 69 69
68 62 53 50 51 61 66 69 70 68 63 65 65 59 63 75 78 77 76 78 72 68 69 69 70 71 72 73 72 72 72 72 72 72 72 73 72 72 71 70 70 71 71 70 69 71 70 69 68
61 61 49 49 53 63 67 68 70 69 70 66 63 62 63 77 76 77 78 75 77 73 70 71 71 71 71 71 71 71 71 71 71 71 71 71 71 71 71 71 70 71 70 69 68 68 69 69 68
58 55 51 53 56 60 65 69 66 66 67 65 66 58 61 69 75 77 76 77 75 74 72 68 70 71 70 70 70 70 70 70 70 70 69 69 68 68 69 69 69 69 70 70 69 69 69 69 68
65 58 53 53 55 53 64 66 65 68 61 71 67 59 57 69 76 75 76 74 75 73 73 69 68 69 67 67 69 69 69 69 69 69 69 66 67 67 67 67 68 69 68 69 69 68 69 69 68
67 54 47 53 58 56 63 62 66 69 67 68 70 68 69 72 76 70 71 72 71 74 71 70 69 70 67 68 69 69 69 69 68 68 68 65 65 64 64 66 67 68 68 68 68 67 67 67 66
63 51 54 61 62 58 62 64 65 66 65 63 67 71 72 75 72 71 70 69 69 68 67 68 68 68 70 76 67 67 68 66 66 67 65 65 63 62 64 65 66 66 66 65 65 65 65 64 60
60 54 63 65 68 66 64 66 69 61 59 64 64 67 70 70 71 70 69 70 68 68 68 67 67 67 67 68 67 66 66 65 65 65 64 63 62 61 61 60 61 59 62 59 60 60 59 59 58
60 67 68 65 68 67 63 64 67 60 62 74 71 70 70 70 70 71 68 68 67 67 66 66 66 67 65 65 64 64 65 64 63 64 63 61 59 59 59 58 58 58 58 58 61 57 56 56 58
64 66 69 71 71 67 70 66 65 65 72 73 74 74 68 69 69 69 72 69 67 68 66 64 65 65 66 64 63 63 61 61 61 61 63 61 59 59 59 58 58 58 59 59 57 57 56 56 57
67 69 67 69 69 70 66 65 62 68 68 71 73 68 66 67 69 65 68 68 68 70 66 64 64 65 65 63 62 61 60 61 60 60 61 62 59 58 58 58 58 57 57 56 55 54 55 56 58
70 61 65 67 67 64 63 60 59 71 70 69 69 69 69 69 69 69 69 67 68 67 66 65 65 64 64 62 62 60 60 61 59 60 61 61 60 59 57 56 55 55 56 56 54 54 53 53 55
63 59 52 65 67 67 64 52 63 68 68 65 67 67 68 69 71 68 70 69 68 66 65 66 71 64 63 61 61 61 60 59 59 59 59 61 61 60 58 56 55 56 55 55 54 52 51 51 51
58 48 55 61 67 63 61 55 65 69 68 64 64 65 65 65 67 69 69 68 66 66 65 64 64 62 62 61 60 59 59 58 58 58 58 60 61 61 57 55 56 56 54 54 54 52 51 50 50
49 51 57 52 60 62 58 57 62 67 64 62 60 60 61 63 64 70 67 66 64 64 64 64 63 63 62 60 59 58 58 59 57 57 58 60 59 60 57 55 55 56 54 52 53 52 52 51 50
58 55 52 56 64 59 56 56 61 60 62 61 60 61 62 65 67 67 65 64 63 62 64 64 62 61 60 58 56 56 55 57 56 58 59 59 58 60 58 55 55 55 54 53 53 52 51 50 50
58 54 51 57 63 60 56 57 59 63 62 62 61 61 63 63 65 67 65 61 62 62 62 62 62 61 60 58 57 57 56 56 57 58 57 58 58 58 58 56 55 55 53 54 53 51 49 49 50
54 52 51 51 57 60 55 53 58 61 64 65 65 64 64 64 63 65 66 62 60 60 61 62 62 61 59 60 58 56 55 55 56 56 55 56 58 58 58 56 54 54 52 51 51 51 50 47 49
50 59 57 55 49 43 55 40 53 57 59 62 64 60 60 61 64 64 63 60 59 60 60 63 63 62 61 58 57 56 55 55 56 56 56 56 57 57 58 58 56 54 52 51 50 53 49 48 45
54 60 56 55 50 45 50 44 50 56 55 58 58 60 60 61 61 63 60 61 61 60 58 60 61 62 62 59 56 56 54 54 56 56 56 54 54 56 57 55 53 52 50 51 49 48 48 47 46
62 56 55 53 49 35 48 46 44 53 56 59 60 60 60 60 60 61 61 63 62 60 58 57 58 60 60 60 59 56 56 58 54 53 52 52 52 52 52 53 50 49 49 50 49 49 48 46 46
56 47 31 31 31 31 52 46 48 58 60 60 58 58 59 59 58 59 58 61 60 59 59 58 58 58 59 58 57 57 57 57 56 53 50 49 49 49 50 51 50 50 50 50 50 49 47 46 45
51 48 31 27 25 31 48 40 50 61 64 65 64 60 59 61 61 59 58 59 58 58 58 59 60 60 60 57 56 56 56 56 58 54 50 47 47 48 50 49 49 50 50 50 50 49 46 44 45
51 41 51 38 28 27 37 48 58 60 62 63 62 62 60 59 60 57 58 58 57 57 57 55 56 58 58 55 54 51 50 50 47 47 47 47 49 51 49 48 48 48 48 48 47 44 43 43 44
54 56 38 34 26 26 37 40 43 52 56 59 56 57 57 57 58 58 57 56 57 56 55 55 56 56 56 52 50 49 48 48 48 49 48 48 48 49 48 47 46 46 47 47 46 44 44 42 42
48 43 46 49 38 30 27 34 52 55 56 56 61 60 58 58 57 57 58 58 55 54 54 54 55 55 52 49 47 47 47 47 47 48 48 47 47 48 47 47 46 47 46 47 45 44 43 42 42
55 51 52 35 34 33 30 37 59 55 58 63 58 59 58 58 57 58 56 54 54 54 53 55 55 51 51 46 46 46 46 45 45 46 46 46 45 47 47 46 47 46 46 45 43 42 41 41 40

GFSSGP_sfc_temp_006.txt.gz
Temp
63 66 64 66 55 49 43 52 57 61 61 66 69 66 61 62 59 52 68 73 71 70 71 72 72 73 74 74 74 75 75 75 76 76 74 74 74 74 75 75 74 73 77 74 74 74 74 74 71
65 73 67 59 48 42 47 56 58 63 66 70 68 66 62 58 67 66 67 72 73 71 71 70 72 73 73 73 73 74 75 75 74 75 74 74 74 74 75 74 72 72 73 74 74 74 72 71 71
68 72 61 52 45 45 49 59 61 66 66 66 65 66 65 62 68 68 71 73 72 68 69 70 71 72 73 73 73 73 73 73 73 73 74 74 74 74 74 73 71 71 72 73 73 74 72 71 70
68 65 59 50 44 52 57 61 63 65 67 67 65 60 66 70 69 71 74 72 67 66 67 69 70 71 72 72 73 72 72 72 72 72 73 73 74 74 74 72 70 71 72 72 74 72 71 70 69
64 58 50 47 49 57 61 65 65 62 61 63 64 58 62 69 73 74 74 72 67 65 67 68 69 71 72 73 72 72 72 71 71 72 72 72 72 72 71 70 70 71 71 71 71 71 70 69 69
60 58 47 44 49 60 62 65 66 63 61 63 62 60 61 70 70 73 74 72 71 68 67 69 70 71 71 72 71 71 70 70 70 70 71 71 71 70 70 70 70 70 71 69 69 69 70 68 68
58 52 45 47 51 56 62 63 62 63 63 62 65 57 60 65 71 73 73 71 71 70 67 67 68 70 70 69 69 69 70 69 69 69 69 68 68 68 69 69 69 70 70 69 69 68 68 68 68
59 54 46 46 51 52 63 63 63 65 59 66 64 57 56 66 70 73 71 69 68 68 67 65 66 67 66 65 68 68 68 69 68 68 67 67 67 67 68 68 68 68 69 69 69 69 68 68 68
61 51 46 47 52 53 60 58 63 66 65 65 64 65 66 71 71 70 67 66 66 68 66 65 65 66 65 65 68 68 69 68 68 68 66 64 63 63 63 66 67 67 67 67 67 66 66 65 65
58 47 48 58 59 51 56 57 60 62 62 62 63 67 68 71 69 68 66 65 65 65 64 64 64 65 65 72 66 65 67 65 65 65 64 63 61 60 63 64 66 66 65 65 65 64 64 62 59
54 52 58 61 61 58 56 61 64 59 56 62 62 64 66 67 68 68 66 68 65 65 65 64 65 64 64 65 63 63 63 63 63 63 62 61 61 60 59 58 59 57 61 57 58 58 57 57 57
57 62 63 62 62 61 57 57 62 56 62 70 66 67 65 66 67 66 66 65 65 64 63 62 63 64 62 61 62 62 62 62 61 61 61 59 58 57 57 56 57 56 56 56 56 55 56 55 56
59 61 64 67 66 63 65 61 63 61 65 68 68 68 66 66 64 65 66 65 63 63 62 62 62 63 63 62 60 60 59 59 59 59 60 59 58 57 57 57 56 56 56 56 55 57 58 57 58
63 64 63 65 64 64 62 60 59 65 63 67 67 65 65 66 67 65 64 63 63 64 62 61 62 62 63 60 59 58 58 58 58 58 59 59 57 56 56 56 56 55 55 54 53 52 52 52 53
65 59 62 64 62 61 61 55 57 65 65 66 65 65 65 67 67 66 67 65 66 63 62 61 61 61 61 61 60 59 58 59 57 57 58 59 58 56 55 54 54 54 54 54 53 52 51 50 52
59 56 50 61 63 64 60 51 64 62 63 62 63 63 64 65 68 65 66 66 64 62 63 63 67 61 60 59 59 59 58 56 56 56 57 58 59 58 55 53 53 53 53 52 51 50 49 48 48
52 45 49 57 63 60 56 53 62 63 63 62 60 60 61 61 63 65 65 60 62 62 62 61 61 61 60 58 57 57 58 56 56 55 56 58 59 58 55 54 53 54 53 51 52 50 49 48 49
45 47 51 48 57 56 53 54 59 62 60 61 57 59 61 63 61 64 64 62 60 60 61 61 61 61 60 57 56 55 55 55 54 55 55 58 57 58 54 53 53 53 51 51 50 50 49 49 49
53 49 47 52 57 55 51 51 57 59 55 55 56 57 57 59 57 60 60 60 59 59 61 60 60 60 57 55 54 53 54 54 54 54 57 56 57 57 55 53 53 52 51 51 50 50 49 48 48
54 48 47 53 58 54 53 52 53 57 55 56 57 57 58 58 60 61 60 56 60 59 60 60 60 59 58 55 55 55 54 54 56 55 54 56 56 55 55 53 52 52 50 50 50 50 47 47 47
50 48 48 49 52 53 52 50 53 58 58 59 58 59 60 60 60 60 60 58 56 58 59 61 60 60 58 57 55 53 52 52 52 53 53 54 55 56 55 54 52 51 50 49 49 49 47 45 46
47 55 54 51 46 40 51 38 49 53 54 57 57 56 58 60 60 61 59 56 56 58 57 58 60 59 59 57 54 53 58 57 59 59 54 54 56 56 55 54 52 50 49 48 48 49 46 45 43
52 56 52 51 45 42 46 41 48 54 52 55 53 56 55 55 58 57 57 58 60 59 57 57 58 58 60 57 55 53 54 56 58 51 52 51 52 53 53 53 50 49 49 48 47 48 45 45 43
58 53 50 48 45 34 44 42 42 48 53 53 54 56 57 55 55 58 58 57 57 56 56 57 56 58 58 57 56 52 52 55 52 52 51 49 47 47 48 50 48 47 47 47 47 47 45 45 46
52 43 30 30 29 30 47 41 43 51 56 57 57 55 54 57 57 56 57 55 55 54 54 56 56 57 59 55 54 54 52 53 53 54 53 50 49 47 48 48 48 47 47 46 45 47 46 45 45
48 45 30 26 24 30 44 37 45 57 57 57 58 58 59 54 56 55 55 54 54 55 55 56 58 56 57 55 54 52 51 49 49 49 47 45 47 46 47 46 45 46 47 45 46 45 44 44 42
49 40 48 36 25 26 35 44 53 54 56 57 55 57 55 56 54 54 55 54 52 52 53 53 52 56 55 53 50 47 46 46 44 44 44 45 46 48 46 45 44 44 45 45 45 42 42 43 42
51 53 38 33 23 26 34 36 41 50 53 56 52 52 54 53 54 55 54 53 53 52 52 52 53 54 52 49 48 47 45 45 45 44 44 44 45 46 45 45 44 44 45 45 44 42 42 41 40
45 40 44 44 34 27 27 32 47 51 53 53 56 52 52 52 51 52 54 56 57 56 55 52 50 50 48 48 46 45 45 45 44 43 43 44 45 46 46 45 44 44 44 44 42 41 41 39 39
49 45 44 29 33 31 29 36 57 52 57 53 51 52 52 52 51 51 52 52 52 51 49 50 49 48 47 47 45 44 43 43 42 42 43 43 44 46 46 45 45 44 44 43 41 39 39 37 37

GFSSGP_sfc_temp_012.txt.gz
Temp
61 63 62 63 56 49 42 49 53 54 57 61 63 61 57 55 55 49 68 68 66 66 67 70 72 73 74 74 74 75 75 76 75 75 74 74 75 75 75 73 73 74 75 75 75 75 75 74 74
61 67 64 56 48 42 46 54 54 56 60 61 63 61 58 55 62 62 63 67 68 67 67 69 72 72 73 73 73 74 75 75 75 74 74 74 74 75 75 71 72 73 74 74 75 75 74 75 73
63 66 59 50 42 41 45 52 54 57 60 60 59 61 60 57 63 64 67 68 67 66 66 69 71 71 72 72 72 73 73 73 73 73 74 74 74 74 73 70 71 71 70 73 74 74 74 72 71
64 62 56 51 42 47 49 55 58 59 60 63 60 57 62 65 66 67 68 68 65 64 65 68 70 71 72 72 72 72 72 72 72 72 73 73 73 73 72 72 71 72 72 73 73 73 72 70 69
59 56 48 46 46 52 55 58 59 58 58 58 60 55 58 64 67 67 66 67 63 63 64 66 69 71 72 73 72 72 71 71 71 71 72 72 72 72 71 71 71 71 71 71 71 70 70 69 68
59 54 44 42 46 53 57 57 59 58 58 60 59 57 57 64 65 65 67 64 65 63 64 65 70 71 71 71 71 70 70 70 70 70 70 71 70 70 70 70 70 70 70 70 70 69 68 68 68
56 48 42 42 47 51 56 59 56 57 56 57 61 54 57 62 65 66 65 64 64 64 64 64 65 68 69 69 69 69 69 69 69 69 68 68 68 68 68 69 69 69 69 69 68 68 68 68 67
54 53 42 43 47 47 56 58 57 57 54 60 60 54 55 63 67 66 65 64 63 63 64 63 63 64 63 63 67 68 68 68 68 68 67 66 66 67 67 66 68 68 68 67 66 66 66 65 65
54 47 43 44 48 49 54 52 56 59 59 58 61 60 62 67 65 63 61 62 62 64 63 63 63 63 62 62 65 67 68 67 67 67 66 63 61 60 61 65 66 66 66 66 65 65 64 63 62
54 46 46 54 53 49 52 52 56 57 55 56 56 60 62 64 63 61 61 61 61 62 63 63 63 63 62 67 63 62 64 63 63 63 62 61 60 59 61 63 65 65 65 64 64 63 62 59 55
50 50 54 56 55 54 53 56 57 57 50 59 60 59 60 61 61 62 62 62 62 63 63 63 63 62 62 62 61 60 61 61 61 61 61 60 59 58 57 57 57 55 61 55 56 55 55 55 54
55 56 57 56 58 57 53 54 55 53 61 66 63 62 61 61 61 61 61 61 61 61 63 63 62 61 60 60 60 60 60 60 60 60 60 58 57 56 56 55 55 55 54 54 54 54 54 55 55
57 56 60 60 61 57 59 55 56 58 64 61 62 62 61 62 61 61 62 60 60 60 61 60 60 59 59 59 59 59 60 60 60 59 59 58 56 55 55 55 54 54 54 54 54 53 52 52 53
58 57 56 57 57 57 57 55 55 60 57 59 60 59 59 61 62 59 60 61 59 60 60 59 58 58 58 56 57 57 57 57 57 57 58 58 57 55 55 55 54 54 54 53 52 51 50 49 50
59 55 57 59 56 55 55 53 55 58 59 59 58 59 59 60 59 63 63 61 61 60 59 58 58 58 57 57 57 55 55 56 55 55 56 56 57 55 55 54 54 54 53 52 51 50 49 48 49
54 51 46 57 56 56 55 48 60 56 55 60 57 57 58 59 60 60 60 59 58 58 58 57 62 58 57 56 55 55 55 54 54 54 54 55 56 55 53 52 52 53 52 51 50 48 48 47 47
47 41 42 51 54 53 52 49 58 55 57 57 54 54 55 55 56 59 61 59 59 59 58 57 58 57 56 55 54 54 54 53 53 52 52 54 55 55 52 51 51 51 50 49 49 47 47 46 46
40 41 45 42 52 52 48 48 53 55 55 54 51 51 54 54 55 56 57 56 56 56 57 58 57 56 55 53 52 52 51 52 51 52 52 54 54 54 53 51 51 50 49 48 46 47 46 47 47
47 44 41 44 50 49 44 45 50 51 51 50 48 51 53 54 52 52 53 53 54 54 56 57 56 56 53 52 52 51 52 52 52 52 53 53 54 54 53 52 51 50 50 51 48 46 46 45 45
48 43 43 48 50 48 46 47 50 52 50 48 49 50 52 52 52 55 54 52 55 56 56 56 56 56 54 52 52 51 50 51 51 52 52 53 53 54 54 53 52 51 51 47 47 46 44 45 44
46 43 43 45 48 46 45 44 48 52 53 54 53 51 52 53 55 54 55 54 53 55 55 55 55 55 54 54 53 52 51 51 51 53 51 54 53 54 53 55 54 52 51 51 50 48 45 46 43
42 49 47 46 41 38 44 36 44 47 49 51 52 51 50 51 53 55 55 52 52 54 53 54 55 55 56 54 52 50 49 49 52 52 53 55 52 51 53 53 52 51 50 48 45 46 45 43 41
48 49 45 44 40 38 42 37 44 47 47 47 48 53 50 53 54 53 53 54 51 51 50 50 53 54 54 52 51 49 50 52 50 50 48 50 50 48 50 50 50 47 45 45 47 44 44 45 43
53 46 45 42 39 32 38 37 38 42 46 48 50 51 53 53 52 55 52 52 50 50 50 50 51 52 53 52 52 49 46 46 46 47 46 47 46 44 44 46 44 43 42 42 42 44 45 44 44
48 39 29 29 27 28 41 36 40 48 50 50 50 54 53 52 50 50 48 49 50 50 50 51 50 51 52 53 50 47 46 45 45 46 46 45 43 40 39 41 42 42 41 42 43 42 43 42 41
43 40 28 25 21 27 38 34 41 51 51 54 55 51 50 48 48 47 48 48 49 50 50 50 50 51 50 48 47 47 47 45 46 45 44 41 40 38 40 41 41 42 42 42 44 43 42 41 39
43 36 42 31 22 23 32 39 47 47 49 50 50 48 47 48 48 48 50 50 49 49 50 48 48 48 48 46 45 45 45 45 44 43 40 39 39 41 40 41 41 42 45 44 43 41 40 39 39
47 48 35 31 21 23 31 32 36 43 45 47 45 45 47 48 49 49 50 50 51 50 49 48 47 47 47 45 45 46 45 45 43 40 39 39 40 41 41 42 42 42 43 44 42 41 41 40 40
42 37 38 38 32 22 23 30 43 43 45 45 45 46 46 47 49 49 49 49 49 48 48 47 47 46 46 45 43 43 45 44 41 39 38 39 40 41 42 44 43 43 41 41 40 40 40 39 39
43 40 39 27 29 28 24 31 46 46 45 46 44 47 47 48 49 48 48 48 48 48 48 47 46 45 44 43 43 43 42 39 38 38 39 40 42 43 43 44 43 42 41 40 39 37 37 36 35

GFSSGP_sfc_temp_015.txt.gz
Temp
70 72 75 75 68 65 57 61 66 64 64 68 69 69 65 63 63 60 73 73 75 75 77 77 72 73 74 74 75 75 76 76 75 75 75 75 75 75 73 72 72 72 75 76 75 75 76 75 75
72 74 74 68 61 58 59 63 63 64 68 69 69 67 65 61 68 69 72 74 76 75 76 76 72 73 73 73 74 74 75 75 75 75 74 75 75 75 73 73 72 73 74 75 76 75 75 73 72
75 74 73 63 57 57 58 63 64 65 67 68 67 69 67 65 69 72 75 74 74 74 75 76 71 72 73 73 73 73 73 73 73 74 74 74 74 74 73 72 72 72 72 73 75 74 73 71 70
75 75 68 63 55 59 63 65 66 66 68 70 69 65 69 72 72 75 75 75 74 74 75 72 70 71 72 73 73 72 72 72 72 72 73 73 73 73 72 72 72 72 72 73 73 72 71 69 69
70 69 62 59 59 63 65 66 67 66 66 67 68 63 65 72 74 74 73 73 74 74 74 76 69 71 72 73 72 72 71 71 71 71 72 72 72 72 71 71 71 71 71 71 71 70 69 69 69
70 68 60 57 59 64 67 68 68 66 66 65 66 65 65 70 72 73 75 73 75 74 74 75 71 71 71 71 71 70 70 70 70 70 70 71 70 70 70 70 70 70 70 70 69 69 68 68 68
67 63 56 56 59 63 66 68 68 66 66 66 70 63 65 68 73 73 74 74 74 75 75 75 76 74 69 69 69 69 69 69 69 69 68 68 68 68 69 69 69 69 69 68 68 67 67 67 66
66 66 57 57 58 60 67 69 69 69 66 69 70 66 64 72 73 73 73 73 73 73 75 74 75 75 75 75 68 68 68 68 68 68 67 67 67 67 67 67 68 68 68 67 67 66 66 65 65
66 61 56 58 60 63 66 68 70 70 68 69 71 70 72 76 72 71 71 71 71 72 73 73 73 74 73 74 73 70 68 68 67 68 66 67 74 72 71 67 66 67 66 66 66 65 64 63 63
66 59 59 64 64 65 66 68 69 69 68 67 68 70 70 72 71 70 71 71 71 72 73 74 73 73 72 75 74 74 73 75 74 73 72 74 71 72 70 68 65 66 65 64 64 63 62 65 71
64 62 63 65 67 68 67 68 69 68 66 70 72 69 70 71 71 71 73 75 75 75 75 73 72 72 72 73 75 75 75 74 74 72 72 71 71 71 71 71 71 70 65 69 67 68 69 67 67
64 64 67 68 66 66 67 69 67 67 72 72 73 73 71 70 70 71 72 74 74 73 75 74 73 71 71 73 74 74 73 74 74 73 70 71 71 69 69 70 69 68 69 67 68 67 66 66 66
66 66 66 68 66 68 68 67 68 68 73 72 71 69 70 71 72 73 75 75 73 73 74 74 72 70 70 69 72 71 71 72 73 72 71 71 70 69 69 68 68 68 68 68 67 67 66 65 65
66 66 65 67 67 67 66 66 67 70 71 70 68 70 71 72 72 72 71 73 72 74 73 72 70 70 70 70 69 71 70 71 71 71 71 69 69 68 69 68 68 68 68 68 66 65 66 65 64
65 64 64 64 65 66 66 64 65 71 70 69 68 68 70 71 71 72 74 73 74 73 72 70 70 70 69 69 69 70 71 69 70 70 68 68 68 68 67 68 68 69 68 66 65 64 64 64 63
61 61 58 64 64 65 67 60 69 68 68 70 67 67 67 69 70 71 72 72 72 71 70 70 71 70 69 68 70 70 70 69 69 68 68 67 67 67 67 67 67 69 66 66 65 65 64 64 64
58 54 54 59 61 62 63 60 68 67 64 66 66 66 66 68 70 73 72 71 70 70 70 70 70 70 69 68 69 68 67 68 69 67 68 67 66 66 66 67 67 66 66 65 64 64 62 64 64
52 53 53 54 60 61 58 59 63 63 59 61 62 63 64 67 69 67 68 68 69 68 69 70 70 68 67 68 67 67 67 68 67 67 68 66 67 65 65 66 65 65 65 64 63 62 63 63 64
56 54 52 55 58 58 55 56 61 61 61 60 61 62 64 67 65 65 64 65 66 66 68 69 69 67 67 67 67 67 67 68 68 69 66 65 66 65 64 65 65 64 63 63 63 62 60 60 61
56 52 52 55 57 56 56 58 59 60 57 57 60 62 63 65 65 63 64 65 64 66 67 66 66 65 65 66 66 65 64 66 65 65 65 65 64 64 64 63 64 64 62 62 61 59 60 60 61
53 53 51 51 54 55 54 55 57 60 61 61 62 63 64 66 66 65 66 65 64 64 63 64 64 64 64 63 66 66 65 65 66 67 67 67 64 63 62 62 62 62 62 60 61 61 59 59 60
49 55 53 51 50 49 52 48 54 55 58 60 61 63 64 64 66 65 65 64 61 61 61 63 64 65 64 63 63 60 61 60 63 62 63 63 62 62 61 60 60 60 60 59 59 61 58 57 57
53 54 51 51 49 49 50 50 53 55 55 57 59 61 63 63 62 62 60 60 60 60 60 61 63 63 62 61 60 60 59 60 60 60 59 59 61 60 59 57 57 57 58 57 55 56 55 56 56
56 52 50 49 48 42 45 46 47 51 52 56 61 62 60 61 60 60 60 61 61 60 60 61 62 62 62 61 60 58 57 56 57 58 58 59 59 58 55 54 53 53 52 52 52 51 50 50 50
54 48 42 40 39 40 46 45 47 52 55 57 58 59 57 57 57 58 59 60 61 61 60 61 61 61 60 59 57 57 56 56 55 56 57 55 55 55 52 52 51 51 51 51 51 48 45 43 41
50 48 39 33 34 38 44 41 47 55 57 59 57 55 56 56 56 57 58 59 60 59 59 60 59 59 59 58 57 56 57 56 55 55 54 52 52 51 50 51 52 51 51 51 48 44 42 41 40
50 44 48 37 28 34 42 46 52 54 55 55 55 56 55 56 56 58 59 59 60 59 58 57 57 58 58 57 55 55 54 54 54 53 52 50 50 50 51 52 52 50 49 47 46 45 41 41 41
53 52 43 41 32 30 40 40 46 48 51 52 53 53 54 56 58 60 61 60 59 59 59 56 59 57 57 57 55 54 54 54 52 51 49 49 49 50 50 50 51 51 51 50 48 48 47 45 45
48 46 44 44 39 33 28 39 50 50 51 52 54 53 54 56 58 60 60 60 59 58 59 58 57 56 56 55 53 52 52 51 49 48 48 48 50 50 50 50 50 48 47 48 48 48 47 46 46
50 46 45 38 35 37 34 38 53 53 52 53 54 52 55 56 57 58 58 58 57 58 58 57 56 55 53 52 52 50 49 48 47 47 48 48 49 49 49 49 46 45 48 47 45 44 45 44 44

GFSSGP_sfc_temp_021.txt.gz
Temp
79 90 97 93 78 81 74 75 84 79 79 86 86 85 82 83 77 67 91 91 92 91 88 84 74 74 74 75 76 76 77 76 76 76 76 75 74 74 74 74 74 75 76 76 76 76 76 74 73
96 95 93 88 75 72 73 80 79 82 84 87 87 86 83 77 85 85 86 91 92 92 92 84 72 73 74 74 74 75 76 76 76 76 76 76 75 74 74 74 73 74 74 75 76 75 74 72 72
89 94 86 82 79 75 71 80 80 83 85 85 83 89 84 79 87 88 90 91 92 90 89 80 72 73 73 74 74 74 74 74 74 75 75 76 75 75 74 73 73 73 74 75 75 74 72 71 71
91 91 88 78 74 79 79 80 83 81 84 86 87 79 83 91 88 90 91 92 90 90 87 74 72 73 73 74 73 73 73 73 73 73 74 74 74 74 73 73 73 73 74 73 72 72 71 70 70
93 91 80 76 74 79 83 84 85 82 83 84 85 79 78 87 91 91 90 92 89 91 87 83 72 73 74 74 73 73 72 72 72 73 73 73 73 72 72 72 72 72 72 72 71 71 70 69 69
86 90 76 71 72 78 82 84 83 83 84 83 83 81 80 89 88 88 90 90 91 89 89 84 73 73 73 72 72 71 71 71 71 71 71 71 71 71 71 71 71 71 70 70 70 69 69 68 68
81 82 75 73 72 74 78 85 82 82 82 81 86 78 80 85 88 89 90 91 91 91 90 89 86 77 71 71 71 70 71 70 70 70 70 70 70 70 70 70 70 70 69 69 68 68 67 67 67
89 86 75 75 72 72 80 82 85 83 81 88 89 77 74 83 87 90 90 89 90 90 90 90 90 89 87 81 70 70 70 70 70 70 69 69 69 70 70 70 69 69 68 68 67 67 66 66 66
91 78 72 72 73 74 82 80 84 87 82 83 85 86 88 88 88 87 86 87 88 89 88 89 90 88 87 88 79 71 70 70 69 71 69 71 83 83 78 68 68 68 67 67 67 66 66 66 66
83 79 74 81 81 79 82 82 81 81 80 81 82 87 89 87 86 84 84 84 85 85 88 89 87 86 86 90 86 85 86 87 85 85 83 85 81 81 80 72 68 68 68 68 67 66 66 66 81
83 76 80 80 83 85 82 81 84 81 78 82 81 83 86 85 85 84 86 87 87 88 89 89 85 85 85 85 88 90 90 88 87 84 82 83 81 82 82 82 81 79 71 80 73 75 78 78 77
76 81 82 82 82 81 80 84 80 83 83 88 88 88 87 84 84 85 86 88 89 89 89 88 86 84 84 88 89 88 88 87 86 84 82 81 81 80 80 81 80 80 81 79 79 79 78 76 76
79 80 82 83 82 82 82 80 80 81 87 88 88 88 86 86 87 88 90 91 90 89 89 89 87 84 85 83 86 85 84 86 83 85 83 82 80 79 80 79 80 80 81 80 79 79 78 77 76
82 81 81 82 80 80 78 79 81 83 87 87 86 86 88 87 88 88 89 89 89 90 89 90 88 85 85 85 84 83 84 85 85 85 82 80 80 78 78 78 79 80 81 81 79 77 76 76 76
82 76 79 80 81 79 82 76 77 85 85 84 85 87 88 89 90 88 89 89 90 90 90 89 88 87 84 84 84 85 87 83 84 85 81 80 79 78 77 78 78 79 80 78 78 77 77 76 77
77 78 71 78 79 79 79 71 81 85 83 83 85 86 87 88 89 91 90 90 91 90 89 89 89 86 84 85 85 86 87 84 84 83 83 80 79 78 76 77 77 78 77 77 76 76 75 75 75
76 69 69 71 78 77 77 73 83 84 82 81 84 86 86 87 89 90 90 89 89 89 88 87 87 84 84 84 85 83 82 82 84 83 83 81 79 78 76 76 76 76 76 75 75 75 74 73 74
68 68 68 69 74 76 75 74 80 80 80 81 83 85 85 86 87 88 87 87 87 84 84 85 85 84 82 83 82 83 82 83 83 82 82 79 78 77 75 75 75 75 74 74 74 72 73 72 72
72 69 68 72 74 71 72 73 75 78 80 78 80 81 82 84 85 84 82 83 83 82 83 83 82 78 81 82 79 80 79 81 81 82 79 77 77 75 73 74 74 73 72 72 71 71 69 70 72
70 67 67 70 72 70 71 72 74 76 75 79 79 79 80 80 79 79 79 79 78 78 79 80 79 78 80 82 79 77 76 78 79 79 77 77 74 73 73 70 70 71 70 69 69 68 67 69 70
69 65 64 64 70 73 70 68 70 74 76 77 78 79 80 78 77 78 77 76 76 76 77 78 78 77 76 76 80 78 78 78 77 76 76 76 74 72 70 69 69 68 68 68 68 67 66 64 67
64 68 66 65 64 62 71 60 67 71 71 73 74 76 76 77 78 77 76 75 74 74 76 76 76 76 76 74 74 71 72 71 73 73 74 72 71 71 71 70 69 66 66 65 65 67 64 63 61
65 68 65 65 64 66 66 63 64 71 67 69 71 73 74 75 75 74 74 74 74 74 74 75 76 75 74 73 71 71 69 71 71 69 67 68 70 70 70 69 67 64 64 64 62 60 58 59 56
70 67 66 66 65 53 62 61 62 66 66 68 71 71 72 73 74 74 75 76 75 74 74 74 75 76 75 73 71 68 66 66 66 67 66 67 67 67 67 67 65 63 62 61 57 55 52 50 50
70 64 53 49 51 50 62 59 59 65 68 69 68 69 71 72 72 73 73 74 74 73 73 73 74 73 74 71 70 69 68 67 65 65 65 62 63 63 63 62 61 62 59 56 54 52 51 48 45
63 62 50 41 46 52 61 54 61 69 71 70 70 71 71 71 71 72 72 72 73 73 73 72 71 71 73 72 70 69 68 67 65 64 62 60 60 61 62 61 60 57 54 52 51 51 49 50 49
62 57 62 51 46 45 58 61 65 68 67 67 68 69 69 69 70 72 73 73 73 72 72 71 70 71 71 69 68 66 66 64 63 61 60 60 60 60 60 59 55 54 52 52 51 50 50 49 49
64 66 53 56 39 39 55 56 58 60 63 67 67 67 69 70 70 72 72 72 72 72 72 71 71 70 67 66 65 65 63 63 61 60 58 58 58 59 55 54 53 52 52 50 50 49 50 48 46
62 60 58 59 52 43 42 52 66 64 65 64 67 67 68 69 69 71 71 69 71 70 69 69 69 67 65 66 65 63 62 61 60 59 58 58 58 57 56 55 52 51 49 48 47 47 47 47 48
64 60 59 48 45 49 45 47 67 67 66 66 67 67 67 68 69 68 68 67 66 66 68 67 66 65 65 64 63 61 61 60 59 58 56 54 54 54 53 50 45 45 47 49 47 46 47 45 46

GFSSGP_sfc_temp_024.txt.gz
Temp
75 87 88 85 70 72 69 75 83 78 78 85 87 83 76 77 73 61 84 89 87 81 81 78 73 74 75 75 76 76 76 76 76 76 75 75 74 74 75 75 75 75 76 76 76 76 75 74 73
84 87 89 80 67 64 70 79 75 78 82 87 87 85 78 72 81 81 83 89 89 85 82 77 72 73 74 74 74 75 76 76 75 75 75 75 75 74 74 74 74 74 75 76 76 75 74 73 72
77 87 78 74 70 65 69 77 77 81 86 85 82 84 81 77 83 83 88 89 89 82 79 75 72 72 73 73 73 74 74 74 74 75 75 75 75 75 74 73 73 74 74 75 74 73 72 71 71
83 83 80 69 68 76 77 79 81 81 84 87 84 74 83 88 83 86 89 89 86 80 77 72 71 72 73 73 73 73 73 73 73 73 74 74 74 74 73 73 73 73 74 73 72 72 71 70 70
86 81 69 69 72 78 81 83 83 79 81 83 84 74 76 84 87 88 88 89 84 80 77 74 71 72 73 73 73 72 72 72 72 72 72 73 73 72 72 72 72 72 72 71 71 70 70 69 69
75 81 67 67 71 77 81 84 84 81 83 83 80 76 76 86 85 87 89 87 87 82 78 76 72 72 72 72 71 71 71 71 71 71 71 72 71 71 71 71 70 70 70 70 69 69 69 68 68
73 70 66 71 70 73 77 85 81 82 81 81 85 73 78 82 85 88 87 87 86 85 82 78 74 72 71 70 70 70 70 70 70 70 70 70 70 70 70 70 70 70 69 69 69 68 68 68 68
81 76 69 73 69 69 79 82 85 83 77 88 87 74 72 80 85 87 86 86 86 84 85 82 79 77 74 71 69 69 69 69 70 70 69 69 69 70 70 69 69 69 69 68 68 67 67 67 67
88 75 70 72 72 72 81 78 84 87 81 84 85 82 83 85 86 84 82 83 83 84 82 82 82 79 77 75 73 70 70 70 69 69 69 68 72 71 72 69 69 69 68 68 68 68 67 66 66
81 72 72 80 80 77 80 81 80 79 79 78 80 85 84 84 83 80 80 79 80 80 81 81 79 78 80 86 73 74 77 73 73 75 74 75 74 74 76 71 68 68 68 68 67 67 66 66 66
82 72 78 79 81 83 80 80 83 79 75 79 77 80 82 82 81 80 82 83 82 82 82 82 79 79 79 78 77 78 78 76 75 76 75 74 74 73 71 68 67 65 66 67 66 66 64 69 67
76 81 81 81 82 82 79 82 79 81 80 87 85 85 83 81 81 82 82 84 83 83 83 81 80 78 78 78 77 77 77 75 75 74 74 71 70 70 70 69 69 68 68 68 68 67 68 68 69
77 79 81 82 81 81 82 79 79 80 84 87 87 85 83 82 83 84 86 86 85 82 83 82 80 78 78 77 76 75 74 74 74 74 74 72 70 68 69 68 68 68 69 68 67 67 67 67 68
81 80 80 81 80 80 77 78 79 82 85 84 85 83 84 83 85 85 85 85 85 85 83 82 81 79 79 77 75 74 74 74 74 73 72 73 70 68 68 67 68 67 68 67 66 66 65 65 66
82 75 78 79 79 78 81 74 75 83 85 83 83 84 85 86 87 85 86 85 87 80 85 80 70 80 78 78 76 75 75 75 73 73 73 73 72 69 68 66 66 67 67 67 66 66 65 65 67
76 76 68 77 79 79 77 67 79 84 82 81 83 83 84 86 87 87 87 86 86 83 79 81 86 80 78 77 76 76 75 73 73 73 72 72 72 71 67 66 65 67 66 65 64 63 63 63 63
73 65 68 70 80 78 76 70 80 84 82 80 82 83 83 84 86 87 87 86 85 81 82 81 82 79 78 77 76 74 74 72 73 72 72 70 71 70 67 65 65 66 65 63 64 63 62 61 61
64 67 69 68 74 75 73 73 79 81 80 79 81 82 83 83 85 84 82 81 80 77 79 81 79 76 73 75 74 73 72 72 72 71 70 70 69 68 65 65 64 65 63 62 61 60 61 60 61
72 69 68 73 75 71 71 72 75 78 79 78 79 80 80 76 78 78 78 78 77 77 76 76 72 73 73 72 70 69 68 69 70 71 71 69 69 68 64 63 63 62 61 60 60 59 58 58 59
71 67 67 72 74 70 71 70 74 75 75 78 77 78 75 74 75 75 74 73 72 73 74 74 74 72 72 72 70 68 67 69 69 69 69 70 68 66 66 61 61 60 59 58 57 56 56 57 57
70 65 64 63 70 73 69 66 68 73 75 76 76 77 76 74 73 73 72 70 70 70 70 73 72 72 70 68 71 69 68 68 67 66 66 69 65 64 64 62 60 59 58 55 55 56 55 53 55
62 69 66 65 63 57 70 54 64 68 69 71 72 72 73 74 75 74 72 70 68 68 70 72 72 72 71 68 66 64 64 63 64 64 64 66 65 63 63 61 59 58 56 54 54 58 52 51 48
64 69 66 65 62 62 65 59 63 69 64 67 69 71 71 72 72 72 71 70 70 69 68 70 71 72 70 68 67 63 61 61 62 61 60 60 61 60 61 60 57 55 55 54 51 50 49 48 46
71 67 67 66 62 50 61 60 55 63 65 67 69 69 70 71 71 72 73 73 70 69 69 69 70 71 70 68 66 63 60 60 58 58 57 57 58 58 58 59 55 55 54 53 52 51 47 48 46
69 62 49 44 46 45 62 58 58 66 69 69 66 67 69 70 70 71 71 71 71 69 69 69 69 68 68 67 66 64 61 61 59 57 56 54 55 54 54 55 54 52 52 50 49 48 47 47 42
64 61 47 39 40 46 62 54 56 68 69 69 70 69 70 70 70 70 71 70 70 70 68 68 68 67 67 65 61 61 61 59 58 56 55 53 52 52 54 53 52 52 51 49 49 47 47 45 44
62 56 63 51 44 42 54 58 64 67 66 68 68 69 68 69 69 70 71 70 69 68 67 65 66 67 65 63 61 60 58 57 55 55 53 52 52 55 52 51 51 50 48 49 47 46 46 44 45
65 66 52 52 38 38 51 54 51 59 61 65 67 66 67 69 69 69 70 68 68 67 66 64 64 64 63 62 59 60 58 57 55 53 52 52 52 52 51 50 48 48 49 47 47 45 44 44 43
61 59 59 58 51 40 38 48 63 62 64 63 65 67 66 67 67 68 68 67 67 65 65 63 63 63 61 60 58 56 56 56 55 53 52 51 51 51 50 49 47 46 45 45 44 45 44 43 41
65 60 59 44 44 46 43 45 66 66 66 66 65 66 67 68 67 66 66 66 64 64 63 63 61 61 59 59 58 56 56 54 52 51 51 50 49 51 50 49 47 45 45 45 44 43 43 42 41

GFSSGP_sfc_temp_027.txt.gz
Temp
70 76 74 72 60 58 55 64 73 70 71 77 77 71 66 69 65 55 74 75 74 73 74 74 73 74 74 75 75 75 75 75 75 75 74 74 74 75 75 74 74 75 76 76 76 75 74 74 73
73 80 74 68 56 50 56 69 67 70 76 77 76 73 69 64 75 73 71 77 77 75 73 73 72 73 73 74 74 74 75 75 75 74 74 74 74 74 74 74 73 74 75 75 75 74 73 72 71
75 78 66 60 56 51 55 68 70 73 78 76 72 75 72 68 75 74 79 77 75 72 72 72 71 72 73 73 73 73 73 73 74 74 74 74 74 74 73 73 73 74 74 74 74 73 72 71 70
74 71 68 57 56 65 66 68 73 74 78 77 74 66 74 79 75 78 77 75 71 67 66 69 70 71 72 73 73 72 72 72 72 72 73 74 73 73 73 72 72 73 73 72 72 71 70 69 69
71 66 56 55 61 69 72 74 75 72 72 72 73 65 68 76 80 81 76 75 69 65 66 69 70 71 72 73 72 72 71 71 71 72 72 72 72 72 71 71 71 71 71 71 71 70 69 68 68
65 65 54 51 62 70 72 75 77 74 76 73 70 68 66 76 75 77 77 73 72 68 67 70 71 71 71 71 71 70 70 70 70 70 71 71 71 71 70 70 70 70 70 69 69 68 68 68 68
63 59 53 57 61 66 72 77 72 72 73 71 74 64 68 73 75 76 76 75 73 70 67 67 69 70 69 69 69 69 69 69 69 70 69 69 69 69 70 70 70 69 69 69 68 68 67 68 67
67 63 57 61 62 60 73 75 74 73 69 77 76 63 62 71 75 75 75 75 74 72 71 68 67 67 66 66 68 68 68 68 69 69 69 68 68 69 69 69 69 69 69 69 68 68 67 67 67
72 58 56 62 63 62 69 68 72 74 73 74 73 73 73 76 75 73 71 71 72 74 72 70 68 68 66 65 69 68 69 69 68 68 68 66 66 67 68 68 68 69 68 68 68 68 67 66 66
66 56 59 69 67 65 66 69 71 69 69 68 70 75 77 75 73 71 71 70 71 73 72 73 71 68 68 76 67 66 69 67 67 67 66 66 65 66 70 67 68 68 68 68 67 67 67 66 62
65 61 67 69 72 71 67 68 73 67 62 69 67 70 72 72 71 72 72 73 72 75 73 72 72 72 71 70 66 66 66 65 66 68 68 68 68 66 65 62 63 61 65 63 64 63 62 62 61
65 71 72 71 72 72 69 70 69 67 69 75 74 75 73 72 72 73 72 73 72 72 73 72 72 72 70 69 68 67 68 67 67 68 68 65 63 63 63 62 62 61 61 60 61 60 62 61 64
68 68 72 72 73 71 75 69 69 68 74 76 77 77 74 74 72 75 75 78 76 72 74 73 72 70 71 70 67 68 67 67 67 67 67 66 64 63 63 63 63 63 62 62 61 62 63 63 64
71 71 70 68 68 70 68 68 67 68 75 74 76 73 73 74 75 75 74 79 77 75 74 74 73 69 71 69 68 67 67 67 66 65 66 67 64 63 62 62 62 62 61 61 61 61 61 61 62
73 65 68 67 69 67 66 61 65 71 74 74 74 73 73 76 75 76 75 74 76 72 72 72 67 70 68 68 69 67 67 68 65 65 66 66 66 64 63 61 60 61 61 61 61 61 60 59 62
65 62 55 66 69 69 67 55 66 72 72 68 70 72 72 74 76 75 76 73 74 72 73 71 71 65 65 65 68 68 66 65 65 64 64 66 66 65 62 61 60 61 61 60 59 58 58 58 57
58 52 57 61 70 67 63 58 67 70 71 68 66 68 71 70 70 72 73 72 70 70 70 68 65 65 65 64 64 64 67 67 65 65 63 65 65 64 60 59 60 59 59 58 58 57 56 56 56
53 55 60 56 61 63 59 57 63 67 70 63 64 65 66 66 67 70 69 70 69 69 68 69 68 64 64 63 65 63 63 63 63 62 63 64 63 63 60 60 59 57 56 56 55 54 55 54 55
62 59 56 58 65 59 57 58 62 64 65 63 62 64 64 64 67 67 67 66 66 66 68 66 64 62 65 62 61 60 59 61 61 63 65 65 63 62 60 58 57 57 55 54 54 53 52 54 53
63 59 55 60 66 61 57 56 60 65 61 64 64 63 63 63 65 65 63 61 60 62 63 64 64 63 63 61 60 60 59 61 61 61 61 61 61 61 61 56 55 55 54 52 51 51 50 49 50
59 56 55 56 61 60 56 53 58 63 65 68 65 64 64 63 62 63 63 59 59 59 61 63 63 63 62 61 60 60 59 58 58 59 59 59 59 58 57 56 54 52 52 50 50 48 46 45 46
54 62 61 59 53 45 57 41 51 59 60 63 62 59 59 62 63 63 61 59 59 58 60 62 64 63 63 62 59 57 54 53 54 55 56 57 56 57 57 55 52 51 51 50 48 48 45 44 41
57 61 59 57 51 47 52 45 49 59 56 58 58 60 59 60 60 60 59 61 60 60 60 61 62 62 62 61 59 56 55 56 56 55 53 52 54 54 54 54 52 50 49 47 46 45 48 48 46
65 59 58 56 51 36 50 49 48 53 56 57 60 61 61 60 61 61 61 61 59 59 59 60 61 62 61 60 59 57 55 54 53 51 49 50 50 50 51 53 49 48 47 47 49 48 47 46 45
59 51 35 34 32 33 52 49 49 56 61 60 58 58 59 59 59 59 60 59 59 58 58 60 60 61 61 58 56 55 54 54 54 53 51 49 47 47 47 47 47 47 47 48 48 47 43 44 41
55 52 33 31 29 35 53 44 47 58 60 61 62 60 61 60 61 59 60 60 59 60 58 59 60 60 58 56 55 53 53 51 50 50 48 47 46 46 47 47 46 45 45 44 45 43 44 43 41
54 46 55 41 35 30 42 48 55 59 60 63 62 60 58 59 60 61 61 59 57 58 57 57 58 58 57 54 53 52 52 51 49 48 47 45 45 50 46 45 44 44 44 44 46 44 41 40 39
57 59 41 39 30 30 40 43 42 52 56 61 60 58 57 59 59 58 57 57 57 57 57 56 56 56 54 53 52 52 51 50 48 46 45 45 45 46 45 44 44 43 43 43 43 42 41 40 38
52 49 50 49 38 29 26 36 52 53 56 56 56 58 56 57 56 56 57 57 57 57 56 55 55 54 52 52 51 50 48 47 46 45 45 45 45 45 45 45 44 43 42 41 40 40 41 41 39
56 52 51 32 36 32 30 35 56 54 56 56 56 60 57 57 56 57 57 56 54 55 55 54 53 53 52 52 50 50 48 46 45 45 45 45 45 45 45 44 43 43 42 41 40 39 39 37 36

GFSSGP_sfc_temp_030.txt.gz
Temp
70 73 73 71 60 57 52 58 68 65 63 70 73 67 62 63 62 53 70 71 72 71 73 74 73 74 74 75 75 75 75 75 75 74 74 74 74 74 74 74 74 75 76 76 75 75 74 73 72
72 78 72 65 55 48 52 64 65 68 70 72 72 70 66 60 67 65 66 73 72 72 72 72 72 73 74 74 74 74 75 75 74 74 74 74 74 74 74 73 73 74 74 75 74 74 73 71 70
74 77 66 59 52 47 52 64 68 71 73 71 68 71 70 63 67 68 72 73 72 69 70 71 71 72 72 72 73 73 73 73 73 74 74 74 73 73 73 72 72 73 73 74 73 73 71 70 69
72 69 66 56 51 59 63 67 71 71 70 73 70 64 71 75 71 72 73 71 67 65 67 69 70 71 72 72 72 72 72 72 72 72 73 73 73 73 72 72 72 72 72 72 72 71 70 68 68
70 65 56 53 57 65 69 70 74 67 66 68 70 64 65 70 74 72 70 70 65 63 65 68 69 71 72 73 72 72 71 71 71 72 72 72 72 72 71 70 70 70 71 71 70 69 69 68 68
64 63 53 49 59 68 71 71 71 67 67 68 67 66 64 72 71 71 70 66 67 65 65 69 70 71 71 71 71 70 70 70 70 70 71 71 71 70 70 70 70 70 70 69 69 68 68 68 68
61 56 52 54 58 62 69 72 69 67 68 66 70 63 65 68 71 71 68 66 67 66 65 65 67 69 69 69 69 69 69 69 69 70 69 69 69 69 70 70 70 70 69 69 69 68 68 68 67
66 61 53 56 60 61 70 71 71 69 63 75 74 61 61 67 72 71 69 67 65 65 66 63 64 65 64 65 68 68 68 68 68 69 68 68 68 68 69 69 69 69 69 69 69 68 68 67 67
70 56 50 56 60 66 68 68 70 69 69 67 69 67 73 71 72 68 64 64 65 67 65 64 64 64 64 65 67 68 68 68 68 68 68 65 65 66 67 67 68 69 69 68 68 68 67 67 66
63 53 57 64 68 64 67 69 69 65 63 63 65 72 72 72 70 68 66 65 66 67 66 66 65 64 65 72 66 65 68 66 66 66 65 64 63 63 67 66 68 68 68 68 68 67 67 65 60
61 58 63 68 68 69 67 67 69 63 57 65 65 68 69 69 68 69 69 70 70 70 70 68 67 65 65 68 64 63 64 63 64 65 64 63 65 63 63 61 62 61 64 61 63 62 61 60 59
61 64 69 65 66 67 67 67 66 64 65 71 72 72 69 68 69 70 70 69 68 70 70 70 68 67 66 65 64 64 64 64 64 65 65 62 61 60 60 60 60 59 59 59 59 58 60 60 61
64 65 68 68 69 66 69 67 66 64 68 72 73 72 71 71 71 73 74 73 71 70 72 70 68 67 67 65 64 65 64 65 65 64 65 63 61 60 60 60 59 59 59 59 59 59 60 60 61
68 67 67 65 64 67 67 64 66 63 69 70 72 70 71 72 72 72 69 71 72 72 70 67 67 66 65 67 67 66 65 65 64 63 64 64 62 61 60 59 60 59 59 59 58 58 58 58 58
68 62 64 62 63 61 65 59 60 68 71 69 70 71 71 72 73 73 72 72 74 72 70 70 66 67 67 67 66 66 66 64 63 63 64 64 62 61 60 59 59 58 58 58 58 57 57 57 59
63 60 53 62 64 65 64 54 63 67 69 67 68 70 70 67 69 68 68 68 68 72 70 68 68 66 64 64 63 63 65 62 62 62 61 63 63 62 59 58 58 57 57 56 55 55 54 54 54
55 49 52 57 66 63 59 56 63 66 67 65 61 60 63 62 63 65 65 65 64 65 65 62 63 62 62 62 62 62 62 61 61 60 60 62 63 62 58 57 56 56 56 54 54 53 52 51 52
49 50 55 53 58 59 56 53 61 62 63 57 58 58 59 60 61 64 64 66 66 65 63 62 61 62 62 60 59 59 59 60 60 59 60 59 59 59 57 56 55 55 54 53 52 51 51 50 50
59 53 54 53 59 57 54 54 56 57 57 56 57 58 58 59 60 62 61 60 64 63 62 60 59 59 58 57 56 57 57 58 58 59 59 58 58 59 56 54 54 53 52 50 50 49 49 48 48
59 55 52 58 63 58 52 53 55 57 56 58 58 57 57 58 60 61 58 56 56 57 59 59 60 60 60 58 57 57 56 56 56 56 56 57 56 56 57 52 52 51 50 50 48 47 46 46 45
54 52 51 52 56 56 55 51 53 58 59 60 59 59 59 58 56 58 59 55 55 56 57 59 60 60 59 59 58 56 56 54 54 54 53 53 54 54 53 51 50 49 49 48 46 45 45 42 43
49 58 57 54 49 44 52 38 47 52 54 56 57 55 56 58 58 59 57 56 57 56 58 59 60 59 60 59 57 56 53 52 52 51 51 51 52 52 52 51 49 47 47 46 45 46 43 45 45
54 58 55 54 47 44 47 42 44 54 50 52 52 55 55 56 57 56 57 58 58 58 57 57 59 60 59 57 56 54 53 52 51 49 49 50 50 51 51 50 47 46 46 45 45 44 44 43 41
61 56 53 51 47 35 47 44 42 46 51 54 56 55 56 55 55 56 57 58 56 56 55 56 58 57 57 55 54 52 51 50 49 49 47 47 47 48 47 48 46 45 44 44 43 43 42 41 40
56 47 33 33 31 32 50 44 43 54 57 58 54 54 55 55 54 55 56 56 55 53 55 56 57 55 56 55 53 52 50 49 50 50 46 46 45 44 44 45 44 44 44 43 42 41 41 40 39
51 48 32 32 28 33 48 39 43 54 59 59 59 57 57 56 56 54 54 54 55 55 55 55 56 55 54 52 51 50 51 49 48 47 45 43 43 43 44 44 44 43 43 42 41 40 41 41 39
51 44 51 38 33 29 39 44 52 54 58 59 58 60 58 57 55 54 55 54 54 54 54 54 54 53 52 51 50 49 49 48 46 45 44 43 43 47 43 43 43 42 42 42 41 39 39 39 38
55 55 41 36 29 30 37 39 42 48 51 55 55 54 55 54 54 54 54 54 54 53 53 52 52 51 51 50 50 50 48 47 45 43 43 44 44 44 43 42 42 42 42 41 40 38 38 37 37
49 46 46 45 35 29 25 34 49 50 53 53 54 55 54 54 54 52 52 52 52 53 52 51 50 50 50 50 49 46 45 45 44 44 43 43 43 44 43 43 42 41 40 40 38 38 38 37 35
52 49 46 31 36 30 29 33 52 52 52 53 54 55 53 51 50 50 50 50 50 51 51 51 50 50 50 50 49 48 46 45 44 43 43 43 43 44 43 42 41 41 40 39 38 36 36 34 34

GFSSGP_sfc_temp_033.txt.gz
Temp
69 73 73 71 60 53 47 55 65 62 61 66 67 66 61 61 60 54 67 70 71 72 71 73 72 73 74 74 74 74 75 75 75 74 74 74 74 74 74 74 74 75 75 75 75 74 73 72 71
71 75 72 64 54 43 49 60 62 64 66 70 69 66 64 60 66 65 67 72 74 72 71 71 72 73 73 73 74 74 75 75 74 74 74 74 73 73 73 73 73 73 74 74 74 73 72 71 70
72 75 66 58 51 48 50 61 63 68 71 70 68 70 68 62 66 66 69 72 72 70 70 71 71 71 72 73 73 73 73 73 73 73 73 73 73 73 73 72 72 73 73 73 73 72 71 69 69
72 69 65 55 53 57 58 61 67 66 70 71 70 63 69 70 66 68 70 69 67 66 67 69 70 71 72 72 73 73 72 72 72 72 73 73 73 72 72 71 71 72 72 72 72 71 69 69 68
67 63 55 50 53 60 66 67 69 65 66 68 69 63 62 66 70 69 67 68 65 64 66 68 69 71 72 73 72 71 71 71 71 71 72 72 72 71 71 71 71 71 71 71 70 69 69 68 68
62 61 51 51 56 63 67 69 68 65 66 67 66 63 59 68 67 67 68 64 66 64 65 67 70 70 71 71 71 70 70 70 70 70 71 71 71 71 71 70 70 70 70 69 69 69 69 68 68
59 54 48 52 55 60 67 69 65 66 66 66 69 57 61 64 66 67 64 62 64 64 63 64 66 68 69 69 69 68 69 69 69 69 69 69 69 69 70 70 70 70 69 69 69 69 68 68 68
61 60 54 53 56 57 69 69 67 68 63 72 70 57 55 64 66 64 63 62 61 62 63 62 63 64 63 64 67 68 68 68 68 69 68 68 68 68 69 69 69 69 69 69 69 68 68 68 67
61 54 51 53 60 62 68 66 66 68 66 67 66 66 69 68 67 63 60 60 61 64 62 62 62 62 62 63 67 67 68 68 68 68 68 65 64 64 66 66 68 69 69 69 69 68 67 66 65
59 52 55 62 66 67 66 68 66 64 60 60 62 66 68 66 65 63 62 61 61 62 63 61 62 62 63 70 64 64 66 65 64 64 64 63 62 62 66 65 67 68 68 68 67 67 66 65 59
60 57 63 65 68 68 65 63 65 61 56 62 62 63 65 65 64 65 65 65 65 66 65 64 63 62 63 66 62 62 63 63 63 63 62 62 63 61 62 60 60 59 63 60 61 60 59 59 58
59 64 66 65 68 67 64 65 62 57 63 68 69 67 66 65 65 66 66 66 65 65 66 65 64 63 62 63 63 62 62 63 62 63 63 61 60 59 59 59 58 58 57 57 57 57 58 58 59
62 64 65 66 67 64 67 64 64 62 64 69 70 69 67 67 67 70 71 69 69 67 68 66 64 63 64 62 62 62 62 64 64 64 63 61 59 59 58 58 58 57 57 57 57 56 57 57 58
66 64 62 63 65 65 64 60 61 59 64 67 68 67 68 69 69 69 67 67 68 69 68 65 64 64 64 63 62 62 62 63 63 62 62 62 60 59 59 58 58 57 57 56 55 55 55 54 55
64 60 61 60 60 60 63 57 58 62 66 66 67 68 68 69 66 66 66 67 70 68 67 65 63 63 63 64 64 63 62 63 61 62 62 61 60 59 58 57 56 56 55 55 55 54 54 54 55
59 57 51 59 61 61 61 52 59 61 64 63 64 62 62 60 61 60 64 67 66 66 66 64 67 62 62 62 61 60 61 60 60 60 59 60 60 59 57 55 54 54 54 53 53 52 52 51 50
53 47 49 55 61 58 57 53 58 60 64 58 55 56 58 57 59 60 61 60 63 63 64 61 62 60 62 60 58 58 58 57 57 58 57 58 58 57 54 53 52 53 53 52 51 51 49 49 48
47 48 51 51 55 57 52 52 55 58 57 53 52 54 55 56 56 60 60 61 60 59 60 60 61 61 60 58 57 56 59 58 58 56 56 56 56 55 53 53 53 55 51 50 49 48 49 47 46
54 50 48 50 56 55 50 49 50 51 53 51 51 54 55 55 56 59 59 60 60 57 58 59 59 58 58 57 56 55 53 54 53 55 55 55 55 57 55 53 51 50 49 48 48 47 46 45 44
55 51 48 53 57 55 48 48 50 52 51 52 53 53 54 54 56 57 56 55 56 57 56 57 59 59 58 58 55 55 53 53 52 52 53 54 55 53 53 50 50 50 50 47 46 45 45 44 42
51 49 48 50 53 54 50 46 48 53 54 55 54 54 55 55 55 55 55 53 53 55 56 57 57 58 58 57 56 54 53 52 51 51 50 51 51 51 50 49 48 47 46 44 44 43 42 41 41
48 55 54 52 48 41 49 34 44 48 50 51 52 51 52 54 55 55 53 51 53 53 54 56 57 57 57 57 56 55 53 51 49 48 48 48 50 50 50 49 47 46 45 44 44 45 41 41 39
52 55 52 51 45 42 44 39 40 49 46 48 49 51 54 56 54 56 58 57 57 55 53 54 56 56 56 55 54 52 52 50 49 48 48 49 49 49 49 48 46 45 44 43 42 41 41 40 39
57 53 50 46 44 34 43 41 38 43 47 49 51 53 55 56 56 55 57 56 54 53 52 53 54 54 54 53 53 52 50 48 47 47 49 47 46 45 45 46 44 43 43 42 41 41 40 39 38
53 45 32 32 30 31 46 41 41 50 53 52 51 52 55 55 53 52 54 56 56 55 53 53 53 53 53 52 51 50 49 48 48 48 45 44 43 42 43 44 43 42 42 42 41 40 39 38 37
48 46 32 33 28 32 44 35 42 50 54 55 55 53 53 53 55 56 57 55 55 53 52 52 53 52 52 50 50 49 50 48 47 46 44 42 42 42 43 43 43 42 42 41 40 39 39 38 37
48 42 48 35 32 28 35 40 50 51 51 53 53 54 55 53 52 52 52 52 51 52 51 51 51 51 50 49 48 48 48 46 45 44 42 42 42 44 42 42 41 41 41 41 39 38 37 37 36
51 53 39 34 29 29 34 35 37 45 48 52 55 52 51 50 50 50 50 51 51 51 51 50 50 50 49 49 48 48 47 46 44 42 42 42 42 42 42 41 41 40 40 39 38 37 37 35 35
48 44 43 41 33 28 24 33 46 48 50 50 50 50 50 48 48 49 50 51 51 50 49 48 48 49 48 48 47 46 45 44 43 42 42 42 42 42 42 43 42 41 41 40 38 37 36 35 33
49 45 44 30 34 28 28 33 49 48 51 51 49 49 47 49 50 49 50 50 50 48 49 49 49 48 48 48 47 45 44 43 42 41 42 42 41 43 42 41 41 41 41 40 37 36 35 34 32

GFSSGP_sfc_temp_036.txt.gz
Temp
62 67 67 67 59 54 46 55 62 60 60 63 67 63 60 61 60 53 67 69 71 72 70 72 72 73 74 74 74 74 75 75 75 74 74 74 74 74 74 74 74 75 75 75 74 74 73 72 71
66 70 67 64 54 47 48 59 61 60 63 65 66 66 63 59 67 65 67 72 74 72 70 70 72 73 73 73 74 74 75 74 74 74 74 73 73 73 73 73 73 73 74 74 74 73 72 71 70
68 69 60 56 51 46 51 60 62 65 67 67 65 68 65 61 67 66 71 73 73 72 72 71 71 72 73 73 73 73 73 73 73 73 73 73 73 73 73 72 72 73 74 74 73 72 71 70 69
66 63 59 51 50 56 57 61 67 66 69 69 68 62 66 68 66 67 72 73 71 70 71 69 70 71 72 73 73 72 72 72 72 72 73 73 73 73 72 71 72 72 73 73 72 71 70 69 68
62 57 50 44 49 57 62 65 64 64 65 66 68 61 62 65 68 67 69 70 68 67 68 68 69 71 72 73 72 72 72 71 71 72 72 72 72 72 71 71 71 71 71 71 71 70 70 69 68
57 54 46 45 49 59 63 68 67 65 65 65 64 61 59 66 66 66 68 65 66 65 65 67 70 70 71 71 71 70 70 70 70 71 71 71 71 71 70 70 70 70 70 70 70 69 69 68 68
55 50 45 49 51 58 63 69 64 64 65 63 67 56 61 64 64 65 63 63 63 63 63 64 66 68 69 69 69 69 69 69 69 70 70 70 69 69 70 70 70 70 70 70 70 69 68 68 68
58 57 50 51 55 55 65 68 69 67 62 70 68 55 58 63 64 63 61 59 60 61 62 62 63 64 64 65 68 67 68 68 68 69 68 68 68 68 69 69 69 70 70 69 69 68 68 67 66
62 53 48 52 56 59 66 64 68 68 65 65 65 62 65 64 63 61 58 58 59 63 61 61 61 62 62 63 66 67 68 68 68 68 68 65 63 63 64 67 68 69 68 68 68 68 66 66 64
59 52 54 62 65 64 68 68 65 63 60 60 59 62 64 63 62 59 58 58 59 60 61 61 60 61 62 68 64 63 65 64 64 64 64 63 62 61 64 65 66 67 67 66 66 65 65 63 59
57 55 61 65 65 67 64 63 62 60 55 60 58 58 60 60 60 60 60 63 63 62 62 62 61 61 61 64 62 61 62 62 62 63 62 62 62 61 61 60 59 59 63 59 60 59 58 58 57
57 62 64 64 66 65 63 63 61 57 63 66 65 63 61 61 61 62 63 61 62 62 63 63 62 61 61 61 61 61 61 61 61 62 63 61 60 59 59 58 58 57 56 57 56 56 57 57 57
57 62 63 65 65 64 65 60 61 56 61 65 65 64 63 63 63 65 67 65 63 63 64 63 62 61 62 61 60 60 60 61 62 62 62 61 59 58 57 57 56 55 56 55 55 55 55 55 56
64 63 61 61 62 62 62 58 59 55 61 63 64 62 62 64 64 63 63 63 63 65 64 63 62 62 62 61 61 60 60 61 61 61 61 61 58 57 57 56 55 55 54 54 54 53 53 53 54
61 58 62 61 60 59 61 54 54 58 63 62 63 63 62 62 62 63 63 64 64 65 65 62 61 61 61 60 60 60 62 61 60 60 60 59 58 56 55 54 53 53 53 53 53 52 52 52 53
57 55 50 57 59 58 59 49 54 58 61 58 60 61 58 58 59 58 61 64 63 63 60 61 63 61 61 59 59 59 59 58 57 58 57 57 56 55 53 52 51 52 52 51 51 51 50 50 49
52 48 47 52 58 57 57 50 53 56 58 54 54 54 55 55 56 57 58 59 60 61 61 60 61 61 59 57 56 57 57 57 55 55 55 55 55 54 53 52 51 51 51 52 50 49 48 48 47
47 46 48 48 52 57 52 47 49 51 55 51 50 51 52 52 53 56 56 57 57 58 60 60 61 60 56 56 56 56 57 54 54 53 54 55 56 56 54 52 51 51 50 48 47 47 48 46 45
51 48 46 47 53 49 44 43 46 48 49 48 48 49 50 52 54 55 55 56 57 57 59 60 59 59 58 55 53 52 51 51 51 52 53 54 53 52 50 49 49 48 47 46 46 45 45 44 43
52 48 46 49 54 51 44 44 46 48 47 47 48 48 49 51 52 54 53 54 55 56 56 56 57 57 58 56 54 53 51 50 50 50 50 50 50 50 51 48 47 46 46 45 44 43 42 43 42
49 48 45 48 50 51 47 43 44 49 50 52 51 51 51 51 52 53 54 52 52 53 54 56 57 57 56 55 53 51 51 50 49 48 48 48 50 49 48 48 46 45 45 44 43 42 41 39 41
46 52 51 49 45 40 46 36 41 45 46 48 50 49 50 52 52 53 52 52 52 52 53 55 56 56 56 54 54 52 50 49 47 46 47 47 48 48 48 47 46 45 44 44 42 44 41 40 38
49 54 51 48 43 41 42 38 38 46 44 46 47 48 50 50 51 52 53 55 52 51 51 52 54 55 54 54 53 50 48 47 46 46 46 47 47 47 48 47 46 44 43 42 41 41 40 39 38
55 51 48 44 42 33 40 39 36 40 45 47 49 50 51 51 50 53 54 54 51 51 50 52 54 52 53 52 52 51 48 46 46 46 46 45 45 45 45 45 43 43 42 41 41 40 40 39 37
50 44 32 31 29 31 42 39 40 46 49 51 49 50 51 52 52 52 54 52 53 55 55 52 52 52 51 51 50 49 48 48 48 47 45 44 43 42 42 42 42 42 42 41 40 39 38 37 36
45 44 33 32 27 31 42 35 41 48 52 53 53 52 51 50 52 51 55 55 52 51 51 51 52 51 50 50 49 49 49 47 47 46 44 43 42 42 42 42 42 41 41 40 40 38 38 37 36
46 39 45 34 31 28 34 39 46 48 48 50 50 51 50 52 53 50 50 50 50 50 50 50 50 49 49 49 48 47 47 46 45 44 42 41 41 43 42 41 40 40 40 40 39 38 39 38 37
48 50 38 33 28 28 31 34 36 42 45 48 49 48 49 48 48 48 48 49 49 49 49 49 48 48 48 47 46 47 45 44 43 42 42 41 41 41 40 40 39 39 41 40 40 38 37 36 36
46 42 40 39 32 27 23 32 43 46 48 48 48 50 47 46 46 46 47 48 48 48 49 47 47 48 47 46 45 44 43 43 42 41 41 41 41 40 40 40 40 42 39 40 39 38 38 36 35
46 44 42 30 33 28 27 31 45 45 49 49 47 47 45 45 46 46 47 47 47 48 48 47 47 48 45 45 44 43 43 42 41 41 41 40 39 40 40 39 39 37 39 39 38 37 37 34 33

GFSSGP_sfc_temp_039.txt.gz
Temp
73 75 77 76 67 65 59 62 69 64 63 69 71 70 65 66 62 57 69 74 76 75 77 78 72 73 74 74 74 75 75 75 75 75 74 74 74 74 74 74 74 75 75 75 75 74 73 72 71
76 76 77 72 64 59 60 64 62 63 66 70 71 69 66 59 68 66 70 74 76 76 77 78 72 73 74 74 74 74 75 75 74 74 74 74 74 74 74 73 73 74 75 75 74 73 73 71 71
76 77 72 67 61 59 60 64 64 67 68 67 65 69 66 65 66 67 72 75 77 77 78 77 71 72 73 73 73 74 74 73 73 73 74 73 73 73 73 72 73 74 74 74 74 73 71 70 70
76 75 70 64 60 63 65 66 68 66 70 72 70 63 68 71 68 71 74 76 77 75 77 73 70 71 73 73 73 73 73 72 72 73 73 73 73 73 72 72 72 73 73 73 73 71 70 69 69
73 70 64 60 59 64 68 71 68 66 67 67 71 64 63 66 72 73 74 74 72 72 74 75 69 71 72 73 73 72 72 71 72 72 72 73 73 72 71 71 71 72 72 72 71 71 70 69 69
70 68 60 57 59 64 67 69 69 68 69 69 66 64 62 68 68 69 71 71 72 72 73 75 71 71 71 72 71 71 71 71 71 71 71 71 71 71 71 71 71 71 71 71 70 69 69 69 68
67 63 58 58 60 62 65 71 70 68 67 67 69 60 62 64 68 69 69 71 72 73 73 74 75 73 69 69 69 69 69 69 70 70 70 70 69 69 70 70 70 70 70 70 70 69 68 68 67
69 66 58 60 59 60 69 69 75 71 66 72 70 61 59 65 68 70 70 70 70 70 72 72 73 75 74 74 68 68 68 68 69 69 68 68 68 69 69 68 69 69 69 69 69 68 67 67 66
70 63 59 59 61 59 69 68 71 71 69 68 67 67 70 67 68 67 67 68 68 69 70 71 72 72 73 74 72 69 69 68 68 69 68 68 75 74 74 68 68 69 68 68 68 67 66 65 66
68 61 62 68 69 62 69 71 68 67 66 64 63 65 67 66 67 65 65 66 68 69 69 70 70 70 70 73 73 72 73 74 74 73 73 74 73 74 74 70 66 67 67 66 66 65 65 69 74
66 63 66 69 72 71 69 67 69 67 65 67 64 62 64 65 65 66 68 69 69 71 70 70 69 69 70 71 72 73 74 73 73 71 72 72 73 73 75 75 74 72 67 72 71 72 72 70 71
65 67 68 69 69 68 69 70 67 70 70 72 69 67 65 65 66 68 68 70 70 70 71 70 69 69 68 71 72 72 73 72 73 73 71 72 73 72 72 72 70 69 70 69 70 70 68 68 68
65 66 67 68 68 68 69 68 68 68 67 70 68 67 67 66 68 70 71 72 72 70 71 71 70 68 69 69 70 70 70 71 72 72 71 72 72 69 69 68 69 69 70 69 69 69 68 68 68
67 67 65 66 66 67 67 65 69 66 68 67 66 67 68 68 69 70 71 72 72 73 72 70 69 69 69 69 68 68 69 70 69 68 68 68 69 68 68 67 67 67 68 68 68 67 67 67 67
68 65 67 67 69 68 70 64 63 66 68 66 66 66 67 69 71 71 72 72 74 73 71 68 67 68 66 65 64 62 62 65 65 65 65 64 65 66 66 66 66 66 66 65 67 66 67 67 66
64 63 59 66 67 66 68 58 60 64 66 64 65 66 66 66 66 67 68 71 73 72 69 68 66 64 64 63 62 59 58 59 60 62 62 62 63 64 64 65 64 65 64 65 65 64 64 64 63
60 55 57 61 66 66 66 57 59 62 64 62 64 64 65 64 64 64 63 66 70 69 66 65 65 63 62 59 56 57 59 59 60 60 62 62 61 62 63 63 62 63 64 62 62 62 60 61 61
55 55 57 58 62 60 59 53 56 58 62 59 59 60 60 60 59 61 62 62 64 64 63 63 63 60 57 55 57 58 58 60 61 62 62 63 63 62 63 62 61 62 62 61 60 59 60 59 58
59 58 57 58 59 56 51 51 52 55 57 57 57 58 58 58 59 61 62 64 65 65 66 60 62 60 60 59 57 58 58 60 61 63 62 62 62 62 61 62 61 61 60 58 57 58 56 58 56
58 56 55 56 57 56 52 51 53 54 53 56 57 57 58 59 60 60 62 63 65 64 65 65 64 64 65 67 67 66 64 63 62 61 60 61 61 61 61 60 60 59 60 58 57 55 55 56 55
55 55 54 55 56 56 55 52 51 54 55 55 56 58 60 61 60 59 60 61 62 64 64 66 66 66 66 66 64 63 62 61 61 61 61 60 60 60 60 59 60 59 59 57 56 55 52 52 54
53 59 57 55 55 51 54 50 51 51 51 53 55 57 59 59 60 61 61 61 62 63 64 66 65 65 64 64 65 64 66 65 61 60 61 62 59 59 59 59 58 57 58 56 55 56 53 52 50
55 58 56 54 52 52 52 52 50 51 49 52 55 57 58 59 60 61 62 63 63 62 62 63 64 64 62 63 64 64 60 59 59 60 58 59 59 58 57 57 57 56 57 55 54 53 52 53 50
57 56 54 51 51 45 48 49 50 49 52 53 56 57 58 59 60 62 62 62 62 61 62 62 62 61 62 62 61 60 59 58 59 59 59 59 58 58 57 57 56 55 54 53 53 52 51 51 50
58 53 43 41 41 41 47 45 51 54 55 58 56 57 59 60 61 61 61 62 62 61 59 61 63 61 61 60 60 60 60 59 59 59 59 58 59 58 58 55 54 54 53 53 52 51 50 50 49
52 53 43 36 36 41 47 43 52 55 58 61 60 61 60 59 60 61 62 62 62 61 61 61 61 59 60 60 59 60 59 61 60 58 57 57 56 56 55 54 53 52 51 51 50 50 48 49 47
52 48 52 41 36 38 44 48 54 53 53 56 58 58 59 60 60 61 61 60 60 60 59 59 60 59 58 57 59 58 58 56 55 55 55 54 53 53 53 53 52 51 51 50 50 49 48 48 47
56 55 46 44 34 34 41 42 47 49 51 54 56 57 59 58 57 57 57 57 58 59 59 58 58 55 55 57 56 56 55 54 54 53 53 52 53 53 52 52 51 51 50 50 50 49 48 47 47
52 49 45 46 41 37 34 44 52 53 55 54 57 58 57 56 55 55 56 57 57 57 57 56 55 55 55 55 55 54 54 54 53 53 53 52 52 52 51 51 50 49 48 47 47 47 46 45 45
55 51 49 41 39 36 37 44 53 53 55 55 56 56 55 54 54 55 55 56 57 57 57 53 53 53 54 55 54 53 53 53 52 52 52 51 50 51 50 49 48 46 44 43 42 40 45 43 42

GFSSGP_sfc_temp_042.txt.gz
Temp
78 89 94 88 74 76 71 72 78 72 67 75 78 75 73 74 69 62 75 81 84 83 83 81 73 74 74 74 74 75 75 75 75 75 74 74 74 74 74 75 75 75 76 75 75 74 74 73 72
90 87 89 87 71 68 72 76 73 72 73 75 75 75 74 67 74 68 75 80 82 81 86 85 72 73 74 74 74 75 75 75 75 74 74 74 74 74 74 74 74 75 75 75 75 74 73 72 71
87 88 83 78 74 68 71 74 73 71 72 65 65 72 69 67 70 71 78 79 82 85 87 82 72 73 74 74 74 74 74 74 74 74 74 74 74 74 73 73 73 74 75 75 74 73 72 71 70
88 87 85 72 70 73 74 75 75 73 74 73 62 60 69 72 68 71 78 80 82 85 87 75 71 72 73 73 73 73 73 72 72 73 74 74 74 73 73 73 73 74 74 74 73 72 71 70 69
90 85 73 70 70 73 78 79 79 75 72 71 73 67 67 71 76 76 76 81 82 84 84 80 69 71 73 74 73 72 72 72 72 72 73 73 73 72 72 72 72 72 72 72 72 71 70 69 69
80 82 70 67 70 73 79 79 80 77 76 72 71 71 67 73 75 75 77 79 79 78 81 80 72 71 72 72 72 71 71 71 71 71 72 72 72 72 71 71 71 71 71 71 70 70 69 69 68
78 76 70 69 68 69 73 80 75 74 76 73 75 68 65 67 72 74 76 74 78 79 80 81 82 76 70 70 70 70 70 70 70 70 70 70 70 70 70 71 71 71 71 70 70 69 68 68 67
83 78 69 71 69 67 75 78 75 71 74 78 77 68 63 67 70 73 77 80 80 80 83 83 82 83 81 79 69 68 69 69 69 69 69 68 69 69 69 70 70 70 70 70 69 68 67 67 66
82 73 68 68 69 66 76 74 77 78 75 75 74 74 76 72 74 75 76 77 77 78 79 80 82 81 82 82 76 70 69 69 69 70 68 69 82 80 78 69 69 69 68 68 67 67 67 67 68
77 72 71 78 76 71 70 74 75 74 71 70 73 76 76 76 75 74 74 73 77 78 80 81 80 79 80 82 80 80 80 81 81 81 79 83 80 82 80 73 67 67 68 67 67 67 69 74 83
77 72 77 75 76 76 69 77 80 78 73 76 76 73 74 75 75 75 78 80 80 80 80 80 77 77 78 79 81 82 83 82 81 79 81 80 81 82 84 84 84 82 72 83 80 81 81 76 78
71 77 75 77 78 75 74 80 77 79 78 81 83 78 77 76 76 79 80 81 81 80 80 79 77 76 76 81 81 81 83 82 82 81 79 80 80 79 79 82 82 80 82 78 79 79 75 75 75
72 74 75 79 77 76 78 77 77 76 78 81 80 78 77 78 80 82 83 83 81 80 80 79 78 77 77 77 79 79 80 82 79 81 78 78 75 76 80 79 81 79 80 79 78 78 77 75 75
75 72 73 74 75 75 74 73 78 75 78 76 76 77 79 79 81 81 80 80 80 81 79 79 78 78 78 77 75 75 74 75 79 76 72 69 70 72 77 78 78 78 77 76 75 73 74 74 74
74 67 69 71 73 73 80 72 69 74 77 74 76 77 79 80 81 79 81 81 82 81 79 76 76 76 75 74 74 73 72 70 67 71 69 70 73 74 74 75 74 73 73 72 72 71 74 74 74
71 72 64 71 75 73 75 65 68 73 75 75 75 76 76 78 79 81 79 81 83 81 77 75 73 71 71 69 65 65 63 66 67 69 68 69 70 71 70 71 69 70 71 70 71 71 70 71 71
70 63 65 66 74 74 73 66 68 72 74 74 75 75 76 75 76 77 78 81 83 81 77 72 72 70 68 67 60 60 61 64 67 68 67 66 66 67 67 68 69 70 71 69 69 69 68 67 68
63 63 66 66 70 74 71 66 68 70 74 73 74 75 74 74 73 73 75 77 80 78 76 71 71 61 59 60 60 59 64 64 66 67 68 68 68 69 70 70 69 70 69 68 66 64 66 66 65
70 68 66 69 68 70 68 67 67 69 72 71 72 72 72 72 72 73 73 74 73 69 70 70 67 63 62 69 66 67 64 68 70 72 70 69 70 69 69 70 69 68 67 65 64 64 63 63 64
69 66 65 65 67 69 67 64 66 67 70 72 72 72 72 71 71 70 72 73 72 70 70 71 73 73 74 75 75 75 74 75 74 72 69 69 68 68 69 67 68 66 66 64 63 61 61 63 63
65 65 63 64 65 67 67 63 63 63 65 66 69 72 72 72 70 69 70 71 71 71 73 76 76 75 76 76 75 74 72 71 70 69 70 69 68 69 67 67 66 65 65 63 62 61 59 58 61
62 66 66 64 64 60 66 58 63 63 63 64 66 68 71 71 71 72 72 72 73 74 76 77 77 76 74 73 74 72 75 74 72 72 71 71 68 67 67 66 65 63 64 62 62 63 59 58 56
63 67 66 65 65 63 62 60 64 63 61 63 65 68 69 70 71 71 73 74 75 73 74 75 75 74 73 73 73 73 71 71 71 70 67 68 69 67 66 65 64 63 63 62 60 59 58 59 56
68 66 65 65 63 53 61 58 63 66 66 65 66 67 68 69 71 73 74 74 73 71 71 72 73 72 72 72 71 70 68 67 69 68 67 69 68 67 66 65 64 63 62 60 60 59 57 56 54
67 63 54 49 49 48 57 55 62 65 65 68 65 67 68 69 70 71 71 72 72 70 70 70 72 71 71 70 69 69 67 67 66 66 67 64 65 65 64 63 62 62 61 60 59 57 56 55 53
63 62 53 41 45 52 55 53 62 65 67 70 70 70 69 69 71 72 72 72 71 70 71 71 71 69 69 69 67 66 67 70 68 66 64 64 63 62 61 60 60 60 60 59 57 56 55 54 53
60 58 61 51 44 47 57 60 65 64 63 66 68 69 68 69 70 71 71 71 71 71 69 70 69 69 67 66 65 63 66 64 64 63 62 63 61 61 60 60 59 59 58 58 56 54 53 53 51
64 65 53 55 40 41 54 53 61 59 61 64 66 67 68 70 70 71 71 69 69 70 69 68 69 66 63 62 62 63 63 64 63 63 60 59 60 60 59 58 58 57 57 57 55 54 54 51 50
59 58 58 59 53 46 45 56 64 62 65 64 67 68 70 70 69 69 69 68 68 68 68 66 64 63 63 61 60 61 64 63 63 62 60 59 59 58 57 57 56 55 55 54 51 51 52 47 47
64 61 61 51 47 49 48 54 65 65 66 67 68 69 71 71 69 67 66 66 66 66 66 65 64 63 61 59 61 62 63 62 61 60 58 58 57 57 56 55 54 54 53 49 47 45 45 46 47

GFSSGP_sfc_temp_045.txt.gz
Temp
81 90 96 92 75 77 73 78 86 76 76 82 84 81 76 76 69 63 82 85 83 85 85 81 73 74 74 74 75 75 75 76 75 75 75 75 75 75 75 75 75 76 76 76 75 75 74 74 73
96 94 93 86 72 69 75 85 79 74 76 80 78 79 76 71 77 76 76 84 84 85 83 82 72 73 74 74 74 75 75 75 75 75 75 75 74 74 74 74 74 75 76 75 75 74 73 72 71
91 94 84 79 75 70 74 79 77 76 78 77 74 79 74 69 74 72 79 83 85 83 84 80 72 73 74 74 74 74 74 74 74 74 74 74 74 74 74 74 74 75 75 75 74 73 72 71 70
92 90 86 74 71 80 79 79 79 76 77 78 74 66 72 71 68 75 78 82 81 83 82 74 71 72 73 74 74 73 73 73 73 73 74 74 74 74 73 73 74 74 74 74 73 72 71 70 69
92 88 75 73 74 81 83 80 79 75 78 76 76 61 61 73 72 78 77 80 79 77 81 81 71 72 73 74 73 73 72 72 72 73 73 73 73 73 72 72 72 72 72 72 72 71 70 69 69
83 85 71 70 75 79 82 82 76 75 80 79 77 71 67 79 76 77 79 75 74 79 79 80 72 72 72 72 72 71 72 72 72 72 72 72 72 72 72 72 72 71 71 71 71 70 70 69 69
79 79 72 75 74 73 69 78 75 65 72 77 80 68 70 75 80 74 71 70 76 78 78 81 80 74 70 70 70 70 70 70 71 70 70 70 70 70 71 71 71 71 71 71 70 69 69 68 68
86 81 73 75 72 72 80 77 81 78 71 85 84 72 65 75 74 65 69 73 75 77 80 83 82 82 78 75 69 69 69 70 70 70 69 69 69 70 70 70 70 71 70 70 69 68 68 68 68
89 74 71 73 72 59 77 75 82 82 78 79 79 81 82 76 76 71 73 74 78 81 81 84 83 82 81 80 75 70 70 69 69 70 69 69 81 80 78 69 70 69 68 68 68 68 68 69 68
80 74 74 69 65 72 78 73 80 73 74 76 78 80 77 76 77 74 75 75 76 79 83 84 81 82 83 84 80 81 80 81 81 81 79 83 81 81 79 74 69 69 69 68 68 69 70 71 83
80 73 79 71 62 77 77 77 80 76 72 80 76 74 77 78 77 77 80 81 81 81 82 80 79 81 82 81 83 84 82 82 81 81 82 80 82 81 81 80 79 81 74 81 78 80 82 78 78
75 81 81 82 82 78 76 79 79 81 80 86 85 82 81 80 80 81 81 83 82 81 81 80 79 79 80 82 84 83 84 83 83 80 80 80 79 77 79 80 81 79 82 79 80 80 77 77 77
77 78 79 82 80 78 80 66 61 79 84 87 84 82 81 81 83 85 86 85 84 81 81 81 80 79 79 81 81 81 81 81 79 78 76 78 75 76 76 77 80 79 80 80 78 77 77 76 76
80 78 77 77 76 78 76 74 78 79 85 83 81 81 83 84 85 85 84 83 83 83 81 81 80 80 81 79 78 77 77 79 76 75 74 72 74 72 77 78 79 79 77 76 75 74 73 73 75
79 71 71 74 77 76 80 74 74 81 83 79 79 81 82 84 85 83 85 84 85 83 82 80 79 80 78 77 77 76 75 75 73 71 71 72 74 74 74 74 73 73 73 71 71 70 72 73 74
71 71 62 73 77 78 76 67 76 80 80 78 80 81 82 83 84 86 85 86 86 84 80 80 79 77 75 72 71 71 68 67 65 69 70 69 70 72 72 71 69 70 71 70 70 70 70 69 70
71 60 64 68 78 78 76 70 76 81 81 79 79 80 81 80 84 85 85 86 86 83 80 76 76 74 67 65 61 59 60 59 62 69 69 68 69 70 69 69 70 71 71 70 69 68 67 66 67
63 64 68 67 74 77 74 72 75 79 80 79 79 79 79 79 80 82 83 85 86 82 80 76 73 69 65 65 65 65 63 66 69 68 69 70 71 71 72 71 70 70 70 68 67 64 66 66 66
71 69 68 73 77 74 72 72 74 77 78 78 78 78 79 79 81 79 81 82 83 81 77 72 68 67 72 73 70 69 68 71 72 74 72 72 72 71 70 71 70 69 68 66 66 65 63 63 65
71 67 67 72 75 72 72 71 75 76 77 79 78 78 78 78 77 78 78 79 78 74 72 71 72 73 75 77 77 76 75 76 76 74 72 72 71 70 72 68 69 68 67 66 64 62 61 61 63
69 67 63 67 71 73 72 69 70 74 79 79 80 81 81 78 77 76 76 75 73 70 70 73 76 78 79 79 79 78 76 74 73 72 72 71 71 71 70 69 68 67 66 64 63 62 60 58 60
64 71 71 68 67 60 73 58 68 71 71 72 74 77 78 78 78 77 77 72 72 74 77 80 80 79 79 78 77 74 74 70 71 75 75 72 70 70 70 69 67 65 65 63 63 64 60 59 56
65 72 70 70 68 65 66 63 63 72 68 69 73 74 77 77 77 76 76 77 78 78 78 79 79 79 77 76 77 75 74 75 75 74 70 69 70 70 69 68 66 65 64 63 61 61 59 58 54
73 70 70 70 67 55 65 63 65 68 72 72 73 74 75 75 76 77 78 78 77 77 77 77 77 77 76 75 75 74 71 71 71 69 69 69 70 70 69 68 66 65 63 62 61 60 59 55 55
72 66 52 50 52 50 64 60 66 73 72 76 72 73 74 75 75 76 76 76 75 74 74 75 76 74 74 73 73 72 70 69 68 68 68 67 67 67 66 65 63 63 62 61 61 59 58 55 54
68 67 55 43 47 53 63 56 64 73 73 75 76 75 74 73 75 75 76 76 75 74 74 74 75 73 73 72 71 71 70 71 70 68 66 65 65 65 65 63 62 61 61 60 59 59 57 56 53
66 61 68 56 52 49 59 67 69 71 70 72 74 73 72 73 74 75 76 76 76 74 73 73 74 72 72 70 69 68 68 67 65 65 65 65 64 64 63 62 60 60 59 58 58 58 56 54 53
68 71 57 58 43 44 58 59 62 65 67 70 72 71 72 74 74 76 76 75 76 75 74 73 74 72 71 69 68 68 65 65 66 64 63 62 62 62 61 59 59 58 58 58 57 56 56 52 52
64 62 63 63 58 47 47 59 70 68 70 69 72 73 73 73 74 76 76 76 75 74 73 71 72 70 68 68 65 62 63 65 64 64 63 62 61 60 59 58 58 57 56 57 55 53 51 49 50
70 66 65 53 52 54 51 55 72 71 72 73 73 74 75 76 76 76 76 74 72 71 71 70 69 68 67 65 59 62 64 65 63 63 62 61 59 59 58 57 56 56 56 56 51 46 49 48 48

GFSSGP_sfc_temp_048.txt.gz
Temp
78 84 87 85 69 70 65 72 83 72 75 80 82 79 71 71 67 57 78 82 81 79 77 77 73 74 74 75 75 75 75 75 75 75 75 74 74 74 75 75 75 75 76 76 75 75 74 73 72
90 92 89 80 65 61 67 76 70 68 68 75 76 76 73 64 74 74 74 82 83 80 80 77 72 74 74 74 74 75 75 75 74 74 74 74 74 74 74 74 74 75 75 75 75 74 73 72 71
84 91 79 72 67 63 68 73 74 76 78 76 72 76 73 66 72 72 78 78 84 81 80 75 72 73 74 74 74 74 74 74 74 74 74 74 74 74 74 74 73 74 75 75 74 73 72 70 70
87 85 81 67 65 74 74 70 78 75 77 78 76 67 72 74 70 75 77 77 81 78 75 71 71 72 73 74 73 73 73 73 73 73 74 74 74 74 73 73 73 73 74 74 73 72 71 69 69
89 82 69 67 69 76 83 81 80 76 75 74 75 64 66 70 73 72 70 74 73 71 73 73 69 72 73 73 73 72 72 72 72 73 73 73 73 73 72 72 72 72 72 72 72 71 70 69 69
78 80 65 64 70 79 70 70 69 69 73 75 72 70 68 72 71 71 69 69 70 70 72 75 72 72 72 72 72 71 71 71 71 72 72 72 72 71 71 71 71 71 71 71 70 70 70 69 69
74 72 67 70 71 76 70 71 61 60 69 64 69 69 71 71 74 73 70 69 69 70 73 74 75 71 70 70 70 70 70 70 70 70 70 70 70 70 70 70 71 71 71 70 70 69 69 69 69
81 76 69 71 71 55 67 68 69 65 65 68 65 67 66 72 74 69 70 68 68 69 72 72 74 73 71 71 69 69 69 69 69 69 69 69 69 69 70 70 70 70 70 70 70 69 69 69 69
87 70 66 69 62 59 68 61 60 81 77 74 81 67 78 71 71 69 66 67 66 67 72 76 76 74 72 71 70 69 69 69 69 69 69 67 71 70 70 69 69 70 69 69 69 69 69 69 69
77 69 70 73 68 59 59 61 60 76 75 75 74 77 75 72 69 65 62 63 65 70 76 76 75 73 73 77 71 70 71 72 72 72 69 71 72 73 75 70 69 69 69 69 69 69 69 69 70
78 69 78 72 67 63 60 62 70 73 67 73 70 70 72 73 70 70 67 66 70 76 76 76 73 74 74 74 75 75 74 74 73 73 73 74 74 71 69 68 67 67 68 69 68 70 72 70 68
73 79 80 77 70 64 59 63 59 68 69 69 74 76 75 73 73 73 72 75 76 75 75 75 74 74 73 75 74 74 76 74 73 73 74 70 68 69 70 69 69 70 69 70 69 67 68 68 69
75 77 79 82 76 78 71 66 63 64 81 72 76 79 78 77 72 69 79 79 77 75 74 74 74 73 73 74 73 71 70 69 69 69 69 67 68 68 68 69 70 69 69 68 66 66 66 65 66
79 78 76 77 78 78 65 63 61 74 81 79 79 79 79 78 77 80 80 78 78 77 74 74 74 74 74 72 72 70 69 69 68 68 68 69 68 67 67 65 67 67 66 64 63 63 63 63 64
78 69 72 73 75 73 69 55 61 78 80 77 79 80 81 81 82 80 80 79 79 77 76 74 74 74 72 71 69 67 68 68 67 66 66 66 65 63 63 62 63 63 64 63 63 62 61 60 64
72 70 59 72 73 75 71 54 72 80 78 76 77 78 79 80 81 81 81 81 80 78 76 75 76 71 69 68 68 67 65 63 64 65 65 65 66 65 64 62 61 62 62 61 60 59 58 57 58
65 55 60 66 76 74 69 64 75 80 78 75 76 77 78 78 80 81 82 81 80 77 76 73 72 68 65 63 62 60 61 61 61 63 63 63 64 65 62 61 61 61 61 59 59 57 56 55 55
58 60 64 64 72 74 70 70 74 78 78 75 76 77 78 77 79 81 82 80 80 77 74 72 67 65 64 63 63 64 64 63 64 63 63 64 65 66 64 62 61 61 60 58 56 55 55 54 53
68 65 63 70 75 72 70 69 72 76 77 75 76 76 76 76 79 79 78 78 78 74 72 68 65 66 65 67 66 64 63 63 64 65 66 65 66 66 63 62 61 60 58 57 57 54 53 51 53
69 65 64 72 75 72 70 69 73 75 75 77 76 75 75 75 76 76 77 76 76 73 69 69 69 67 69 70 70 68 66 66 67 66 65 66 65 65 64 61 60 59 57 56 55 53 51 51 51
69 61 60 62 69 73 70 66 69 74 77 78 79 79 79 77 74 75 75 74 73 70 67 68 70 70 71 72 71 70 68 66 65 64 63 64 65 65 64 61 59 57 56 54 53 53 51 48 49
58 66 68 63 56 56 66 50 61 69 71 75 76 76 76 77 77 76 74 69 69 68 70 71 71 72 74 72 70 67 66 64 65 64 66 64 65 64 64 62 60 57 56 54 53 56 51 49 47
60 65 65 69 65 61 56 52 58 65 66 71 73 76 77 78 77 75 70 70 70 70 69 71 73 74 72 71 70 67 66 63 66 64 62 63 62 63 63 61 59 57 55 54 53 51 50 49 47
71 66 69 68 62 49 52 54 55 59 62 69 73 74 76 76 76 75 73 72 70 71 71 71 73 73 71 71 70 67 67 65 63 62 60 61 61 61 61 62 57 56 54 53 51 51 50 48 47
70 63 49 37 40 45 65 59 62 61 72 70 72 72 74 74 73 73 73 73 72 71 70 71 72 71 70 69 68 67 65 64 63 61 60 59 59 57 57 57 55 54 53 52 51 50 48 48 46
59 61 43 37 40 48 60 55 61 72 75 77 76 75 74 72 72 73 72 72 71 70 70 70 72 70 70 68 67 65 65 62 62 61 60 58 57 56 57 55 54 54 53 51 50 48 47 48 45
60 59 67 56 50 45 55 63 68 72 71 73 73 73 71 71 72 73 73 72 71 70 69 69 70 70 68 66 65 63 63 61 59 60 60 57 57 59 54 53 52 52 51 51 49 47 47 47 44
68 71 56 57 41 40 54 57 55 63 66 69 71 70 70 72 72 73 73 72 72 71 70 68 70 68 68 66 63 63 62 61 60 60 58 57 55 55 53 52 52 51 51 50 49 47 47 44 43
63 60 63 63 57 43 41 52 68 67 69 68 71 72 71 71 71 72 73 73 73 71 70 69 69 66 65 64 62 58 59 60 60 59 57 56 55 54 53 52 51 50 50 49 48 46 45 43 43
69 64 65 49 49 52 47 50 72 71 71 72 72 73 74 73 73 73 74 72 71 69 67 67 67 66 64 62 58 58 57 58 59 57 57 55 53 53 52 52 51 51 50 48 46 43 43 43 41

GFSSGP_sfc_temp_054.txt.gz
Temp
62 65 65 65 52 47 43 50 60 60 60 66 70 67 61 62 60 53 66 70 71 73 73 73 73 73 74 74 74 74 75 75 74 74 74 74 74 74 74 74 74 75 75 75 75 75 75 74 73
66 71 66 57 46 40 44 57 56 60 65 67 69 67 64 60 67 65 66 71 72 74 74 73 73 73 74 74 74 74 75 74 74 74 74 74 74 74 74 74 74 74 75 75 75 75 74 73 72
69 73 59 51 42 42 45 57 59 63 67 67 64 65 63 61 68 69 70 70 72 73 74 73 72 73 73 73 74 74 73 73 73 73 74 74 74 74 74 73 73 74 75 75 75 74 73 71 71
68 62 58 48 45 53 56 56 64 63 65 67 63 57 63 66 66 69 72 72 71 72 73 71 71 72 73 73 73 73 72 72 72 73 73 74 74 73 73 72 73 73 74 74 74 73 72 70 70
63 56 47 43 50 56 59 61 62 62 62 63 62 56 57 65 68 67 70 71 69 69 70 71 69 71 72 73 73 72 72 72 72 72 72 73 73 72 72 71 71 72 72 72 72 71 71 70 70
57 54 44 43 51 58 59 60 62 61 61 63 61 58 55 65 65 65 67 68 67 67 69 72 71 72 71 72 71 71 71 71 71 71 71 71 71 71 71 71 71 71 71 71 71 70 70 70 69
53 50 45 51 53 55 58 64 60 60 60 62 63 55 57 63 65 66 66 67 67 67 67 68 71 71 69 69 69 69 69 69 70 70 70 70 69 70 70 70 70 70 70 70 70 69 69 69 69
59 54 46 50 51 51 61 60 61 61 62 67 65 54 53 63 65 65 64 65 65 66 66 67 68 69 68 68 68 68 68 68 69 69 68 68 68 69 69 69 70 70 70 70 70 69 69 69 68
63 49 45 51 52 55 60 57 62 64 63 64 63 62 63 65 65 63 63 64 64 66 66 67 67 67 67 67 68 68 68 68 68 68 68 66 65 66 67 68 69 70 70 70 69 69 69 68 67
58 47 51 58 56 55 57 55 59 58 60 58 59 63 64 65 63 62 62 61 62 63 65 66 66 66 67 71 66 65 68 66 65 65 65 65 64 64 67 67 69 69 69 68 69 68 67 66 63
58 54 60 58 58 59 57 56 60 59 57 61 56 59 61 62 62 62 63 63 63 64 65 65 65 66 65 66 63 63 63 64 64 65 64 64 65 64 63 62 62 63 66 64 65 63 62 62 61
56 64 66 59 60 59 55 58 59 58 60 66 64 62 61 60 60 63 62 62 62 63 66 67 67 66 65 65 64 64 64 63 63 64 65 63 62 62 62 61 63 62 61 60 59 58 60 59 60
59 63 66 62 61 60 61 57 59 60 66 65 65 63 62 62 62 62 63 64 64 63 67 67 68 65 65 64 63 63 63 63 63 63 64 63 62 60 60 58 59 58 59 58 57 57 57 57 58
64 62 61 59 60 60 59 58 58 63 66 66 63 61 62 62 63 62 62 63 65 67 67 67 67 65 65 63 63 62 63 63 62 62 62 63 61 58 57 56 57 58 58 56 55 54 53 53 54
63 58 59 57 56 59 60 54 55 63 67 65 64 62 62 61 64 62 63 64 66 69 68 67 64 65 65 64 62 61 62 62 60 60 61 61 60 58 56 55 55 56 56 54 54 53 52 52 54
58 55 48 57 61 63 60 52 61 65 63 62 62 61 62 61 64 64 66 69 69 69 67 66 68 64 62 60 60 60 60 59 58 58 58 59 59 58 56 56 54 54 53 52 51 51 50 49 48
57 50 52 57 66 62 60 53 61 64 65 61 62 61 61 61 63 65 69 69 69 68 66 63 63 61 59 58 57 57 57 56 56 56 57 58 58 58 55 54 53 53 52 51 53 49 49 47 48
50 52 56 53 58 59 55 55 59 63 62 60 61 62 62 62 64 69 70 69 68 67 65 64 62 59 57 57 56 56 55 54 55 55 56 57 57 57 55 53 53 53 51 50 49 49 49 47 46
60 56 51 58 62 56 57 57 59 60 61 59 60 62 62 62 67 70 69 68 67 63 63 62 60 58 59 57 57 55 53 54 54 55 57 57 57 57 54 53 52 51 51 49 50 48 47 46 45
57 53 53 58 62 59 53 55 57 61 63 64 64 63 63 63 64 67 67 67 66 62 63 61 61 59 60 59 57 56 55 54 54 55 56 57 56 55 55 53 52 51 49 49 48 47 45 44 44
54 51 52 53 57 57 54 50 56 61 63 64 65 67 67 66 63 64 65 64 63 61 60 62 61 60 60 60 59 56 55 54 53 53 53 55 57 57 55 53 51 51 49 48 46 45 45 42 42
50 59 58 55 50 44 52 39 47 58 60 62 63 60 62 65 66 64 65 61 61 60 60 62 61 61 60 60 59 56 55 55 53 53 53 55 57 56 55 54 52 50 49 47 47 47 44 42 41
53 57 56 56 49 47 50 45 49 55 56 58 61 61 63 64 67 63 63 63 62 60 60 61 62 62 61 62 60 58 54 54 53 53 54 54 54 55 55 52 50 49 47 46 46 44 44 42 41
62 56 54 50 47 39 51 45 45 51 58 64 62 64 63 62 65 64 62 63 60 61 61 61 62 61 60 61 59 58 56 54 53 53 53 53 53 51 53 51 49 48 47 46 45 44 43 41 40
56 48 36 33 32 34 51 45 50 56 61 62 62 59 60 60 60 59 59 60 60 60 61 61 60 60 60 59 59 57 56 55 54 54 52 51 51 51 51 50 50 49 48 47 45 43 42 41 39
53 49 35 32 29 34 51 42 49 60 63 64 65 60 59 59 62 61 60 61 60 60 59 62 61 59 58 58 56 55 55 53 53 55 54 53 52 50 51 49 50 49 49 47 43 42 40 40 38
52 46 53 42 35 30 42 48 56 60 60 60 57 58 56 56 58 59 59 59 59 58 58 59 60 59 58 56 55 54 55 54 55 53 54 52 51 52 50 50 49 47 45 44 43 41 40 39 38
56 58 44 41 33 31 39 42 44 51 54 56 54 56 56 57 57 58 59 58 59 60 58 57 60 61 58 57 58 58 56 54 54 54 51 50 49 51 50 49 47 46 45 44 43 40 40 39 38
51 49 49 48 40 33 29 38 52 54 57 56 56 58 57 58 58 59 60 60 61 61 59 58 59 58 57 58 55 54 55 55 54 52 51 51 50 50 49 49 47 46 45 45 42 40 41 40 38
53 51 51 35 39 36 31 38 56 57 58 58 58 59 59 61 61 60 60 60 60 61 61 59 61 60 57 55 54 54 55 54 53 51 51 50 49 49 48 47 46 46 45 44 42 40 40 38 37

GFSSGP_sfc_temp_057.txt.gz
Temp
61 62 63 63 51 45 40 48 55 58 57 64 68 65 60 59 59 53 64 67 71 72 74 73 73 73 74 74 74 74 75 75 74 74 74 74 74 74 74 74 75 75 76 76 76 76 75 74 73
64 67 63 55 45 38 42 52 56 58 62 64 66 64 62 60 65 63 63 69 75 73 73 73 72 73 74 74 74 74 75 74 74 74 74 74 74 74 74 74 74 75 76 76 76 76 75 73 73
67 68 58 50 40 40 44 54 55 62 65 62 61 62 61 59 67 65 68 72 74 73 74 73 71 72 73 73 74 74 73 73 73 73 74 74 74 74 74 73 73 74 75 76 76 75 73 71 71
65 61 56 48 44 50 53 54 56 60 63 63 60 55 63 66 65 68 69 73 72 72 73 70 70 71 73 73 73 73 73 72 72 73 73 74 74 74 73 72 73 74 75 75 75 74 72 70 69
60 54 46 42 46 53 57 58 61 59 59 60 59 53 58 65 68 69 69 71 69 70 71 69 69 71 73 73 73 72 72 72 72 72 73 73 73 73 72 71 72 72 73 73 73 72 71 70 70
55 53 44 42 47 55 57 60 60 60 61 60 59 55 57 65 65 67 68 67 67 66 67 71 70 71 72 72 71 71 71 71 71 71 71 72 72 71 71 71 71 71 71 71 71 70 70 70 69
52 49 45 44 49 52 56 60 58 59 58 61 64 53 59 62 64 65 66 66 66 66 66 67 68 70 71 68 69 69 69 69 70 70 70 70 69 70 70 70 70 70 70 70 70 69 69 69 68
56 53 43 46 48 49 57 57 57 58 58 66 65 53 54 62 64 66 66 65 66 66 66 65 66 67 66 67 68 68 68 68 68 69 68 68 68 69 69 69 70 70 70 70 69 69 68 68 67
57 48 44 47 48 53 57 55 60 61 61 60 60 60 61 63 65 63 62 62 62 63 64 64 66 66 65 66 68 68 68 68 68 68 67 65 63 64 66 68 69 69 69 69 69 68 66 66 66
54 46 49 56 55 53 56 54 58 57 56 56 59 62 62 63 63 61 60 59 60 61 63 64 65 65 66 70 65 64 67 65 64 64 64 62 62 64 66 67 68 68 68 68 67 66 65 64 61
53 51 56 58 58 57 56 53 57 55 52 56 57 59 61 61 60 60 62 62 62 63 64 64 65 65 65 65 63 63 63 62 63 64 63 63 64 63 62 61 61 61 64 62 62 61 60 60 59
53 60 61 57 58 57 55 57 57 55 57 64 62 63 62 60 60 61 62 62 62 61 63 65 65 65 63 63 62 62 63 62 62 63 63 61 60 60 60 59 60 59 58 58 57 56 57 57 57
55 59 60 59 58 56 59 55 56 56 60 62 62 62 61 61 62 64 64 64 64 63 64 65 64 62 63 61 60 60 61 61 62 63 63 62 60 59 58 57 57 56 57 56 55 58 55 54 55
58 58 57 57 58 56 56 55 55 60 61 60 60 59 61 62 64 60 61 62 64 64 64 65 65 62 62 61 62 61 62 62 62 62 62 61 59 57 56 55 56 55 55 54 55 53 52 51 52
60 53 55 55 55 54 55 52 52 62 62 59 58 60 61 63 64 61 62 63 64 65 66 64 63 64 63 62 62 60 61 61 59 59 60 60 58 56 55 53 53 54 53 53 52 51 50 50 52
56 52 45 56 56 59 57 48 58 62 60 56 57 59 61 62 63 62 63 64 65 65 65 65 67 63 61 60 60 60 59 59 58 58 58 58 58 57 55 55 53 53 52 51 49 49 48 47 47
50 45 46 54 60 59 56 53 60 62 62 57 57 59 60 60 60 61 63 65 66 65 63 63 62 60 59 58 57 57 57 57 56 56 56 57 57 56 54 53 51 51 50 49 51 48 48 46 46
45 47 51 49 57 58 55 54 57 59 61 59 57 57 58 58 60 64 64 65 65 63 62 61 60 58 57 56 56 55 54 54 55 55 55 56 56 56 53 52 51 51 49 49 48 47 46 46 45
54 52 50 54 60 57 55 52 55 57 58 55 55 57 57 58 62 64 64 64 62 60 59 59 58 56 57 56 54 53 52 52 53 54 56 56 56 55 52 51 50 50 49 48 49 46 46 44 42
53 49 50 55 58 55 50 52 55 56 57 58 57 57 57 59 60 63 64 62 61 60 60 58 59 57 58 58 55 55 53 53 53 54 55 55 55 54 53 51 50 50 48 48 47 46 43 42 42
51 50 49 50 54 53 51 48 52 57 58 60 61 62 62 60 61 63 63 61 60 59 59 60 60 59 59 58 56 53 53 53 52 52 52 53 54 54 53 51 50 49 48 46 45 44 44 42 41
47 56 54 51 49 42 51 39 47 53 57 59 61 59 61 62 64 65 63 61 61 61 62 62 60 59 59 59 56 54 53 51 51 52 52 53 54 54 53 52 49 48 47 46 45 46 44 42 41
52 55 53 52 48 44 46 42 47 53 53 56 60 60 61 63 64 64 64 63 62 61 60 60 59 59 59 59 58 55 52 52 52 51 52 51 52 53 52 50 48 47 46 45 44 43 42 42 42
58 53 51 47 45 37 45 43 43 48 56 59 62 62 62 62 62 64 65 63 61 59 59 58 59 59 60 59 57 55 53 53 52 50 50 50 49 49 49 50 48 49 46 45 44 43 43 40 38
54 46 35 33 31 34 47 43 47 53 57 59 60 61 59 60 59 58 59 60 59 58 59 59 59 60 59 59 57 56 54 54 53 52 52 49 47 48 49 50 48 47 47 46 47 44 42 40 38
48 47 35 32 29 33 47 39 48 57 59 59 60 59 57 58 59 57 59 59 59 60 60 59 60 60 58 57 56 55 54 53 51 51 51 50 51 49 49 47 47 49 49 48 45 42 40 39 37
49 44 49 38 35 30 38 46 54 57 56 56 55 56 54 56 58 58 59 59 59 60 59 59 59 58 57 57 54 53 52 52 51 53 52 50 48 48 46 49 48 48 48 46 44 40 39 38 37
53 55 42 38 32 30 36 38 42 51 55 55 50 53 53 53 55 56 58 58 58 59 59 58 58 58 56 55 54 54 53 54 54 51 48 48 48 47 47 47 46 47 46 44 42 40 39 39 37
48 46 46 45 37 32 29 37 49 52 55 56 54 55 53 53 55 56 58 58 59 58 56 57 56 56 54 54 52 51 51 52 51 50 49 47 47 48 47 45 45 46 44 42 41 40 39 39 37
52 50 47 34 37 35 30 36 53 54 56 55 57 57 54 55 56 58 58 58 56 57 57 57 57 56 54 52 52 52 52 51 49 47 47 48 47 46 47 46 45 44 44 42 40 39 39 38 36

GFSSGP_sfc_temp_063.txt.gz
Temp
70 72 75 74 63 60 55 57 62 63 64 65 69 67 67 68 64 61 68 72 76 75 79 78 73 74 74 74 74 74 75 75 74 74 74 74 74 75 75 75 75 76 76 76 76 76 76 75 73
72 74 73 67 59 54 58 59 60 64 67 66 65 64 65 60 68 66 67 74 74 76 78 79 72 73 74 74 74 74 75 74 74 74 74 74 74 75 75 75 75 75 76 76 76 76 75 73 72
75 73 70 61 55 55 56 61 63 66 66 66 64 64 62 61 66 68 71 74 73 75 77 78 72 73 73 73 73 74 73 73 73 73 74 74 74 75 75 74 74 75 76 76 76 75 73 72 71
73 73 66 60 55 59 60 64 62 62 66 67 64 60 65 68 67 70 72 74 73 73 75 73 71 72 73 73 73 73 73 73 73 73 74 74 74 74 74 74 74 75 75 75 74 73 72 70 69
70 67 59 55 55 60 64 65 62 62 63 63 64 58 62 67 70 71 73 75 72 71 73 75 70 72 73 73 73 72 72 72 72 73 73 73 74 73 73 73 73 73 73 73 73 72 71 70 69
67 64 57 54 56 62 64 64 63 62 63 64 62 60 60 67 67 69 70 71 75 71 72 73 71 72 71 71 71 71 71 71 71 72 72 72 72 72 72 71 71 71 71 71 71 70 70 69 69
64 61 56 55 57 60 62 64 62 61 62 61 66 58 61 63 65 66 67 68 68 68 67 68 68 68 69 69 69 69 70 70 70 70 70 69 69 70 71 71 71 71 71 70 70 69 68 68 68
65 63 55 57 57 59 63 63 63 64 62 66 64 59 57 62 65 66 66 66 66 66 66 66 65 65 65 69 68 68 68 68 68 68 68 68 68 69 69 69 70 70 70 69 69 68 67 67 66
66 61 55 57 56 62 62 62 64 66 64 63 64 63 66 64 66 64 64 63 63 64 65 65 64 64 65 69 68 68 68 68 68 68 67 66 71 72 74 69 69 69 68 68 67 66 65 65 64
65 59 59 64 64 62 60 63 63 63 60 60 60 63 64 64 64 62 61 59 59 60 61 63 63 64 64 67 66 68 71 72 71 71 69 70 70 71 72 70 67 67 67 67 66 65 65 68 71
61 60 63 66 66 64 60 62 64 62 60 63 61 60 61 63 63 61 59 60 61 60 60 60 62 64 64 65 67 69 70 70 70 69 68 69 69 69 69 70 70 70 67 69 66 68 69 67 69
59 63 64 66 62 62 61 62 62 62 64 66 67 64 63 61 60 60 59 58 58 59 61 61 62 64 66 68 68 68 69 68 68 68 68 69 68 67 68 68 69 67 67 66 66 66 65 65 65
60 62 62 62 62 62 62 61 62 61 63 66 66 64 62 61 61 60 61 60 60 62 61 62 65 65 67 67 68 67 67 68 67 67 69 68 68 67 67 64 65 65 67 66 66 66 65 65 64
62 60 60 62 61 62 61 61 62 60 63 62 63 62 62 62 63 60 60 61 62 65 65 66 68 69 68 68 68 68 67 69 68 69 70 69 69 65 62 63 64 64 67 67 66 65 63 65 64
63 60 62 61 62 62 64 60 59 62 62 60 61 62 63 64 65 64 64 64 67 68 69 67 68 69 68 68 68 68 69 70 70 69 67 67 65 63 62 61 63 65 65 63 58 63 64 64 64
61 59 56 62 62 61 63 56 60 61 60 58 60 62 62 62 66 65 67 68 69 69 68 70 70 67 67 67 68 69 68 70 69 67 66 66 64 63 63 64 63 64 64 63 63 64 63 63 64
57 54 53 58 63 61 60 59 59 61 61 60 59 61 61 63 64 65 68 68 69 69 70 69 69 68 67 67 66 66 67 67 66 65 65 64 63 63 64 64 62 63 64 64 64 62 62 62 63
52 52 55 57 61 60 58 59 57 59 61 61 60 61 61 61 63 67 67 68 69 69 70 69 69 67 66 65 65 66 66 65 65 65 65 64 65 64 64 63 62 64 63 62 62 61 60 61 61
57 56 55 60 62 59 57 57 59 59 60 59 59 59 60 62 67 67 68 68 69 68 68 68 66 66 65 63 61 61 61 63 63 64 64 64 65 64 60 64 62 63 63 61 60 59 59 59 60
57 55 56 59 61 60 59 58 60 58 61 63 62 61 63 64 65 65 66 67 67 67 67 67 67 65 66 68 66 66 65 65 64 64 63 64 64 62 60 62 61 62 60 59 59 59 58 59 58
56 54 53 55 56 57 55 56 57 60 62 63 64 65 65 64 64 64 64 65 66 66 66 67 67 66 67 68 66 63 63 62 60 60 62 62 61 60 62 61 61 60 61 60 59 59 57 56 56
51 59 57 55 53 50 55 47 54 58 58 60 63 63 64 64 65 67 66 65 66 66 67 67 67 66 66 66 66 64 65 63 62 62 61 59 59 61 62 61 60 59 60 59 58 58 58 56 54
56 58 56 55 53 52 50 50 56 56 56 60 62 64 65 66 67 67 67 68 67 66 65 66 66 66 65 64 65 64 63 62 60 61 58 59 59 62 61 60 59 58 59 57 57 55 51 50 49
59 57 54 52 51 45 49 51 54 57 58 61 65 65 66 67 67 69 70 69 68 65 65 65 65 65 64 64 63 63 62 59 57 59 59 60 61 60 59 59 59 58 56 56 51 54 49 49 49
58 52 44 41 42 42 50 47 54 60 62 63 63 64 65 67 67 67 67 67 66 64 64 65 65 64 63 61 62 62 62 59 59 60 58 58 59 58 56 57 56 55 55 53 50 53 52 46 48
54 53 44 37 38 43 48 46 57 62 65 64 63 64 65 64 66 67 68 68 65 64 64 63 64 65 63 60 60 60 60 60 60 57 59 59 58 56 56 56 55 54 53 49 48 51 48 50 51
53 50 54 42 39 39 46 52 61 61 62 63 63 62 62 62 64 66 67 67 66 65 64 63 65 65 64 62 60 60 61 60 57 57 61 60 58 55 54 54 53 51 50 48 47 47 46 51 51
57 57 47 45 37 35 43 44 51 59 60 60 63 62 62 61 61 63 66 65 66 66 68 64 66 66 65 64 62 62 61 60 58 57 58 57 55 55 53 51 47 47 48 47 49 47 51 50 50
52 51 49 50 45 40 37 45 56 60 62 61 63 62 63 63 62 63 64 66 66 66 66 65 66 66 65 64 62 60 62 59 57 55 55 54 54 51 48 48 48 46 46 47 46 50 51 49 49
56 53 52 44 42 41 40 44 61 61 60 60 62 63 65 64 66 64 64 64 63 64 65 65 64 64 64 63 60 59 57 54 53 51 52 51 50 48 48 47 48 48 47 45 48 49 50 48 48

GFSSGP_sfc_temp_066.txt.gz
Temp
76 88 92 86 71 71 67 68 75 72 72 78 77 75 75 73 73 67 80 80 81 82 84 82 73 73 74 74 74 74 75 75 75 74 74 74 75 75 75 75 76 76 77 77 77 76 76 75 74
88 86 87 83 67 63 67 72 70 74 74 74 73 71 71 71 73 72 71 82 82 83 86 85 72 73 74 74 74 74 75 74 74 74 74 75 75 75 75 75 75 76 77 77 77 76 75 74 72
86 86 80 75 69 63 66 71 73 76 74 74 72 73 70 68 71 73 82 82 79 82 85 84 72 73 73 73 74 74 74 73 73 74 74 75 75 75 75 74 75 75 77 77 77 75 73 72 71
86 85 81 68 64 70 70 74 75 73 75 76 74 70 70 73 73 79 82 81 76 83 84 74 71 72 73 73 73 73 73 73 73 73 74 74 75 75 74 74 74 75 76 76 75 73 72 70 70
88 83 70 66 66 70 75 76 73 70 72 73 74 68 68 69 76 77 78 76 73 76 78 78 70 72 73 73 73 73 72 72 72 73 73 74 74 74 73 73 73 73 74 74 73 72 70 70 69
79 80 66 65 66 71 74 74 73 69 71 72 73 70 68 72 72 73 76 75 70 69 73 78 72 72 72 72 72 71 71 71 72 72 72 72 72 72 72 71 71 72 72 71 71 70 70 69 69
75 73 66 66 66 68 71 72 68 70 70 71 75 68 71 65 68 72 72 77 73 71 73 70 72 72 69 69 69 69 70 70 71 70 70 70 70 70 70 71 71 71 71 70 70 69 69 68 68
81 75 66 68 66 66 73 73 72 71 68 73 75 71 67 64 67 70 68 67 69 69 67 65 64 65 64 66 68 68 68 68 69 69 68 68 68 69 69 69 70 70 70 70 69 68 67 67 66
80 70 66 66 66 69 73 71 72 74 73 72 73 73 75 68 66 65 64 64 64 65 62 63 63 62 64 68 68 68 68 68 68 69 68 70 77 76 75 70 69 69 68 68 67 66 65 65 64
75 70 68 74 75 72 72 74 72 71 69 71 69 70 70 66 65 61 62 60 62 61 61 63 63 64 64 66 66 70 71 74 75 75 77 80 78 80 78 70 67 67 67 67 66 66 67 71 79
74 69 74 75 77 77 73 72 75 73 70 74 70 66 66 64 65 62 60 60 60 61 62 62 63 66 64 63 64 66 70 72 75 77 79 77 77 75 77 74 75 74 71 76 75 75 78 75 76
69 74 75 75 73 73 72 72 71 72 73 75 75 72 69 63 62 64 61 60 59 59 60 62 63 62 63 64 65 68 71 73 73 78 77 75 76 74 76 77 77 75 77 75 75 74 72 71 72
69 72 71 71 71 72 71 70 70 71 73 76 74 70 64 63 62 62 61 60 60 59 59 59 62 62 63 64 68 73 73 75 76 76 76 77 75 75 77 76 77 77 76 75 73 73 73 72 72
72 70 71 72 72 73 70 69 72 71 72 72 70 68 65 64 62 60 59 58 60 60 59 59 61 63 65 69 73 74 76 77 77 76 77 75 77 75 76 74 74 74 75 75 74 74 74 73 72
72 69 70 72 73 72 74 69 70 74 71 70 70 65 70 70 62 60 60 62 65 68 69 67 68 69 73 74 76 77 78 78 78 78 76 76 75 72 73 71 70 74 75 72 71 72 73 73 73
70 70 64 71 71 71 69 63 72 74 71 67 70 71 69 72 70 72 70 71 73 74 72 73 75 73 73 76 76 78 77 76 76 75 74 74 72 71 67 70 72 73 72 72 71 72 71 72 73
68 62 62 65 73 71 69 65 72 73 71 68 70 71 71 70 71 73 74 75 75 73 74 75 75 74 72 72 74 73 74 75 78 75 75 73 72 70 70 72 71 71 71 71 71 71 71 70 72
60 61 63 63 69 69 68 68 72 71 71 71 70 70 70 69 67 72 75 77 76 75 77 76 76 75 74 74 74 76 77 78 77 74 71 70 70 70 72 73 71 72 71 70 71 69 70 71 71
67 64 62 67 71 68 68 68 71 70 70 69 70 69 68 69 76 75 74 77 78 77 77 76 75 75 74 74 74 74 73 75 75 71 73 72 72 71 71 73 70 72 71 70 68 68 66 67 69
66 62 62 67 70 68 68 67 69 68 68 73 73 71 70 73 73 74 75 76 75 75 75 76 77 77 76 78 76 76 75 77 76 71 72 71 70 71 71 71 70 70 70 67 66 66 66 67 67
65 62 62 62 68 69 65 65 67 71 71 74 76 76 76 76 74 74 74 75 75 75 75 77 78 78 76 77 77 77 77 76 73 68 68 70 68 72 70 68 71 69 69 67 66 67 65 64 63
60 68 66 63 61 58 64 57 65 69 69 70 73 74 76 76 77 77 75 75 75 75 77 78 78 78 76 76 76 73 74 73 74 70 71 67 69 68 68 69 69 68 70 68 67 67 66 64 59
63 66 64 64 62 61 61 59 66 68 68 72 73 75 76 78 77 78 78 77 78 77 76 76 78 77 77 76 76 74 73 76 75 71 70 68 66 66 67 69 68 68 68 67 66 64 62 57 61
68 64 63 63 61 52 58 58 65 69 69 72 76 77 77 78 79 80 81 81 80 78 76 76 76 77 76 74 73 73 73 72 68 68 66 61 63 64 66 69 68 68 67 65 64 62 59 55 57
66 61 52 47 49 49 59 57 62 70 72 73 74 75 78 80 79 80 81 80 80 79 76 76 76 76 76 73 73 72 72 71 68 67 66 64 61 63 65 66 66 66 66 64 61 59 52 53 53
64 63 53 42 44 51 57 53 65 73 76 76 75 76 76 77 80 80 81 82 80 79 76 75 75 74 74 70 71 71 68 67 66 67 66 61 59 64 67 66 66 65 64 61 52 58 58 50 50
60 57 64 52 49 49 57 62 71 73 72 72 75 75 75 75 78 80 81 81 80 79 76 75 76 76 76 70 71 67 67 63 64 66 64 58 60 65 65 64 64 62 58 50 51 50 50 49 53
65 68 54 57 42 41 53 54 60 66 68 71 73 75 75 74 74 77 79 80 79 79 79 76 77 77 78 75 69 69 67 68 66 64 62 58 61 66 63 62 59 48 48 49 51 48 48 50 54
60 59 60 61 56 46 45 54 69 69 71 71 74 74 76 77 76 76 77 78 78 79 78 76 75 77 77 76 72 67 66 65 64 62 60 58 59 62 61 57 49 48 46 47 47 46 48 51 56
68 64 63 52 50 53 50 53 73 73 73 73 74 75 77 76 76 77 77 76 76 76 76 76 75 76 76 75 72 64 63 61 57 55 54 56 53 52 48 48 46 46 46 45 44 46 54 55 55

GFSSGP_sfc_temp_069.txt.gz
Temp
76 87 95 90 73 74 68 73 81 77 78 74 85 82 79 77 63 52 83 88 89 83 86 81 73 74 74 74 74 75 75 75 75 75 74 75 75 75 75 76 76 76 77 77 76 76 76 75 74
95 93 91 84 69 65 68 76 73 78 82 67 80 79 79 77 69 67 76 83 87 85 86 83 72 74 74 74 74 74 75 74 74 74 75 75 75 75 75 75 75 76 77 77 76 76 75 74 72
91 93 82 77 72 66 66 75 77 81 82 80 77 80 79 76 75 78 81 83 83 82 85 81 72 73 74 74 74 74 74 74 74 74 75 75 75 75 75 74 75 76 77 77 76 75 73 72 71
90 89 85 70 68 73 74 78 80 80 82 84 81 72 77 78 75 80 84 82 77 77 83 74 71 72 73 74 74 73 73 73 73 73 74 75 75 75 74 74 75 76 76 76 75 73 71 70 70
91 85 72 70 71 75 78 79 79 76 79 78 80 74 71 69 78 81 82 81 79 75 80 78 70 72 73 73 73 73 72 72 73 73 74 74 74 74 73 73 74 74 74 74 73 72 70 70 69
81 84 69 65 68 75 76 81 80 76 77 77 78 77 75 77 74 76 83 80 75 68 72 74 72 72 72 72 72 71 72 72 72 72 73 73 72 72 72 72 72 72 72 71 71 70 70 69 69
77 76 70 70 70 72 74 80 76 77 76 77 83 75 78 74 72 77 80 78 72 71 69 68 70 71 69 69 69 69 70 70 71 71 70 70 70 70 70 70 71 71 71 70 70 69 68 68 68
83 79 71 72 68 68 78 80 78 77 77 79 82 76 74 73 70 72 75 73 69 70 67 66 64 66 65 68 68 68 68 68 69 69 68 68 69 69 70 70 70 70 70 69 69 68 67 67 66
87 73 67 69 70 70 79 76 81 79 77 78 79 79 79 71 66 65 66 65 64 63 63 62 61 62 65 65 69 68 68 68 68 68 68 70 77 77 77 69 69 69 68 68 68 67 66 65 65
79 72 70 78 79 76 78 78 79 77 77 77 76 77 74 71 66 63 62 62 60 61 61 61 61 60 62 64 66 69 72 73 73 74 74 76 77 80 77 70 67 67 67 67 67 67 66 70 79
80 72 78 79 80 81 78 78 81 78 74 76 75 73 72 70 65 62 61 61 60 61 61 61 60 60 61 63 65 65 67 72 72 74 77 76 77 76 76 72 73 72 70 75 73 72 78 77 78
73 80 79 80 81 78 77 78 76 77 78 80 79 76 73 67 63 62 58 59 60 60 60 61 61 61 61 64 64 65 66 70 73 74 76 75 76 76 75 76 74 75 77 75 77 76 74 74 74
75 77 79 79 78 79 78 76 74 78 80 80 79 75 72 68 67 62 61 60 60 59 60 60 61 61 61 62 62 63 69 73 73 75 75 75 76 76 77 77 76 77 78 77 76 74 74 73 74
78 77 78 79 78 79 75 77 77 77 80 77 76 73 73 66 61 59 59 58 59 59 58 60 60 61 61 61 64 67 72 74 74 74 75 76 77 76 78 77 77 77 77 77 76 75 74 75 74
79 72 71 69 79 76 79 70 71 79 79 76 74 74 76 71 61 59 60 59 59 59 61 60 60 61 63 65 68 72 74 77 77 78 77 76 78 76 77 76 76 76 77 75 76 74 75 75 76
73 74 65 61 73 76 76 56 57 80 77 76 75 75 76 71 69 63 63 61 61 59 60 61 65 65 66 68 72 75 79 78 79 80 78 78 77 76 75 74 72 74 75 74 74 74 74 73 73
72 63 64 68 77 76 73 66 69 80 77 74 75 74 76 74 75 72 74 73 74 70 68 67 69 69 69 72 77 77 77 78 80 79 76 74 73 74 73 73 74 74 74 73 73 73 73 72 73
61 65 66 66 72 74 71 70 73 78 77 76 77 77 76 74 75 76 77 77 74 73 73 75 73 72 72 72 75 77 77 78 79 78 77 75 74 72 71 75 74 73 73 72 73 71 72 72 72
70 68 66 71 75 70 68 70 74 77 76 72 72 74 73 73 75 76 76 77 75 74 75 76 75 74 74 75 75 76 75 78 79 78 75 73 74 73 73 75 73 72 73 72 70 70 68 68 69
69 66 66 71 74 71 70 70 75 76 75 76 75 72 72 74 73 74 75 75 76 75 77 79 79 78 78 79 79 79 78 79 80 76 72 73 74 74 73 74 73 72 73 70 69 68 68 69 69
68 65 66 65 72 74 71 66 71 75 76 78 79 78 76 72 77 76 75 76 77 77 77 79 80 81 80 81 81 79 79 79 78 75 70 72 73 74 74 74 73 72 72 70 68 68 68 66 66
63 73 69 67 65 51 71 54 67 74 74 76 78 78 78 76 79 79 78 77 77 78 80 80 81 82 82 79 79 76 76 75 77 76 73 71 73 72 72 73 72 71 71 69 68 70 68 67 64
66 71 68 68 65 65 65 61 65 74 71 75 77 79 80 81 81 80 80 80 81 80 79 79 81 81 82 78 79 77 75 78 79 76 71 70 71 70 69 70 71 70 69 69 69 68 66 65 62
74 68 68 68 65 54 63 61 61 67 72 76 80 80 81 83 83 83 84 83 82 80 79 79 80 81 81 80 77 77 75 76 77 73 70 69 69 68 64 66 68 68 66 68 68 67 65 60 60
69 64 53 49 50 50 65 60 65 73 76 76 77 80 82 84 83 83 84 84 83 81 79 79 79 79 80 79 78 76 76 76 75 72 71 67 66 64 63 64 64 65 65 68 67 64 60 55 56
66 65 53 43 45 52 64 56 66 77 79 81 80 82 82 83 84 84 85 85 84 83 81 79 79 78 80 78 77 77 77 77 74 72 71 67 66 66 66 62 60 61 62 66 64 59 54 53 54
66 61 70 58 58 51 60 67 73 77 76 77 79 80 81 81 83 85 86 86 85 84 83 80 79 80 81 79 77 76 76 75 72 70 69 68 66 64 62 61 59 58 60 60 55 49 46 47 49
69 72 57 59 45 43 56 60 63 69 71 75 77 78 79 80 81 84 86 86 87 87 85 82 81 81 81 80 76 76 75 72 70 66 66 66 65 62 59 57 55 55 51 50 48 47 47 47 47
64 62 64 65 59 48 47 57 73 71 74 74 77 78 80 81 81 82 84 86 87 86 85 82 81 81 82 81 78 74 74 70 69 65 65 63 61 57 54 52 51 50 47 46 45 45 46 45 46
72 65 65 54 53 57 54 56 76 76 77 77 78 79 82 83 83 83 82 83 83 83 83 82 81 80 81 81 78 72 69 66 63 61 58 55 50 51 49 48 46 46 45 45 44 43 46 46 48

GFSSGP_sfc_temp_072.txt.gz
Temp
76 81 85 83 67 68 62 68 79 75 76 74 80 76 74 78 67 58 68 67 65 66 78 77 74 74 74 74 74 74 75 75 75 74 74 74 75 75 75 76 76 77 77 77 76 76 75 75 74
86 89 87 78 63 58 63 73 72 78 75 78 79 78 76 70 65 64 68 68 65 73 78 77 73 74 74 74 74 74 75 75 74 74 74 74 75 75 75 75 75 76 76 77 76 76 74 74 72
80 89 77 71 65 60 63 73 75 80 76 73 74 80 73 69 65 69 75 73 72 76 81 77 72 73 74 74 74 74 74 74 74 74 74 74 75 75 75 74 74 75 76 76 76 74 73 72 71
85 84 80 66 64 71 72 76 71 72 71 67 65 61 74 79 76 80 81 80 76 75 80 71 72 73 73 74 74 73 73 73 73 73 74 74 75 74 74 74 74 75 75 75 74 73 71 70 70
88 81 68 66 67 73 78 79 65 63 60 61 64 58 60 65 80 81 78 78 72 70 75 72 69 72 73 74 73 73 72 72 73 73 73 74 74 74 74 74 74 74 74 73 72 71 70 69 69
76 79 65 63 67 74 78 79 79 77 77 63 59 59 57 73 75 76 78 76 69 67 68 71 70 72 73 72 72 71 71 72 72 72 72 72 72 72 73 72 72 72 72 71 71 70 69 69 69
74 71 66 68 69 71 70 72 73 76 68 58 65 60 61 68 73 75 73 70 67 67 64 64 67 68 69 69 69 69 70 70 71 71 70 70 70 70 71 71 71 71 70 70 70 69 68 68 68
80 74 67 69 66 68 71 71 75 71 68 73 79 64 56 61 71 72 72 67 67 68 67 66 66 65 66 67 67 68 68 68 68 68 68 68 68 69 69 69 70 70 70 69 69 68 67 67 67
85 68 64 66 68 70 79 76 67 69 69 78 80 69 66 66 67 66 65 62 62 62 64 66 64 65 65 66 68 68 68 68 68 68 68 68 70 69 71 68 69 69 68 68 68 67 66 66 67
77 68 67 76 78 75 78 77 67 65 63 58 59 73 69 67 64 63 61 60 60 59 60 62 61 62 63 65 64 66 69 70 70 70 70 71 69 70 69 67 67 67 67 67 67 67 66 67 66
78 69 77 78 80 80 77 77 79 74 62 59 62 69 71 65 63 60 60 60 59 59 59 60 60 60 59 60 61 62 64 67 68 69 70 69 69 68 67 65 65 64 66 67 67 65 66 68 67
73 78 79 80 81 79 76 80 75 77 72 76 75 74 70 64 61 61 59 59 58 59 58 58 60 60 60 61 62 63 64 67 67 68 69 68 67 68 67 66 66 65 67 65 65 65 66 65 66
75 77 80 81 80 79 80 76 76 76 79 79 76 75 69 65 61 61 60 60 59 58 58 59 60 60 61 60 61 61 62 64 66 67 69 69 68 67 67 67 67 67 67 66 66 65 65 65 65
78 77 78 74 73 76 74 75 74 71 78 77 76 73 68 64 59 58 58 58 59 58 58 59 59 59 59 58 60 61 63 64 65 66 67 70 69 67 68 67 67 67 68 67 66 64 64 64 64
79 71 74 67 70 71 75 70 59 61 69 75 74 73 69 63 61 58 59 57 58 58 58 58 58 58 58 59 59 61 64 67 66 67 69 70 70 69 68 67 67 67 67 66 66 65 65 63 65
71 72 62 67 67 70 71 61 57 59 60 65 72 67 67 65 61 59 59 59 59 58 58 59 61 59 59 61 62 64 69 69 70 69 69 69 69 69 68 67 66 67 66 65 64 63 62 61 61
69 60 64 65 71 73 73 66 64 61 61 66 71 67 69 65 63 63 62 60 59 59 59 59 60 60 60 62 65 67 68 69 71 70 70 69 69 69 67 65 65 66 65 63 64 62 61 60 60
59 62 64 65 71 73 70 69 70 70 64 74 70 69 69 69 67 68 66 65 63 61 62 61 62 63 63 63 64 66 70 72 72 70 70 69 69 68 67 67 65 65 64 62 62 61 62 60 60
70 66 65 65 73 71 69 68 69 75 76 73 73 73 72 72 72 72 71 68 66 63 63 63 64 64 64 64 64 67 66 69 68 70 71 69 69 69 65 67 66 64 63 62 62 61 59 58 59
69 64 64 71 74 71 69 66 73 74 73 73 72 72 71 72 72 72 71 69 67 66 65 65 66 68 68 68 70 71 70 71 72 72 69 69 68 69 67 66 65 64 63 62 60 60 57 57 58
67 64 65 64 71 72 67 64 69 74 75 76 76 74 72 72 70 70 70 68 68 67 68 71 71 71 71 72 74 72 71 69 70 68 67 67 69 69 67 66 65 64 64 61 59 59 58 55 55
61 72 70 67 63 55 65 50 65 71 71 73 74 71 71 72 71 71 71 70 69 69 71 73 75 75 74 74 74 70 70 68 69 68 69 67 68 69 70 67 65 64 63 62 60 63 58 57 53
65 73 68 67 62 62 59 54 63 71 67 71 74 74 73 73 72 71 73 72 72 73 72 73 75 76 75 75 72 71 68 69 70 71 67 66 66 67 69 65 64 63 63 62 61 60 60 57 53
74 69 67 66 62 50 61 59 58 61 69 73 76 77 76 73 73 77 76 75 75 73 74 74 75 76 74 74 72 70 68 68 69 66 65 66 65 64 64 64 61 61 62 60 59 60 59 54 52
69 62 49 46 47 47 60 59 63 65 74 76 77 77 78 78 76 76 76 75 76 74 73 74 74 74 75 73 71 71 70 69 68 67 66 64 62 61 62 61 60 61 60 59 58 57 55 51 50
65 62 50 35 41 49 58 54 64 76 79 80 80 80 81 80 79 78 80 78 77 76 74 74 74 74 75 74 72 72 72 71 70 69 67 66 63 61 60 60 60 60 59 57 56 51 51 50 49
64 58 67 55 55 48 56 64 73 76 75 77 77 79 78 78 79 81 81 79 79 77 75 73 74 75 75 74 73 72 72 71 69 67 65 63 64 63 61 60 59 56 54 52 50 48 46 46 46
67 72 56 58 43 41 53 56 53 65 70 74 75 76 76 78 79 80 82 80 81 80 79 75 75 76 76 76 73 73 72 71 70 66 62 62 62 61 58 56 55 50 49 48 47 46 46 45 45
63 61 62 62 57 44 42 52 67 68 73 72 75 76 77 78 78 79 80 81 82 81 76 77 76 77 77 77 74 71 70 65 63 62 62 60 59 57 55 51 49 47 46 46 45 44 44 44 44
69 63 63 52 51 55 47 52 74 73 75 76 76 78 79 80 80 80 79 80 80 80 80 76 76 76 77 76 73 70 67 63 60 59 56 55 54 52 50 49 47 47 47 46 44 43 44 44 43

GFSSGP_sfc_temp_075.txt.gz
Temp
64 67 67 66 52 48 45 53 65 65 66 68 71 70 65 63 63 54 63 67 68 66 68 70 73 74 74 74 74 74 75 75 75 75 75 75 75 75 76 76 76 76 76 77 77 76 76 75 74
70 76 68 60 47 40 49 62 61 65 69 68 71 68 64 59 64 64 62 67 69 70 70 69 73 74 74 74 74 74 75 75 74 74 75 75 75 75 76 75 75 76 76 76 76 76 75 73 72
70 77 59 53 46 45 47 62 61 66 67 66 64 67 61 63 67 67 70 67 69 68 70 66 72 73 74 74 74 74 74 74 74 74 74 75 75 75 75 74 74 75 76 76 76 75 73 72 71
71 66 62 50 49 57 63 63 62 66 64 62 64 57 65 68 68 72 72 69 67 70 71 74 71 73 73 74 74 73 73 73 73 73 74 75 75 75 74 74 74 75 75 75 74 73 72 70 70
67 61 49 47 53 63 68 66 65 63 59 61 65 58 60 67 69 74 72 71 69 68 71 70 70 72 73 74 73 73 72 72 73 73 73 74 74 74 74 73 73 73 74 73 73 72 70 70 69
59 60 47 49 56 67 64 67 71 64 62 62 61 59 60 66 63 65 71 67 66 65 67 67 68 70 72 72 72 71 71 72 72 72 72 73 73 73 72 72 72 72 72 71 71 70 70 69 69
57 51 48 53 58 61 65 69 67 67 61 61 63 57 60 63 64 66 67 66 66 65 66 65 64 66 69 70 69 69 70 70 70 70 70 71 71 71 71 71 71 71 70 70 70 69 68 69 68
63 56 51 54 55 56 66 65 68 66 62 68 66 52 54 61 62 66 65 65 65 64 63 65 66 65 66 67 67 68 68 68 68 68 68 68 68 69 70 70 70 70 70 70 69 68 68 68 68
66 51 49 54 59 64 70 66 64 64 65 62 59 56 61 66 66 63 62 61 62 64 64 64 64 64 64 65 67 67 68 68 68 68 68 67 68 69 69 68 69 69 69 68 68 68 68 67 68
59 49 54 67 67 64 70 66 65 62 61 61 59 62 66 65 64 61 60 59 59 61 61 63 63 64 64 64 65 65 68 68 68 68 67 67 65 67 68 67 68 68 68 68 68 67 67 67 64
63 56 65 69 70 68 68 68 69 62 57 62 62 61 64 62 61 59 59 59 58 60 60 61 62 63 63 62 62 63 63 67 67 67 67 67 66 65 64 64 63 62 65 63 64 63 63 64 62
62 69 69 69 68 68 64 69 67 61 59 65 67 65 63 61 60 59 58 58 57 57 58 59 59 60 61 61 61 62 63 65 65 68 67 66 65 64 64 63 62 61 62 61 60 60 61 61 63
66 68 72 69 70 69 72 66 66 58 63 70 69 65 61 59 60 60 60 59 57 56 58 58 59 58 59 59 61 62 62 64 65 65 66 66 65 64 63 62 63 62 62 60 60 60 61 61 61
70 69 68 65 68 69 67 65 64 62 65 61 62 61 59 58 59 58 58 58 57 58 57 58 59 59 60 60 61 62 65 63 63 64 65 65 65 64 63 63 63 62 63 61 60 60 61 59 60
70 62 64 62 62 63 63 60 57 62 66 59 60 61 58 59 59 57 58 57 58 58 58 57 57 59 58 59 60 59 65 64 64 64 66 67 65 64 63 62 62 63 63 62 61 61 59 58 60
63 60 52 62 64 66 63 51 62 62 62 56 59 60 57 58 59 58 58 58 58 58 57 58 60 58 58 60 60 63 66 65 64 65 65 66 67 66 64 63 63 63 62 61 60 60 58 57 57
56 49 54 61 65 63 60 55 61 61 61 58 58 59 55 54 57 59 59 59 58 58 58 57 58 58 59 61 63 64 64 62 63 63 64 65 66 65 63 62 62 62 61 61 61 59 58 56 56
50 52 60 57 61 61 58 59 58 58 60 57 57 58 55 55 55 59 59 59 58 58 59 58 58 58 57 56 57 58 60 63 64 64 65 64 64 65 62 61 61 61 61 60 59 58 57 57 57
61 60 56 60 65 61 59 59 59 57 56 54 55 58 56 56 59 59 58 58 56 57 57 57 58 57 58 56 57 59 59 63 65 65 66 65 66 65 62 61 61 60 60 59 59 58 57 55 55
63 57 55 61 67 62 58 57 61 61 57 60 59 60 59 59 58 59 58 57 56 56 58 58 59 59 60 61 62 61 62 65 66 63 64 66 64 64 62 61 60 60 59 59 58 57 54 54 54
60 57 56 57 64 61 56 52 58 64 65 67 67 67 64 61 59 59 58 57 57 57 58 59 61 62 62 64 64 64 61 62 61 60 61 63 65 64 64 61 60 60 60 58 56 56 55 52 51
55 65 64 61 54 45 57 40 55 63 62 66 66 64 65 64 65 62 60 59 58 59 61 61 63 64 65 65 65 64 64 63 65 63 66 63 64 65 65 64 61 60 60 57 58 59 56 54 53
59 66 62 59 53 49 50 47 50 62 60 62 64 63 65 65 65 64 63 62 63 63 63 63 64 65 67 66 67 65 64 65 62 62 64 64 64 64 65 66 62 59 59 58 57 57 56 56 53
68 62 59 56 51 39 52 50 47 54 62 65 65 66 65 66 66 67 67 66 64 65 65 66 67 68 68 67 67 67 61 64 63 59 61 63 63 64 64 63 61 60 59 58 57 56 57 53 52
62 53 39 35 34 35 55 50 52 60 64 66 68 66 67 68 67 66 66 66 65 65 66 67 68 68 69 70 69 66 63 63 65 62 62 61 59 59 60 59 57 57 57 57 57 56 53 49 48
56 54 39 33 32 41 53 47 53 65 66 70 71 70 69 68 69 67 68 67 68 68 68 68 69 69 70 68 69 64 67 67 64 62 63 62 61 61 58 57 56 57 57 57 55 51 49 48 47
56 50 59 46 46 39 45 54 64 68 67 69 66 68 66 68 68 70 70 70 69 69 68 69 70 71 71 65 68 65 64 66 66 62 62 61 59 59 58 57 56 55 54 52 50 49 47 47 46
61 63 47 48 34 33 44 45 47 58 63 65 64 63 67 69 68 70 72 71 72 72 72 70 71 71 71 71 67 68 68 65 64 64 60 59 60 59 57 56 54 52 50 49 48 46 46 46 45
56 54 55 54 46 35 32 40 57 59 63 64 64 66 66 67 68 69 67 74 74 74 72 71 69 71 71 72 68 67 66 66 64 60 59 58 57 56 55 52 52 49 47 47 46 46 46 45 44
64 56 55 41 43 44 38 40 65 65 65 66 66 68 67 67 68 69 70 67 70 68 71 71 70 69 67 69 65 67 64 60 59 59 59 57 55 54 52 51 49 47 47 47 47 45 45 45 44

GFSSGP_sfc_temp_078.txt.gz
Temp
62 64 64 64 51 45 40 49 57 58 60 65 67 64 63 58 58 51 64 66 68 66 71 73 73 74 74 74 74 75 75 75 75 75 75 75 75 75 75 75 75 76 77 77 76 76 75 74 73
66 71 65 56 45 37 42 52 54 58 64 67 66 64 60 58 63 62 62 67 68 67 68 73 71 71 74 74 74 74 75 75 75 75 75 75 75 75 75 75 75 75 76 77 76 75 74 74 72
69 72 58 50 41 39 42 55 58 59 63 64 61 64 61 61 66 65 70 69 68 67 70 72 71 70 72 74 74 74 74 74 74 74 75 75 75 75 75 74 74 75 76 76 76 75 73 71 71
67 62 58 48 44 52 54 62 66 61 62 63 62 61 63 67 66 69 71 69 66 66 69 70 71 72 73 73 74 74 73 73 73 74 74 75 75 75 74 74 74 75 75 75 74 73 72 70 70
63 56 47 42 47 55 65 66 64 60 59 62 61 60 60 65 68 68 69 68 65 67 69 68 70 72 73 73 74 73 73 73 73 73 74 74 74 74 73 73 73 73 74 73 73 72 71 70 69
57 54 43 39 48 58 63 66 66 63 61 61 60 59 59 65 63 65 67 66 67 66 67 68 69 71 71 72 72 72 72 72 72 73 73 73 73 73 72 72 72 72 71 71 71 70 70 70 69
54 49 43 44 52 57 63 65 64 62 58 58 62 56 59 62 63 66 66 65 65 66 66 66 66 66 65 70 70 69 70 71 71 71 71 71 71 71 71 71 71 70 70 70 70 69 69 69 69
58 53 44 48 52 53 64 62 64 60 55 64 65 56 57 61 63 65 64 65 63 64 64 64 64 63 64 67 68 68 69 69 69 70 69 69 69 69 69 69 70 70 70 70 69 69 68 68 68
61 48 44 49 52 58 65 62 62 61 59 60 61 61 62 64 65 63 62 62 63 63 64 64 63 63 63 64 66 67 68 68 67 68 68 68 68 68 68 68 69 69 69 69 69 68 67 66 66
56 46 51 60 61 63 65 59 62 59 57 58 60 63 65 66 64 61 60 60 61 61 62 63 63 63 63 62 62 63 65 68 68 67 66 66 65 66 67 67 68 68 68 68 67 67 66 65 60
55 52 64 66 65 65 62 63 63 60 55 60 60 59 63 62 61 60 59 59 61 61 62 63 63 63 62 60 61 62 62 65 65 66 66 66 65 65 65 65 64 64 65 62 62 62 61 62 59
55 64 66 64 66 64 61 63 59 58 59 65 64 64 61 60 60 60 58 57 58 59 59 62 63 62 62 62 61 63 63 62 64 65 65 63 62 61 61 62 62 62 60 59 58 58 59 59 60
60 63 67 68 67 65 67 62 57 55 62 64 65 65 60 60 60 60 59 58 57 57 57 58 60 61 62 62 63 64 64 66 65 65 64 64 62 61 59 61 61 60 59 58 57 58 58 58 58
64 64 65 64 65 63 63 62 61 57 62 61 64 62 57 60 59 58 57 56 57 57 57 58 58 60 61 62 63 65 65 64 65 65 64 63 62 62 62 61 60 60 59 59 59 58 58 57 57
65 58 61 61 60 59 61 58 53 58 62 60 61 60 55 59 59 58 58 57 57 57 58 58 59 60 60 61 60 62 65 67 65 66 65 65 63 60 60 58 58 59 58 58 58 58 57 57 58
58 55 48 61 59 62 62 51 57 59 60 58 59 58 58 59 59 58 58 58 59 57 57 58 60 59 59 60 62 64 64 66 66 66 65 65 63 62 60 60 59 59 58 58 58 57 56 56 56
49 45 49 55 63 60 58 52 55 58 59 57 56 54 53 53 57 58 59 58 58 58 58 57 58 58 58 58 60 61 63 64 63 63 64 63 63 62 62 60 59 59 59 58 59 57 57 54 54
44 46 53 52 58 58 53 53 54 57 58 56 53 51 52 54 53 57 58 59 59 59 58 58 59 59 58 58 58 60 61 63 62 60 60 62 62 62 60 60 59 59 58 57 57 57 55 55 54
54 53 51 57 63 57 55 53 57 54 54 52 51 51 51 55 54 56 58 59 58 58 58 57 57 58 58 57 58 61 62 57 58 59 61 61 62 62 60 59 58 58 59 58 57 55 55 53 53
55 52 53 59 64 59 55 54 56 54 55 55 54 53 52 53 55 56 55 57 56 57 55 55 56 56 57 58 60 60 58 57 58 60 61 61 62 61 60 60 59 58 57 57 56 56 53 53 52
55 52 53 55 59 57 52 51 54 57 57 58 58 58 57 55 54 56 55 54 56 56 55 55 56 57 58 59 59 57 57 57 57 58 60 61 62 63 62 60 60 58 58 57 55 55 54 53 52
49 60 60 58 51 43 52 39 50 56 57 57 58 58 57 57 57 56 55 53 53 54 55 57 58 58 59 60 60 59 60 60 62 63 63 62 63 63 62 62 60 58 58 56 56 56 55 55 54
54 62 60 58 51 45 47 42 48 55 54 56 57 59 58 59 57 56 56 56 56 57 56 57 59 60 61 61 62 61 59 61 61 59 60 60 61 62 63 62 61 58 57 57 55 56 56 55 53
65 59 55 52 48 38 47 46 45 48 57 59 61 61 60 59 59 59 59 59 58 59 58 58 58 60 62 62 62 61 60 61 60 59 59 60 61 62 62 62 60 60 58 57 56 55 56 54 51
59 50 37 35 33 34 51 46 51 57 60 63 62 61 61 62 61 59 58 58 59 59 59 60 60 60 62 63 63 62 62 61 62 60 62 62 61 61 62 62 61 60 59 57 57 56 55 52 50
53 51 37 33 31 36 50 43 50 62 64 66 66 66 64 62 63 61 60 60 61 61 61 60 61 61 63 63 63 63 64 64 63 64 62 62 62 62 62 62 62 57 56 56 55 52 49 49 49
54 46 55 43 41 35 42 49 59 60 61 62 62 64 62 63 63 63 63 62 62 62 62 62 63 64 65 65 65 64 64 64 64 63 62 62 62 62 61 60 58 56 55 53 51 49 48 49 48
58 60 44 43 33 32 40 42 46 54 58 60 59 59 62 65 64 65 66 65 64 63 63 62 64 65 67 68 67 67 65 64 65 60 60 60 60 59 58 57 56 54 53 51 50 49 48 47 46
52 51 50 50 43 33 32 39 52 57 59 60 60 61 62 64 65 66 67 68 67 67 65 63 63 65 66 67 65 66 66 63 62 59 58 57 57 57 57 56 55 53 52 50 48 48 47 46 45
61 56 53 39 40 41 37 44 59 58 60 60 61 64 62 64 65 66 68 68 68 67 67 67 65 65 68 68 67 64 64 62 61 58 58 58 56 57 57 54 53 51 49 48 47 46 46 46 45

GFSSGP_sfc_temp_081.txt.gz
Temp
61 62 62 62 50 44 38 47 51 55 57 63 64 61 60 56 57 50 63 65 68 68 69 73 72 73 73 74 74 75 75 75 75 75 75 75 75 75 75 75 75 76 76 76 76 75 75 73 73
64 68 63 53 43 36 41 49 54 58 62 63 64 63 59 55 61 63 63 66 67 67 68 72 72 73 74 73 74 74 75 75 75 75 75 75 75 75 75 75 75 75 76 76 76 75 74 73 72
66 68 57 47 38 38 41 52 57 59 62 60 59 61 59 58 63 64 69 68 67 65 68 72 71 72 73 73 73 74 74 74 74 74 75 74 75 75 75 74 74 75 76 75 75 74 73 71 70
65 61 55 46 41 48 51 59 59 58 60 60 60 57 59 65 65 68 69 69 65 65 66 69 70 72 73 73 73 73 74 73 74 74 74 74 74 74 74 74 74 75 75 75 74 72 71 70 69
60 54 45 40 44 52 57 60 60 59 58 61 58 58 58 63 66 67 67 68 64 63 65 67 69 69 72 73 73 73 73 73 73 73 74 74 74 74 73 73 73 73 74 73 72 71 70 69 68
54 51 42 38 45 54 58 62 63 61 60 60 58 58 56 62 63 65 67 66 65 64 65 67 69 70 71 73 72 72 72 72 72 73 73 73 73 72 72 72 72 72 71 71 71 70 70 69 68
52 47 41 41 47 52 58 62 60 60 56 59 59 56 57 59 62 66 66 64 66 66 64 64 65 65 65 68 70 70 70 71 71 72 71 71 71 71 71 71 71 71 71 70 70 69 69 69 68
54 50 40 44 46 49 60 60 60 58 56 62 63 56 54 58 64 64 65 63 64 64 64 63 64 63 63 64 67 67 69 69 70 70 70 69 69 69 69 69 70 70 70 70 70 68 67 68 67
55 47 41 46 48 56 65 60 60 58 57 59 61 60 61 64 63 62 62 62 62 63 63 64 62 62 62 63 64 66 69 68 68 69 68 67 68 67 67 68 69 69 69 69 69 67 66 66 66
52 44 48 56 57 59 63 56 59 57 55 57 58 61 63 63 60 59 60 60 61 61 62 62 62 61 61 62 65 65 67 68 69 69 69 67 66 66 67 67 68 68 68 68 67 66 65 64 61
52 50 56 62 62 62 61 57 61 57 50 59 59 59 61 59 58 60 59 60 60 61 62 62 61 61 61 60 61 62 62 63 66 67 67 65 65 66 66 65 64 63 64 62 61 61 60 58 57
51 59 59 62 65 59 57 60 58 56 59 63 64 62 61 57 57 58 58 58 59 60 61 62 62 61 60 60 59 61 60 62 63 64 64 63 62 59 61 61 59 61 59 59 58 56 56 56 56
57 60 62 64 63 61 63 59 58 55 59 63 64 62 60 58 57 57 58 58 58 57 60 61 61 60 60 60 60 61 61 62 62 63 63 62 63 61 60 58 58 61 58 59 57 57 56 56 55
60 60 61 61 62 61 58 57 55 58 59 60 62 56 57 56 56 58 57 56 58 57 57 59 61 61 61 61 62 62 64 64 63 62 62 62 62 61 61 57 57 58 58 59 57 56 56 55 55
60 56 58 58 58 59 61 52 54 57 59 59 60 57 56 56 56 57 57 56 58 57 57 58 59 61 61 61 63 63 65 65 64 64 62 62 61 59 58 56 56 56 56 57 56 56 54 54 56
55 50 46 55 59 61 58 50 57 56 56 55 57 55 54 54 56 59 59 58 58 57 58 59 60 59 59 60 62 63 66 65 64 64 63 62 62 61 60 58 57 56 57 57 56 54 54 53 54
46 41 45 53 59 57 54 52 56 55 56 55 54 52 52 53 56 58 59 58 57 58 58 58 58 57 58 58 60 61 62 64 65 64 64 62 61 61 61 58 57 58 57 56 57 54 55 53 53
41 43 48 48 53 54 51 53 52 52 54 53 51 51 50 52 54 59 58 58 58 58 58 58 57 56 57 56 58 60 60 61 62 62 65 62 62 61 59 58 57 57 56 55 55 55 54 53 53
50 47 45 53 59 53 53 54 53 51 51 50 49 49 49 51 56 59 58 58 58 58 57 57 56 57 57 56 55 58 61 60 60 61 62 62 61 61 59 58 57 57 57 57 55 54 54 52 51
51 47 47 53 58 55 52 53 54 51 52 54 51 49 50 49 52 56 57 57 56 57 57 57 58 58 58 58 61 62 62 60 61 60 61 59 60 60 59 58 58 57 56 54 54 55 52 52 51
50 47 48 48 55 56 51 49 51 54 53 54 55 54 53 52 53 56 55 56 56 56 55 56 58 58 60 61 60 59 59 59 59 57 55 57 59 60 60 58 57 57 56 56 55 54 54 51 49
46 55 54 53 48 42 49 38 48 52 51 53 56 53 52 53 54 54 55 54 55 56 57 54 56 58 59 59 56 55 60 60 58 56 57 57 59 59 60 60 58 57 57 54 55 55 52 54 52
51 57 54 53 49 42 44 41 45 50 49 52 54 55 54 55 55 53 53 54 55 56 56 54 55 56 58 57 57 56 56 56 56 56 56 56 57 59 60 60 59 57 57 57 55 53 53 53 53
60 53 51 48 45 36 45 43 43 45 53 57 57 57 57 56 56 56 55 54 53 53 54 53 54 56 57 57 57 56 56 58 57 55 56 59 58 58 59 60 60 60 58 57 56 56 53 53 53
54 46 35 33 32 34 48 42 48 54 57 59 58 58 58 58 56 56 54 54 54 53 53 54 55 56 58 58 58 58 57 57 58 59 58 58 58 59 60 59 59 60 60 58 56 55 54 53 52
50 48 35 32 30 35 46 39 48 59 61 62 64 63 61 58 58 57 57 56 56 56 55 56 56 56 58 58 58 58 60 60 60 60 60 60 60 60 60 60 62 61 59 57 56 54 52 50 50
50 43 54 41 37 33 40 46 56 59 58 58 59 58 59 58 58 59 60 59 58 58 58 57 58 58 59 59 60 60 60 61 61 60 61 59 60 60 59 61 61 58 56 56 54 53 51 50 50
56 56 42 40 32 30 36 38 43 53 56 57 54 57 59 60 60 60 60 60 60 60 60 58 59 59 60 61 61 62 62 62 62 62 60 58 58 58 57 56 55 55 55 53 53 51 50 49 48
49 47 47 47 39 33 30 36 50 54 58 58 57 58 59 60 61 62 62 62 62 61 60 59 59 60 60 61 62 63 63 63 62 61 60 57 58 58 57 56 55 54 53 52 51 50 49 48 46
57 53 51 39 37 38 36 42 56 56 56 58 59 60 60 62 63 63 64 63 62 61 61 60 60 60 62 63 63 63 63 62 61 61 58 59 59 58 58 56 55 53 52 51 49 48 47 47 45

GFSSGP_sfc_temp_084.txt.gz
Temp
61 61 61 60 50 43 38 45 49 52 54 59 61 58 57 55 57 50 63 65 67 69 72 72 72 74 74 74 75 75 75 76 76 75 75 75 75 75 75 75 75 76 76 76 76 75 74 74 72
62 65 61 52 42 36 41 47 50 56 60 61 62 59 57 56 59 62 62 66 66 68 70 72 72 73 74 74 75 75 76 76 75 75 75 75 75 75 75 75 75 75 76 76 76 75 74 72 71
65 66 56 45 37 38 40 50 55 57 62 60 57 59 58 58 61 63 66 66 66 66 68 72 72 72 73 73 74 75 75 74 74 74 74 74 75 75 75 74 74 75 76 76 76 74 73 71 70
63 59 53 45 39 47 50 55 56 56 58 58 57 56 58 63 63 64 67 67 66 65 65 68 70 72 73 74 74 74 74 74 74 74 74 74 75 75 74 74 74 74 75 75 74 73 71 69 69
58 52 43 38 42 49 53 57 57 57 58 59 58 56 56 61 63 65 65 66 64 64 64 65 68 70 73 74 74 73 73 73 73 73 73 74 74 74 74 73 73 74 74 74 73 71 70 69 68
53 50 40 38 43 51 54 59 59 60 58 58 55 56 56 60 61 63 67 65 64 64 64 65 68 70 70 73 73 72 72 72 73 73 73 73 73 73 73 73 72 72 72 71 71 70 69 68 68
51 45 39 38 44 50 55 59 57 59 55 57 57 53 56 58 61 65 66 65 64 65 64 64 64 65 68 67 71 70 71 71 72 72 72 71 71 71 72 71 71 71 70 70 69 69 68 68 67
52 49 38 40 44 47 57 57 58 58 57 60 61 55 54 58 64 65 64 64 65 64 64 62 63 63 64 64 66 67 69 70 70 71 70 69 69 69 70 70 70 70 70 69 69 68 68 67 66
53 45 39 44 46 54 61 56 57 56 54 57 59 59 60 63 64 63 61 63 63 63 62 62 62 62 62 63 64 67 69 69 69 70 69 67 67 66 66 68 69 70 69 68 68 68 67 66 66
51 42 46 54 54 56 61 56 58 53 51 56 57 60 61 63 61 60 60 60 61 61 61 62 61 61 61 63 63 65 65 67 68 69 68 67 66 64 65 67 68 69 68 67 67 67 66 65 62
50 48 53 58 59 57 56 56 59 54 51 57 56 57 59 61 60 60 60 61 60 61 61 61 60 61 60 61 61 63 64 65 67 67 67 66 64 63 62 64 65 64 65 63 62 61 60 59 58
48 56 56 60 60 57 54 57 56 55 58 60 61 60 60 58 57 59 59 59 60 60 61 61 61 60 60 61 63 63 63 64 65 65 65 65 63 60 59 59 59 58 58 58 57 57 56 56 57
53 57 59 61 60 58 59 58 57 55 57 61 61 60 60 60 56 59 59 59 59 59 60 60 60 59 59 60 61 61 63 63 63 64 64 64 63 61 60 58 58 58 58 59 56 56 56 56 55
58 57 58 58 58 58 58 55 53 57 58 59 60 56 60 60 58 58 57 57 58 58 60 60 59 59 59 60 60 61 61 62 62 62 62 63 63 61 61 57 58 58 59 57 58 58 57 56 55
57 51 54 55 54 57 56 53 50 57 58 57 58 55 57 55 55 56 58 57 58 58 58 60 59 59 60 60 60 61 62 62 61 62 61 62 62 61 60 58 57 59 58 56 56 55 56 55 56
51 50 43 53 55 56 57 48 56 54 55 54 56 54 53 53 55 58 58 58 58 58 58 59 61 60 59 61 62 64 63 62 62 62 61 62 61 60 59 59 58 57 57 56 55 55 53 53 53
45 40 42 50 56 53 52 50 51 52 53 53 53 52 51 55 58 57 59 58 58 58 58 58 58 58 57 58 59 60 62 62 62 62 61 61 61 60 60 59 58 58 57 56 56 54 54 53 52
40 41 45 45 50 52 48 50 56 51 52 51 51 50 50 51 56 58 58 58 58 58 58 57 57 57 57 57 58 58 59 60 62 61 62 61 61 60 58 58 58 58 56 55 54 54 53 53 53
48 46 43 48 54 51 50 48 55 50 49 49 49 49 49 49 58 58 58 58 57 57 57 57 56 56 57 57 56 58 60 58 59 61 62 60 61 60 58 58 58 57 56 55 54 54 53 52 51
48 45 45 50 54 52 51 50 55 50 49 50 49 49 49 49 54 57 56 56 56 56 57 57 58 57 58 58 57 59 62 59 59 59 60 61 61 60 59 59 57 56 55 54 54 54 52 53 51
46 46 45 47 50 51 47 46 50 52 50 52 52 52 51 50 50 54 55 55 56 55 56 57 58 59 60 59 58 58 59 59 58 57 57 59 60 60 61 58 58 56 56 55 55 53 53 51 49
43 51 51 49 45 38 48 36 45 52 52 50 51 50 51 50 51 52 56 56 55 56 57 58 58 59 60 61 60 59 61 60 63 59 59 59 60 59 59 59 57 56 56 54 55 54 52 52 49
50 54 50 49 44 40 41 37 44 48 50 53 51 52 52 52 52 51 53 54 58 58 56 56 57 57 58 60 60 55 61 62 55 55 56 55 56 58 59 58 57 56 56 56 54 52 51 51 50
57 50 49 45 42 33 42 41 41 44 50 54 55 54 53 53 53 53 54 56 56 58 58 56 54 54 57 57 56 54 53 54 54 53 53 54 54 55 57 58 58 58 57 56 55 55 54 54 54
52 44 33 32 31 32 44 40 48 52 55 56 58 56 55 54 54 53 52 53 54 54 55 56 54 54 55 55 55 55 54 54 57 58 57 56 54 54 56 57 57 58 58 58 58 55 54 53 52
47 45 33 31 30 34 43 37 45 56 58 59 59 57 56 54 55 55 54 53 52 53 54 54 53 54 55 55 55 55 56 56 57 58 59 56 57 56 56 57 59 59 59 59 57 57 56 55 53
47 42 50 38 34 32 38 44 53 57 58 57 55 56 54 54 55 56 57 56 54 54 53 53 54 54 55 55 56 55 56 57 57 57 55 55 55 56 56 56 58 58 57 56 56 56 54 53 54
52 53 41 37 31 30 34 36 43 51 55 56 53 55 55 54 55 56 57 57 57 57 56 55 56 55 56 56 56 57 56 57 57 56 56 57 56 56 57 57 58 56 56 56 55 54 53 52 51
46 46 44 44 38 33 30 35 47 54 56 56 56 56 56 55 55 57 58 59 59 58 57 56 56 56 56 57 57 57 58 58 58 58 58 58 57 58 58 58 57 56 56 55 54 54 52 51 50
51 49 49 40 35 35 35 41 54 54 56 56 58 59 56 56 56 57 57 57 58 57 57 57 57 57 58 58 58 58 59 59 58 59 60 60 58 58 59 58 58 57 56 54 53 51 51 50 48

GFSSGP_sfc_temp_087.txt.gz
Temp
70 71 75 74 65 61 57 58 61 62 64 70 69 67 67 67 66 62 72 73 73 75 77 77 73 74 74 75 75 75 76 76 76 76 75 75 75 75 75 75 76 76 77 76 76 76 75 74 73
72 72 73 66 61 57 59 59 60 66 70 68 67 66 65 67 68 70 71 72 74 75 77 78 72 73 74 74 75 75 76 76 75 75 75 75 75 75 75 75 75 75 76 76 76 75 74 73 71
73 73 71 62 55 57 58 61 66 67 69 69 67 67 67 68 69 71 72 73 73 73 74 77 72 73 74 74 74 75 75 75 75 75 75 75 75 75 75 75 74 75 76 77 75 74 72 71 70
74 73 66 61 56 59 61 67 66 65 67 67 66 64 68 71 70 70 72 71 72 72 69 67 70 71 73 74 74 74 74 74 74 74 74 75 75 75 74 74 74 75 76 75 74 72 71 69 69
70 68 60 56 56 59 63 66 65 65 66 64 66 65 65 69 70 70 71 71 70 71 69 68 67 70 73 74 74 74 73 73 73 73 74 74 74 74 74 73 74 74 74 74 72 71 70 69 68
67 65 57 55 56 60 64 68 66 65 68 65 63 63 67 69 68 68 70 70 69 69 69 67 68 69 68 74 73 72 72 72 72 73 73 74 73 73 73 73 73 73 72 72 71 70 69 68 68
66 62 56 54 55 59 64 69 66 67 67 67 68 64 67 66 67 68 69 69 69 68 69 69 67 68 67 67 70 70 71 71 72 72 72 72 71 71 72 72 71 71 71 70 70 69 68 68 67
65 64 53 55 56 59 66 69 70 68 69 67 69 64 65 66 67 68 68 68 67 68 68 69 68 68 67 65 66 66 69 70 71 71 70 70 70 70 70 70 70 70 70 70 69 68 68 67 66
65 60 54 56 55 63 67 66 67 67 67 65 67 65 66 66 67 66 66 66 64 65 66 66 66 67 67 65 66 67 68 68 69 70 69 69 75 74 73 71 69 69 69 69 68 68 67 66 65
65 57 58 63 63 65 68 65 67 66 64 65 65 66 66 66 65 64 63 63 64 63 64 65 64 64 63 66 65 66 67 68 70 70 73 74 73 74 74 71 68 68 69 68 68 67 66 68 71
61 60 61 65 67 67 65 65 68 65 65 66 68 66 65 63 64 63 63 63 64 64 64 64 64 64 62 62 63 65 65 66 67 68 73 70 72 71 71 72 73 72 70 73 71 69 73 70 71
59 64 64 67 67 66 64 68 64 64 71 66 68 67 65 63 63 62 61 64 62 64 63 63 62 62 62 61 62 63 64 65 65 66 68 71 70 69 68 71 71 70 72 71 71 70 69 68 69
59 64 65 67 66 66 66 66 66 66 66 67 66 66 65 64 62 62 62 62 62 61 61 60 61 62 62 62 62 63 64 65 64 65 68 69 69 67 69 68 70 70 69 69 69 68 69 68 68
64 63 65 66 66 66 65 65 61 67 66 63 64 64 64 64 63 61 60 60 60 59 60 60 59 61 60 62 63 63 64 64 64 64 67 67 68 66 66 67 68 68 70 70 69 69 69 69 68
64 59 62 64 65 65 66 62 62 67 63 61 61 61 63 62 61 60 62 59 60 59 60 59 59 59 60 59 61 62 63 64 63 63 66 65 65 64 64 65 67 68 68 65 64 66 67 68 68
59 57 54 62 63 63 65 59 65 63 62 61 60 59 59 60 61 61 61 60 61 59 59 60 60 59 61 60 60 61 62 62 62 63 64 65 64 64 64 64 66 67 66 66 67 66 67 66 66
54 51 52 57 62 63 62 59 67 61 60 60 60 57 58 60 61 61 61 60 60 59 58 59 59 59 60 60 62 61 62 62 61 62 64 63 63 63 64 63 64 65 66 66 67 64 65 64 65
50 48 50 53 60 60 59 59 65 63 62 63 61 60 59 59 61 61 62 60 60 59 58 58 59 59 58 59 59 60 60 61 61 60 64 65 66 65 64 66 64 64 65 64 64 64 64 64 65
55 51 52 56 60 58 60 58 63 65 60 59 59 59 58 58 62 62 60 59 59 59 58 57 57 58 58 59 58 59 57 59 60 62 62 64 67 65 66 66 65 65 64 65 64 62 62 62 63
54 51 52 57 59 57 59 59 64 61 62 63 61 60 59 57 59 60 58 58 58 58 58 58 57 58 59 60 59 61 59 61 61 61 61 61 62 64 65 66 66 64 65 64 63 64 63 65 63
52 51 52 52 56 58 56 56 60 63 60 61 60 63 62 59 58 59 57 58 58 57 57 58 58 59 59 58 58 57 60 59 58 59 59 61 63 66 67 66 66 65 66 65 64 65 64 64 62
48 55 55 53 52 47 57 45 56 64 63 59 63 59 61 59 60 61 58 57 58 59 59 59 59 59 60 60 60 58 61 60 62 61 61 61 63 66 68 67 67 66 66 66 66 65 64 64 62
53 57 54 54 51 49 51 47 55 57 61 65 64 62 61 61 60 60 60 60 59 60 59 61 60 60 61 60 62 61 63 66 62 62 62 62 66 67 67 67 67 66 65 65 64 62 62 63 64
59 55 53 51 50 41 49 48 52 59 62 63 64 63 62 61 60 62 63 62 61 60 59 59 59 61 61 62 63 61 64 64 61 64 63 63 64 65 65 67 66 66 65 64 64 64 63 63 63
57 50 41 38 38 39 50 46 54 61 63 64 68 66 63 63 62 61 60 60 61 59 59 58 58 60 61 61 64 62 63 63 64 63 64 63 62 62 64 64 64 65 65 65 65 64 63 63 62
51 51 42 35 36 43 48 45 55 64 66 66 66 66 65 62 63 62 62 62 61 60 58 58 58 58 61 61 62 63 64 64 64 65 66 64 64 65 65 64 65 66 66 65 65 64 64 63 61
50 45 55 43 42 41 47 51 59 64 65 66 66 64 62 61 62 63 63 62 62 61 59 57 57 57 60 61 61 62 63 63 64 64 65 65 65 65 65 65 65 66 66 65 65 64 62 62 61
56 57 44 45 36 35 42 44 51 57 62 64 65 64 64 62 61 64 64 62 63 62 61 57 58 58 62 62 62 62 62 63 64 64 63 65 65 66 66 65 65 66 65 65 64 62 61 59 57
51 49 50 50 45 40 38 44 56 60 65 63 66 66 65 63 62 63 65 65 64 63 62 59 59 61 61 62 62 62 62 62 63 63 63 64 65 65 65 66 65 64 61 57 56 57 58 55 55
55 51 52 43 42 42 42 47 61 62 62 64 65 67 68 67 64 64 64 65 64 63 62 62 61 61 62 62 62 61 62 62 61 61 63 64 64 65 64 65 63 62 60 59 57 57 56 55 54

GFSSGP_sfc_temp_090.txt.gz
Temp
75 87 91 86 73 74 71 69 75 73 73 79 79 76 76 79 73 68 83 82 81 83 86 83 73 74 75 75 75 75 75 76 76 76 75 75 76 76 76 76 76 76 77 77 77 76 75 74 73
88 85 87 84 70 66 69 72 71 75 78 78 78 77 75 75 82 81 80 81 81 83 83 86 72 74 75 75 75 75 76 76 75 75 75 75 76 75 76 75 75 76 76 76 76 75 75 73 72
85 85 81 77 73 67 70 72 75 78 79 78 76 78 78 78 80 82 81 81 82 82 81 84 72 73 74 74 75 75 75 75 75 75 75 75 75 75 75 75 75 75 76 76 76 75 73 71 70
85 85 82 70 68 71 71 76 77 77 78 79 79 72 80 84 80 82 81 80 80 82 82 73 68 71 73 74 75 73 74 74 74 74 75 75 75 75 75 74 74 75 75 75 74 73 71 69 69
88 84 72 69 70 72 76 77 76 75 76 75 77 74 74 80 83 81 80 79 77 81 81 73 66 69 70 73 76 74 74 73 73 74 74 75 75 74 74 74 74 74 74 73 72 71 70 69 68
79 80 68 67 70 73 76 78 77 76 78 78 74 75 78 81 79 80 78 77 77 76 77 74 70 70 69 70 68 71 73 73 73 73 73 74 74 73 73 73 73 73 72 71 70 69 69 68 68
75 74 69 69 69 70 74 78 75 77 79 79 81 74 81 77 78 76 76 77 72 75 73 73 76 73 68 66 65 65 71 71 72 72 72 72 72 72 72 72 72 71 71 70 69 69 68 68 67
80 76 69 70 69 69 76 77 81 78 79 79 81 73 76 78 77 76 76 76 72 72 72 73 75 70 72 69 66 66 69 69 71 71 71 70 70 71 71 71 71 70 70 69 69 68 67 67 66
80 69 67 69 69 72 77 74 81 81 78 80 81 78 80 78 76 75 75 74 72 69 70 69 71 69 69 70 68 66 67 69 69 70 69 69 77 76 76 73 70 69 69 69 68 67 66 66 65
75 70 71 76 77 74 77 77 78 76 80 80 80 80 78 77 75 74 71 73 73 70 69 71 72 71 68 70 68 68 67 69 72 74 74 76 75 78 80 72 69 69 68 68 67 67 66 69 76
75 69 77 76 77 78 76 77 80 77 75 80 79 80 78 75 73 73 71 73 73 75 68 69 68 71 66 69 68 68 66 67 68 70 75 73 75 77 77 76 75 75 71 76 73 72 78 78 78
68 75 76 77 78 76 75 80 76 78 80 84 80 79 78 74 72 72 71 72 73 73 72 67 66 68 66 64 64 66 65 65 65 67 70 73 72 76 77 79 79 76 79 76 77 77 78 77 78
69 74 77 79 77 77 77 75 76 78 85 85 78 76 76 74 72 68 70 71 72 69 67 64 63 65 66 62 63 63 64 65 65 65 67 70 73 75 76 78 80 80 80 78 77 78 76 76 76
74 73 75 77 76 77 73 75 76 81 80 76 73 76 76 74 73 66 67 69 69 67 62 62 61 63 65 62 63 62 64 65 65 65 66 69 73 75 76 76 78 79 80 80 78 77 76 76 76
73 67 73 75 76 75 79 71 72 79 74 73 73 75 75 75 72 66 67 68 67 65 61 61 60 61 61 62 62 64 63 64 64 64 66 68 74 73 72 75 76 78 79 76 77 76 77 77 77
67 69 63 72 73 74 72 67 76 75 74 74 73 73 73 72 71 67 69 69 66 63 61 60 61 60 61 62 61 63 64 64 64 63 65 66 68 72 71 71 71 74 74 75 75 75 75 76 76
66 60 64 67 74 73 71 70 78 76 72 74 75 74 73 73 72 68 71 69 65 62 60 60 60 61 61 61 61 62 62 62 62 63 65 66 67 69 70 70 68 68 69 72 74 73 74 74 75
59 60 62 63 71 69 70 70 77 80 74 75 77 76 74 73 73 71 69 67 65 62 62 61 62 60 61 61 60 61 61 61 61 62 67 67 68 67 68 68 67 68 68 70 73 70 73 74 73
65 63 62 68 70 65 66 70 75 80 78 75 76 75 75 73 74 71 70 65 65 60 60 61 62 61 61 59 58 59 58 60 60 61 66 69 68 67 69 68 67 67 70 70 70 70 67 67 69
63 60 60 67 70 64 67 68 75 78 78 78 78 76 75 74 71 69 69 65 63 60 59 61 64 63 65 62 60 61 60 60 60 61 64 70 69 70 71 72 70 71 69 69 67 66 67 69 69
60 59 60 60 67 68 66 64 70 77 76 77 77 79 78 75 71 69 67 66 63 61 61 60 61 62 65 65 62 59 59 58 59 59 60 66 72 73 73 73 73 71 72 68 67 69 70 69 70
55 66 62 60 59 55 63 53 68 71 73 77 78 75 77 75 74 72 69 67 65 64 64 66 61 62 64 63 64 60 60 61 64 62 64 64 70 72 74 74 73 71 70 70 71 72 71 71 70
56 66 61 61 59 58 58 55 66 69 67 74 77 78 76 76 75 73 71 69 67 65 65 65 64 61 62 65 64 61 61 68 66 64 63 63 64 65 69 72 71 71 72 72 72 71 70 72 71
63 60 60 60 58 47 55 57 62 67 70 73 76 76 76 76 75 75 74 72 69 65 65 66 66 62 61 62 62 61 60 62 63 62 61 62 64 66 66 75 73 73 72 71 71 71 69 69 70
60 56 47 44 45 45 60 56 61 70 74 75 76 78 77 77 74 74 73 71 70 65 64 66 66 64 63 62 63 64 66 67 68 66 66 64 68 67 69 72 71 71 71 72 71 70 70 69 68
55 55 49 39 43 49 60 51 62 73 77 78 77 78 78 76 75 75 75 73 72 68 65 63 64 65 66 66 63 67 70 72 72 71 72 71 71 72 71 71 71 71 71 71 71 71 71 71 69
57 52 62 51 53 46 56 60 68 72 73 76 77 77 77 76 76 77 76 74 73 71 68 65 66 68 67 66 67 67 69 71 71 72 72 73 72 73 73 71 71 71 71 71 71 71 70 70 68
61 65 49 52 39 39 52 54 58 64 69 73 75 77 77 76 77 79 78 75 75 73 72 68 68 68 70 70 69 69 69 70 71 71 70 71 72 72 72 71 71 71 71 71 71 71 70 67 66
56 53 55 57 52 44 44 53 66 65 71 73 76 75 77 76 76 78 79 78 76 75 73 69 67 68 69 71 70 70 70 70 70 70 71 71 71 72 71 71 71 71 71 72 71 70 68 63 60
59 57 58 48 48 51 50 52 71 68 73 73 76 76 78 79 78 78 78 77 76 74 73 70 68 68 69 71 71 70 70 70 69 69 70 71 70 71 71 72 71 71 71 71 68 62 57 57 58

GFSSGP_sfc_temp_093.txt.gz
Temp
77 89 95 90 75 77 74 76 81 78 78 85 85 81 80 83 77 70 89 88 87 87 90 83 74 74 75 75 75 75 75 76 76 75 75 75 75 76 76 76 76 76 77 77 77 76 75 75 74
94 93 92 85 71 71 76 80 75 81 83 84 83 82 81 78 89 88 88 87 87 89 87 87 73 74 75 75 74 75 76 76 76 75 75 75 75 76 76 76 75 76 76 77 76 76 74 73 72
90 93 83 80 76 71 74 79 80 83 84 83 81 85 83 81 89 89 88 87 88 88 88 85 73 73 74 75 75 75 75 75 75 75 75 75 76 75 76 75 75 75 76 76 76 75 73 71 71
90 89 85 73 72 79 76 81 82 82 85 85 85 78 87 91 87 90 88 87 86 87 88 75 69 72 74 75 74 74 75 75 74 74 75 75 75 75 75 74 74 75 76 76 75 73 71 70 69
91 87 75 73 75 81 82 83 82 79 82 81 84 77 81 90 91 89 87 85 82 84 86 83 69 69 70 74 72 73 74 73 74 74 74 74 75 74 74 74 74 74 74 74 73 71 70 69 69
82 85 72 71 76 80 82 84 82 80 83 84 80 80 83 91 87 87 84 82 81 80 82 81 73 70 71 71 68 67 67 71 73 73 73 74 74 73 73 73 73 73 72 71 71 70 69 69 69
78 79 73 74 74 77 80 85 79 80 82 82 87 79 85 88 88 83 84 83 78 78 77 75 77 77 69 69 68 66 66 66 69 72 72 72 72 72 73 73 72 71 70 70 69 69 68 68 68
84 81 73 76 73 74 84 82 86 83 82 90 89 77 78 85 85 83 83 81 78 78 77 76 76 76 75 73 65 66 66 65 68 72 71 70 71 71 71 71 70 70 69 69 69 68 67 67 67
87 73 71 74 76 77 84 79 86 88 84 86 89 85 88 88 84 82 81 80 78 73 76 75 76 76 73 70 66 67 66 65 66 71 69 70 79 77 74 73 69 69 69 68 68 67 66 66 66
78 73 74 83 82 79 83 82 83 83 82 83 86 90 89 86 84 81 79 79 76 75 73 74 75 76 73 70 68 65 64 63 65 74 73 81 78 78 79 71 68 69 68 67 67 66 65 69 75
79 71 81 83 84 83 81 81 86 82 78 83 82 85 88 84 82 79 79 79 79 77 73 72 74 76 71 67 67 65 64 65 68 74 75 78 79 77 74 73 73 72 70 73 72 70 76 77 77
73 79 81 83 85 82 79 83 80 82 82 89 89 86 85 83 81 79 79 76 80 78 73 72 71 72 73 70 68 66 65 63 66 70 75 74 76 74 75 76 75 74 77 74 75 76 79 78 78
76 78 81 84 83 83 83 79 79 81 87 90 89 84 83 83 82 78 78 78 76 76 74 70 70 70 70 70 66 67 65 65 64 66 70 72 75 75 76 77 78 78 79 78 77 78 78 77 77
80 80 79 82 82 82 78 78 81 83 89 86 83 82 84 82 82 77 74 76 71 74 71 68 66 67 67 71 68 64 67 65 64 64 66 69 70 73 75 78 80 80 80 80 80 79 78 78 77
78 72 76 78 80 79 82 75 77 86 86 82 82 81 84 84 82 78 75 76 76 70 68 64 63 64 64 68 67 68 68 65 64 65 67 67 67 72 73 77 80 82 81 79 79 78 78 78 78
70 71 64 76 81 81 79 67 82 85 83 82 81 82 82 83 81 78 76 77 75 70 66 64 63 62 64 65 67 67 65 65 64 65 65 66 68 74 76 79 79 81 80 79 77 77 76 76 77
67 60 65 72 80 78 75 71 83 85 81 80 82 83 82 82 81 79 78 77 74 69 65 63 61 64 65 65 64 64 65 65 63 64 64 65 67 71 75 78 78 77 77 76 76 74 72 74 76
56 61 66 66 76 75 73 73 80 85 84 82 83 84 83 81 81 79 78 74 72 67 63 62 63 65 63 61 61 61 62 62 63 62 63 64 67 69 74 73 72 74 72 71 71 69 73 75 75
66 66 66 72 78 71 71 73 77 82 84 82 83 83 83 82 83 79 76 73 69 65 63 64 61 62 61 62 59 59 58 60 60 61 63 64 66 68 69 70 71 70 70 67 67 67 68 71 73
65 62 63 69 75 71 69 69 77 80 82 84 84 83 83 82 80 76 74 71 66 64 62 64 65 65 64 64 64 60 59 59 60 60 61 63 64 67 67 66 67 68 66 66 67 67 67 69 69
63 60 61 63 71 72 68 65 70 79 82 84 84 85 86 83 79 76 74 70 66 64 63 64 65 66 66 63 64 63 61 60 59 60 60 63 65 68 68 68 68 67 66 68 69 68 68 66 66
57 66 64 64 63 56 71 55 68 76 78 80 81 82 83 84 82 79 75 73 66 67 67 65 65 65 66 68 66 62 62 61 62 61 62 64 67 68 68 70 68 68 71 69 64 69 68 70 69
61 66 64 64 62 61 62 58 64 75 73 77 81 83 84 85 82 79 77 75 73 67 69 67 64 64 65 66 67 65 64 62 62 61 60 63 65 66 70 72 71 69 70 69 68 70 70 71 69
68 62 62 62 61 50 59 59 60 70 74 78 80 81 84 84 82 82 80 78 75 69 67 69 65 64 64 66 66 65 62 61 62 60 59 61 63 65 67 73 71 73 72 71 71 71 70 69 70
64 57 46 39 42 46 63 58 61 75 77 79 80 81 82 83 81 80 78 76 74 69 66 68 66 63 63 64 65 66 65 64 64 62 62 60 61 62 64 66 68 71 71 71 71 70 70 69 67
60 58 48 36 40 48 63 54 63 79 82 82 82 83 84 82 81 81 80 78 76 71 69 68 67 65 64 63 64 67 65 63 64 68 67 65 63 63 65 65 67 71 72 71 71 70 70 69 67
59 53 63 52 55 49 56 63 69 76 76 78 80 81 81 82 82 81 82 79 77 73 71 70 70 70 67 65 65 64 65 65 66 67 71 70 69 70 69 68 69 71 73 72 72 70 69 69 69
62 68 52 55 41 38 52 55 58 65 71 76 77 79 82 83 82 82 83 80 79 77 74 71 72 72 71 70 67 68 66 67 69 69 69 71 71 73 73 72 72 72 71 72 71 70 71 70 69
58 56 58 60 55 45 43 53 70 68 72 74 78 79 81 83 83 83 84 83 81 79 76 72 72 74 73 71 70 69 68 69 70 70 73 71 70 71 72 72 71 71 71 72 71 71 71 70 70
61 60 59 49 49 55 52 53 73 71 72 75 76 80 81 83 84 84 85 83 81 79 77 74 73 73 74 74 72 70 71 71 71 72 71 73 73 73 73 73 73 73 73 73 71 70 71 70 69

GFSSGP_sfc_temp_096.txt.gz
Temp
76 82 87 85 69 71 68 74 81 77 79 85 85 81 78 81 75 66 86 85 87 87 79 79 74 75 75 75 75 75 75 76 76 75 75 75 75 75 76 76 76 76 77 77 77 76 76 75 74
86 90 88 80 65 63 70 80 76 81 83 85 83 82 79 76 88 86 83 86 87 88 85 81 73 74 74 74 75 75 75 76 75 75 75 75 75 75 76 75 75 76 77 77 76 76 75 74 73
79 90 78 72 69 64 70 79 79 83 85 83 81 86 82 80 88 87 87 88 88 87 88 80 72 73 74 74 74 75 75 75 75 75 75 75 75 76 76 75 75 76 76 76 76 75 73 72 71
85 85 80 67 67 75 78 81 82 81 85 86 83 77 87 92 88 90 88 88 85 87 86 72 72 72 74 74 74 75 73 75 73 74 75 75 75 75 75 74 74 75 76 76 74 73 71 70 70
86 81 69 68 70 78 84 84 83 78 81 82 84 77 79 90 92 89 87 85 82 82 81 74 70 71 70 74 74 71 69 70 75 73 74 75 75 74 74 74 74 74 74 74 73 71 70 70 70
76 79 65 64 72 81 84 85 82 80 81 83 82 79 81 90 88 85 84 82 80 79 80 73 71 70 70 72 69 68 69 66 67 70 72 74 73 73 73 73 73 73 72 71 70 70 69 69 69
73 71 67 70 71 76 81 87 80 79 80 81 87 77 82 85 84 83 84 82 78 78 77 76 76 74 70 69 69 68 68 68 68 65 66 72 72 72 72 72 72 72 71 70 69 69 68 69 68
78 74 68 70 70 73 84 85 85 82 80 89 89 76 76 81 83 83 82 80 78 77 76 75 75 74 71 69 67 67 67 67 67 67 65 70 69 71 71 70 70 70 70 69 69 68 67 67 67
85 68 64 69 73 77 85 80 86 88 83 85 87 85 88 88 85 82 80 77 76 72 74 74 72 73 72 70 67 67 68 66 65 65 63 68 72 72 71 70 69 69 69 68 68 67 66 66 67
75 67 68 78 81 79 81 81 83 81 81 82 84 88 90 90 84 80 78 76 76 73 72 71 72 71 71 71 67 65 65 65 64 64 63 70 71 72 72 69 68 68 68 67 67 66 66 68 65
76 68 75 78 82 83 81 80 85 80 76 81 81 84 88 87 83 80 79 78 78 72 69 70 70 70 69 68 66 63 63 63 62 63 61 68 71 70 68 67 67 66 67 66 65 65 68 67 66
71 77 78 79 82 81 78 83 79 80 81 86 87 88 86 84 82 81 79 79 78 72 71 70 72 70 69 67 65 64 63 61 63 63 65 68 70 68 68 67 66 66 67 65 65 66 67 66 68
74 76 80 81 81 80 82 78 78 79 85 88 88 87 84 83 83 81 80 78 76 74 69 69 69 68 68 66 65 64 63 63 63 65 66 69 70 67 69 69 67 68 68 67 66 66 69 67 68
77 78 78 80 80 80 77 78 79 81 86 85 86 84 84 83 83 80 76 75 72 74 70 67 68 68 67 66 65 65 64 63 64 65 68 70 70 68 69 69 69 69 69 70 68 69 67 67 67
76 69 73 76 77 76 79 72 74 83 86 83 84 84 83 85 84 81 76 76 76 71 67 66 64 64 65 66 66 64 65 64 63 63 64 69 70 70 70 69 69 71 70 69 67 69 67 66 68
69 69 60 72 76 78 77 64 77 85 85 81 81 82 82 83 84 82 78 77 75 70 65 63 63 62 63 66 65 64 65 64 63 63 63 65 67 70 70 69 71 71 71 70 69 66 65 64 64
64 56 60 65 78 77 75 68 78 85 82 80 81 82 82 82 83 80 76 77 74 68 66 63 63 62 63 64 65 65 64 64 63 63 64 63 65 68 70 69 68 72 71 68 69 65 64 63 63
55 58 61 60 70 75 72 70 77 82 81 79 80 81 83 81 81 79 78 74 71 67 65 63 61 63 63 62 61 63 64 64 64 63 63 64 64 67 69 66 67 67 68 64 64 63 64 63 64
63 62 61 67 75 73 71 70 74 79 80 79 81 80 81 81 83 77 76 72 69 64 62 62 61 61 61 59 58 60 60 61 61 63 64 63 64 65 66 65 66 64 64 63 63 62 62 61 63
63 59 60 67 72 70 69 68 73 76 78 80 80 81 82 82 76 74 72 70 66 63 62 63 62 62 62 61 60 59 60 60 60 60 61 62 63 64 65 64 64 64 63 62 62 61 60 61 61
62 60 59 59 66 69 67 64 67 74 78 80 81 84 85 82 76 73 71 69 66 63 61 63 64 63 62 62 60 59 59 59 58 58 59 61 62 63 64 63 63 62 63 62 61 62 61 59 59
56 67 64 61 57 50 65 52 65 71 74 78 79 81 81 82 78 74 72 68 65 63 64 65 66 65 62 64 62 60 58 56 58 59 58 59 60 61 63 64 63 62 63 62 62 64 62 62 58
60 68 64 62 55 54 56 54 60 70 69 74 78 80 80 81 78 74 73 71 68 66 65 65 65 65 64 63 63 62 61 61 60 58 58 58 60 60 63 63 61 61 62 61 61 62 61 62 61
70 65 63 60 56 44 52 53 56 63 70 76 80 81 81 81 79 77 76 74 69 66 64 65 64 64 64 65 63 63 62 60 59 59 58 59 60 61 62 64 62 63 63 61 62 62 63 62 62
65 57 44 41 40 38 57 54 59 68 75 78 77 79 80 80 78 76 74 72 70 65 65 63 63 62 63 64 64 64 62 61 60 60 60 60 60 61 62 63 62 62 63 64 64 64 63 62 60
60 57 46 36 37 44 56 49 60 72 77 81 82 82 80 79 78 77 75 73 71 65 65 65 64 63 63 64 63 64 63 63 62 62 62 61 61 62 64 64 65 63 64 64 65 62 62 61 61
59 52 61 50 52 39 47 56 67 73 74 77 78 80 78 78 77 78 76 74 71 67 65 65 65 65 63 63 64 64 64 64 63 63 63 62 62 63 62 63 64 62 65 66 63 62 61 61 61
61 66 50 52 38 36 47 47 52 64 68 74 75 77 78 78 78 78 78 74 74 70 68 66 67 66 64 64 64 65 64 63 64 63 63 63 63 64 63 62 63 63 63 64 64 63 62 62 61
57 54 56 56 52 41 39 46 60 61 66 69 73 77 77 78 78 78 79 77 76 72 70 68 68 69 66 65 64 64 64 63 64 64 65 65 64 64 64 64 64 64 65 65 64 63 63 62 62
60 57 56 46 45 51 48 49 63 66 67 70 72 76 78 80 80 79 79 77 76 73 71 68 68 69 68 67 65 64 64 64 64 64 65 66 65 66 66 67 66 66 66 66 63 62 63 62 61

GFSSGP_sfc_temp_099.txt.gz
Temp
66 67 66 67 53 50 47 57 66 66 67 72 76 74 69 69 69 57 74 79 77 75 75 75 73 74 75 75 75 75 75 75 75 75 75 75 75 75 75 76 76 77 77 78 77 76 76 75 74
69 76 68 62 49 42 50 63 63 69 75 77 78 75 70 69 75 73 73 80 78 76 75 74 73 74 74 75 75 75 75 75 75 75 75 75 75 75 75 75 75 76 77 77 77 76 75 74 73
71 76 60 54 48 46 49 66 67 71 77 75 72 76 75 72 78 76 77 79 80 78 77 75 72 73 74 74 74 75 75 74 74 74 75 75 75 75 75 75 75 75 76 77 77 75 74 73 72
70 65 63 51 50 59 63 67 70 72 75 77 76 70 75 83 80 78 80 80 78 76 75 71 71 72 73 74 74 74 74 74 74 74 75 75 75 75 75 74 74 75 76 76 76 74 73 71 71
67 61 51 47 54 64 72 73 74 72 72 75 73 70 72 77 80 79 77 78 74 71 70 71 70 72 73 74 74 75 75 73 74 73 73 74 73 74 74 74 74 74 75 75 73 72 71 70 70
59 59 46 45 56 67 73 73 75 74 74 75 72 70 70 77 78 75 75 72 72 71 70 69 71 71 71 72 73 71 70 71 70 69 69 71 73 73 73 73 73 73 73 72 71 71 70 70 70
55 51 48 52 59 64 71 74 72 73 69 71 71 65 70 71 74 75 73 71 71 71 69 68 68 70 70 69 69 68 68 70 69 69 66 66 68 71 72 72 72 72 71 70 70 70 69 69 69
62 56 51 55 58 60 73 71 75 72 69 79 78 68 66 70 74 74 72 69 69 70 69 69 69 69 67 66 67 67 66 67 68 68 68 66 64 68 71 71 71 70 70 69 69 68 68 68 68
64 51 51 55 59 65 75 70 75 76 72 74 78 76 76 76 75 71 68 66 65 67 67 68 69 71 67 65 66 66 67 66 67 67 67 65 63 67 70 70 69 69 69 69 68 68 67 67 67
61 49 56 66 69 68 73 69 73 67 67 71 73 77 76 75 73 69 67 65 64 64 65 66 67 67 67 68 64 63 64 64 63 64 63 62 64 67 69 68 68 68 68 67 67 67 67 66 62
60 57 65 68 72 72 70 69 73 68 64 71 70 73 76 73 70 69 69 68 68 67 64 65 66 66 65 64 63 62 63 64 62 62 62 62 65 67 66 66 66 65 66 64 64 65 63 63 62
59 67 69 70 74 72 69 71 70 68 70 76 76 76 77 74 71 69 69 68 65 65 63 64 65 65 64 63 62 62 61 63 62 62 62 63 65 65 66 65 63 63 62 61 61 59 61 62 64
64 66 71 73 73 71 73 69 69 69 74 78 79 79 75 75 73 70 69 68 66 64 63 63 64 63 63 63 63 62 62 61 62 61 62 61 66 65 66 63 62 63 62 62 59 59 64 62 63
68 68 69 68 68 69 70 68 65 73 75 77 78 75 74 74 73 67 68 66 66 64 62 62 63 62 62 62 62 63 62 61 62 63 63 62 66 66 64 63 63 63 64 63 60 62 60 60 62
68 60 65 67 66 66 69 64 65 74 77 76 75 75 73 75 72 68 67 66 64 62 61 60 61 62 61 63 62 63 62 63 63 64 64 65 67 68 65 63 64 64 65 63 61 62 61 60 63
59 57 50 61 66 70 66 57 71 76 75 73 75 74 73 74 72 68 68 65 62 60 60 60 63 61 62 63 61 62 62 62 63 65 65 65 67 68 66 65 64 66 66 64 64 63 60 59 60
51 46 50 56 67 66 62 59 70 75 73 71 71 71 71 70 68 69 69 64 61 60 59 59 60 60 61 62 61 61 63 61 62 64 63 65 66 68 67 66 65 66 66 63 67 61 62 58 58
44 48 53 53 63 66 61 61 67 73 69 70 69 69 68 69 67 69 66 64 60 59 59 61 59 59 61 60 60 60 60 62 61 62 63 63 64 68 68 65 63 66 65 63 64 61 59 59 60
55 53 52 57 64 64 60 61 67 69 64 64 67 67 68 70 69 67 64 61 59 58 60 59 60 60 59 59 59 59 60 61 61 61 63 62 62 64 65 64 63 61 65 66 65 59 61 58 59
55 51 51 58 63 64 59 57 64 68 67 67 66 67 68 66 66 65 61 59 57 59 60 60 61 60 60 60 59 60 61 62 62 62 62 62 61 62 65 64 62 62 62 62 60 60 57 57 58
54 52 52 53 60 64 57 53 58 68 69 71 74 71 69 66 64 63 62 58 57 60 60 60 61 59 61 60 59 59 59 59 59 60 60 60 61 62 64 64 62 60 60 61 60 61 60 57 57
49 59 59 59 55 44 58 40 53 62 66 69 72 73 67 66 66 64 61 57 57 60 62 62 62 61 61 59 59 59 57 57 59 59 60 59 60 61 62 63 63 62 61 60 61 62 59 59 57
54 59 59 59 53 46 48 44 47 60 61 67 66 69 70 67 66 62 62 60 59 60 62 63 62 61 61 61 60 60 58 58 59 58 58 58 59 60 62 63 62 61 61 60 60 60 61 60 57
64 57 57 57 49 39 47 46 42 52 60 68 72 73 71 67 66 65 64 61 58 59 61 62 62 60 61 62 62 61 58 57 55 57 57 57 58 59 60 62 61 61 60 60 60 60 60 60 59
57 50 36 35 32 33 52 47 48 59 66 69 70 70 69 68 66 65 61 60 58 58 61 62 61 60 61 61 60 61 58 58 57 57 57 57 56 57 58 60 60 60 61 62 61 60 60 60 57
52 51 37 30 30 35 52 41 48 65 70 73 76 70 68 67 67 66 63 61 59 59 59 62 61 60 61 61 61 62 60 59 59 59 59 59 58 59 61 61 62 62 62 61 60 59 60 60 59
52 46 55 46 46 35 41 48 56 62 66 69 70 69 66 68 67 66 65 63 60 60 59 60 61 62 61 62 62 62 61 59 59 60 61 61 61 62 61 62 62 60 62 61 60 59 60 60 58
57 59 45 47 34 30 41 43 44 53 59 64 66 68 68 69 68 68 66 64 61 61 61 59 61 63 62 62 62 63 62 61 60 60 60 61 61 62 62 62 62 62 60 61 61 60 60 60 58
50 50 51 51 44 33 31 40 53 55 58 58 64 69 66 67 70 69 68 67 63 62 61 60 60 60 60 63 63 63 62 61 62 60 60 62 61 61 61 62 62 62 60 58 59 60 60 58 58
57 52 51 40 39 42 41 42 62 59 61 62 62 64 71 70 69 71 69 68 65 63 62 61 61 61 60 61 63 63 62 60 59 60 61 62 61 60 61 61 62 61 61 61 59 58 61 58 57

GFSSGP_sfc_temp_102.txt.gz
Temp
63 64 64 64 52 47 43 52 59 63 62 69 73 71 68 67 66 56 72 75 73 72 74 73 73 74 74 74 74 75 75 75 75 75 75 75 75 75 75 75 75 76 77 77 77 76 76 75 74
66 71 65 57 46 39 45 55 60 65 71 72 73 72 68 63 71 71 71 74 75 73 73 73 73 73 74 74 74 74 75 75 75 75 75 75 75 75 75 75 75 76 77 78 77 76 76 74 73
69 72 58 51 43 42 46 59 61 68 72 71 69 72 72 68 72 73 75 75 74 73 73 73 72 73 74 74 74 74 74 74 74 74 75 75 75 75 75 74 75 76 77 77 76 76 74 73 72
67 62 58 48 46 52 55 62 67 68 68 72 72 68 71 75 74 76 77 76 73 73 73 71 71 72 73 74 74 74 74 73 73 74 74 75 75 75 74 74 74 75 75 76 76 75 73 71 71
62 55 47 43 47 55 63 67 71 69 69 72 70 67 68 71 76 76 75 74 70 69 70 70 70 71 73 74 74 73 73 73 73 73 73 73 73 73 73 73 74 74 74 75 74 73 71 70 70
56 54 43 41 49 59 64 71 70 70 70 71 68 67 64 73 75 73 72 70 69 68 69 69 71 71 72 73 73 72 73 73 73 72 69 69 71 69 72 73 73 73 73 73 72 71 71 70 70
52 48 42 44 52 57 64 71 69 69 67 68 72 63 66 70 71 71 70 69 68 68 67 67 68 70 70 70 70 70 70 71 70 70 68 68 68 68 69 71 72 72 71 71 70 70 70 69 69
57 52 43 47 50 52 66 69 70 67 67 74 75 64 61 69 70 68 68 67 67 66 66 66 66 67 67 67 68 67 68 69 67 69 67 66 67 67 67 70 70 71 70 70 69 69 69 68 68
59 47 42 47 53 58 68 65 71 71 68 70 74 72 73 73 70 66 63 63 64 65 65 65 66 66 66 65 67 67 68 68 67 68 67 66 66 67 67 70 69 70 69 69 68 68 68 67 66
55 45 50 58 61 62 68 61 69 64 67 68 70 70 72 71 69 65 63 62 62 62 63 64 65 65 65 67 64 65 65 66 66 65 65 65 64 64 66 67 68 68 68 68 68 68 67 66 65
54 53 60 63 65 65 66 63 66 63 61 68 68 66 68 69 67 66 66 65 65 65 63 63 64 64 65 64 63 62 63 62 62 62 62 63 62 64 65 66 66 66 66 64 64 65 65 63 62
53 61 62 65 68 65 64 69 66 65 68 73 73 73 69 68 66 66 65 64 63 63 62 62 63 63 63 63 62 62 62 62 60 61 61 61 62 62 65 65 64 63 62 60 59 61 61 61 62
57 61 65 67 67 67 68 64 65 66 71 73 74 75 68 68 68 66 67 64 63 62 62 61 62 62 62 62 62 61 61 63 63 62 62 62 64 64 65 65 64 61 59 60 58 58 60 61 62
63 62 64 64 64 64 64 64 60 68 69 72 73 72 70 70 69 64 64 62 62 63 61 61 61 61 61 61 63 62 61 62 62 62 62 63 63 65 65 63 61 59 59 59 58 58 59 60 62
63 57 59 60 60 61 64 59 60 69 71 70 72 71 70 69 67 68 66 64 63 62 61 60 60 60 61 61 62 63 62 61 61 62 62 63 65 65 63 61 60 60 59 58 57 58 59 59 63
56 53 46 58 60 64 58 52 64 71 68 68 70 73 69 68 68 66 66 63 62 61 60 59 61 60 61 60 60 63 62 62 62 62 62 63 66 65 63 62 61 61 60 60 60 60 58 59 60
47 46 46 51 61 60 58 54 63 68 68 69 70 71 69 65 65 65 64 61 60 60 58 58 58 59 60 62 59 62 61 62 62 64 62 64 64 64 63 63 62 62 62 60 62 60 61 58 57
43 44 48 46 55 59 55 56 61 65 65 67 65 65 64 62 64 65 62 61 59 58 58 58 57 58 61 61 59 60 61 61 62 63 63 64 64 65 64 63 61 63 62 60 61 59 57 57 58
52 48 46 48 58 55 54 54 56 60 61 61 62 63 64 61 65 62 61 59 57 57 57 57 57 59 59 58 58 58 59 60 61 62 64 64 63 65 65 64 63 63 62 61 60 59 59 55 57
51 47 47 53 58 57 55 55 56 60 61 64 65 63 63 60 61 60 58 57 57 57 56 56 57 60 60 59 58 58 59 61 61 61 63 63 62 64 66 65 65 63 63 60 60 59 55 55 56
49 47 47 48 55 58 53 52 54 60 62 67 71 66 64 62 59 58 57 56 55 56 56 57 57 59 59 60 59 59 59 61 59 60 59 61 61 63 66 64 64 63 64 62 62 62 60 60 56
44 54 53 52 48 41 53 39 51 56 59 64 68 70 61 62 62 59 57 55 55 56 57 57 57 57 58 60 59 58 59 59 60 60 60 58 59 60 63 62 63 63 63 61 63 63 60 59 58
48 55 53 52 47 42 44 40 43 54 54 59 65 70 61 62 62 59 57 57 56 57 57 57 57 57 58 59 60 58 58 59 60 60 58 58 59 60 61 62 60 60 61 59 60 60 58 59 56
59 52 52 51 45 36 43 42 41 46 55 59 67 71 65 62 62 61 59 57 55 56 58 57 57 57 59 59 60 59 57 57 57 58 57 57 58 59 60 60 60 59 59 58 59 59 59 58 57
51 44 34 32 30 32 47 43 47 55 62 63 65 69 70 67 61 58 55 55 55 55 57 58 57 58 59 59 60 59 58 58 58 58 57 57 57 57 58 59 58 59 59 59 59 59 59 59 57
47 45 32 29 27 33 48 38 45 58 63 66 68 67 63 61 61 59 57 56 56 56 57 58 58 59 60 60 57 59 60 59 59 59 59 58 58 57 58 60 61 60 61 59 59 59 58 59 57
48 43 50 39 39 32 38 44 53 59 59 62 66 65 61 61 61 59 59 57 57 57 57 57 58 60 60 60 60 59 59 58 59 60 60 59 59 58 57 58 59 60 60 60 59 59 58 58 58
51 54 41 40 31 28 35 38 41 50 54 59 61 60 62 63 63 61 60 58 58 58 59 58 59 61 61 61 61 61 59 58 58 59 59 59 58 58 57 58 60 60 60 61 60 60 59 58 58
45 46 45 45 39 33 28 35 51 51 55 56 57 62 61 62 62 63 62 60 59 59 58 58 59 60 61 61 61 61 60 59 57 58 58 59 59 59 60 60 60 59 57 59 60 59 59 58 58
48 47 48 36 35 38 35 38 57 54 58 57 56 62 64 64 65 65 65 61 59 58 58 58 59 60 61 62 61 61 61 60 58 57 57 59 58 58 59 61 61 60 59 58 58 59 60 58 57

GFSSGP_sfc_temp_105.txt.gz
Temp
63 62 62 63 51 45 41 49 54 58 59 67 69 67 66 64 64 55 69 73 72 71 72 72 72 73 74 74 74 75 75 75 75 75 75 75 75 75 75 75 76 76 77 77 77 77 76 76 74
63 67 62 54 45 38 45 51 55 61 68 69 69 68 64 64 68 68 69 73 72 72 72 72 72 73 74 74 74 74 75 75 75 75 75 75 75 75 75 75 75 76 78 77 77 76 75 74 73
68 68 57 48 40 40 46 55 59 66 68 66 65 69 68 66 70 70 73 73 72 71 72 72 72 72 73 73 73 74 75 74 74 74 75 75 75 75 75 74 75 76 77 78 77 76 74 72 72
64 61 55 45 41 48 52 58 61 65 67 68 68 64 68 71 72 73 73 73 71 70 72 71 71 72 73 73 73 73 73 73 73 74 74 75 75 75 74 74 74 75 77 77 76 74 72 71 70
59 53 45 39 42 51 58 63 65 65 65 69 67 64 65 71 73 73 72 74 70 68 69 70 69 71 73 73 73 73 73 73 73 73 72 73 74 73 73 73 74 74 75 75 74 72 71 70 70
54 51 41 38 45 54 59 65 64 65 67 69 65 64 64 70 71 71 70 69 69 68 68 69 70 71 72 72 72 72 72 72 72 71 70 71 71 70 73 72 72 73 73 73 72 70 70 70 70
51 45 40 40 47 53 60 66 65 65 63 67 67 61 64 66 67 68 68 67 67 67 67 67 68 70 70 70 70 70 70 70 71 70 70 69 68 69 70 70 72 72 72 71 70 70 69 70 69
54 49 39 44 47 50 61 63 66 64 66 73 72 61 61 67 67 67 66 65 65 66 65 65 66 67 67 68 69 69 69 68 68 68 68 68 68 67 69 68 70 71 71 70 70 69 69 68 68
55 45 40 45 49 54 63 62 65 69 65 67 68 67 69 68 66 64 63 62 62 63 64 64 65 65 65 65 66 68 68 68 67 67 66 66 67 67 67 68 69 71 70 69 69 68 67 66 67
52 42 48 54 57 57 62 57 64 62 63 65 67 67 67 67 66 64 61 61 61 62 62 63 64 64 64 65 65 64 66 66 67 67 66 65 65 66 67 67 68 70 68 68 68 67 66 66 64
51 50 57 58 61 60 60 58 62 59 61 64 67 66 64 64 64 65 64 63 64 63 62 62 63 63 64 63 64 64 65 65 65 65 64 64 64 65 63 64 66 66 67 65 65 64 62 62 64
50 55 62 60 63 59 59 61 61 61 67 72 70 69 65 64 64 64 64 62 62 62 62 62 62 64 65 63 62 62 64 63 62 64 64 62 62 62 62 65 66 64 64 61 61 59 60 60 61
53 56 61 62 62 61 63 60 62 63 68 70 70 68 64 66 66 67 67 63 62 61 61 61 61 62 63 63 62 61 62 62 61 62 62 62 61 62 63 65 64 64 60 61 60 60 59 60 62
58 59 60 61 61 61 61 62 58 65 65 69 69 67 64 66 66 64 63 62 62 63 61 60 61 61 61 61 62 62 62 63 62 61 61 62 63 63 63 64 64 61 62 60 60 60 61 59 60
59 53 56 56 58 57 59 53 55 66 66 66 67 68 66 66 67 64 68 66 64 63 61 60 60 60 60 60 63 62 61 62 62 62 62 62 64 63 65 65 63 61 60 57 56 57 57 57 61
54 51 44 55 59 61 58 52 61 66 63 64 65 67 68 64 67 68 68 66 62 61 60 59 61 59 59 59 63 63 63 61 61 62 62 62 63 65 63 63 61 59 59 59 59 58 56 59 59
46 41 44 50 59 57 56 50 58 62 62 62 63 65 67 63 64 64 64 61 61 61 60 59 58 58 58 59 59 62 62 61 62 62 61 62 62 64 63 62 60 59 59 59 59 54 57 58 57
41 41 46 46 53 55 52 53 56 60 59 60 60 62 60 60 64 64 59 59 60 59 59 58 57 57 58 59 59 61 61 61 63 62 62 61 63 62 62 61 59 60 59 57 58 58 54 56 57
50 45 43 46 56 53 50 51 54 57 58 56 59 60 60 59 58 60 58 57 57 57 56 56 56 56 58 59 58 58 59 60 61 62 62 63 62 62 61 61 60 59 60 59 58 57 56 53 56
46 45 44 48 54 53 52 51 57 56 57 59 60 60 60 55 56 58 56 56 56 56 56 56 56 57 58 58 57 59 59 60 60 61 62 61 61 62 62 61 61 59 60 57 59 58 53 53 56
45 43 43 45 52 51 47 47 52 57 57 61 62 63 62 59 57 58 56 56 56 55 55 56 57 57 58 60 59 58 58 60 59 60 62 61 60 62 62 62 62 61 61 59 59 59 55 57 52
41 49 49 47 44 37 48 37 47 53 57 59 61 61 60 59 61 60 58 54 55 55 55 56 58 56 57 58 58 59 58 58 59 59 60 61 60 61 62 63 63 62 62 61 61 62 58 58 56
45 52 48 47 42 37 43 37 42 50 51 56 62 60 61 60 60 60 58 57 55 55 56 56 57 55 56 59 59 57 58 60 60 58 58 59 60 60 61 61 61 60 61 60 61 60 58 61 58
54 47 46 43 40 31 41 40 39 43 52 55 61 63 64 60 60 61 59 56 55 55 55 55 57 58 56 57 59 59 58 58 59 58 56 58 59 59 60 61 60 59 59 58 58 59 59 60 58
48 41 30 28 28 30 44 40 46 51 57 57 58 61 64 61 57 59 54 54 55 55 55 56 57 57 56 60 59 58 58 59 59 59 57 56 57 58 59 60 59 59 59 59 58 58 58 57 56
43 42 31 27 27 31 44 35 43 55 57 59 62 61 62 62 62 59 55 56 55 55 55 57 57 57 57 56 58 59 59 59 59 60 59 58 58 59 59 60 59 59 59 59 58 57 57 57 57
45 37 48 38 35 31 36 42 51 53 56 57 57 59 59 59 58 57 56 55 55 55 55 57 57 56 57 57 58 58 58 58 59 59 59 59 59 58 59 59 59 58 59 59 59 58 57 57 57
49 51 38 37 30 29 33 35 39 47 52 55 55 56 57 61 59 58 55 55 56 56 56 57 57 57 57 58 57 57 57 59 59 59 58 58 58 58 57 57 57 57 58 58 58 57 57 57 57
41 41 42 44 36 33 29 33 46 48 50 51 57 56 57 56 55 57 58 56 56 55 55 56 56 57 57 58 58 57 58 58 56 58 59 58 58 58 57 57 57 57 57 57 57 57 57 57 58
43 44 45 34 33 34 33 34 48 49 51 52 54 55 57 58 59 57 59 56 56 57 57 54 56 57 58 58 58 58 59 58 56 57 59 58 57 58 57 57 57 57 58 58 58 58 58 58 57

GFSSGP_sfc_temp_108.txt.gz
Temp
63 61 60 61 51 44 40 47 51 55 56 64 65 64 64 62 62 54 68 70 71 69 71 71 73 73 73 74 74 74 75 76 76 76 75 75 76 76 76 76 76 77 78 78 78 78 77 76 75
61 64 61 52 44 38 43 49 52 58 65 66 66 64 62 60 66 67 68 71 71 70 70 71 72 73 73 74 74 74 75 76 76 75 75 75 75 75 75 75 75 76 78 78 78 77 76 74 73
65 65 56 47 37 39 44 53 56 60 66 64 62 66 65 64 68 68 71 72 71 70 70 71 71 72 73 73 74 74 75 74 74 75 75 75 75 75 75 75 75 76 77 77 77 76 74 72 71
62 59 53 44 39 46 50 54 58 62 65 65 65 63 65 70 71 72 73 71 70 69 70 70 70 71 72 73 73 74 74 73 73 74 74 74 75 75 74 74 74 76 76 76 76 74 72 71 70
56 52 43 37 40 48 55 58 60 61 62 66 64 63 64 69 71 72 70 71 69 67 69 69 69 71 72 73 74 73 73 72 73 74 75 74 75 74 74 73 73 74 76 75 74 72 71 70 70
53 49 39 37 42 51 57 62 60 61 62 65 62 62 65 66 68 68 68 67 68 67 68 69 70 71 72 72 72 72 72 72 72 72 71 71 72 72 73 71 73 73 74 72 71 71 70 70 69
50 44 39 38 43 48 56 62 60 61 58 61 62 61 65 66 67 67 66 66 67 67 67 67 68 70 70 70 70 70 69 70 71 70 70 71 70 70 71 72 73 73 72 71 70 70 69 69 68
51 48 36 41 44 48 59 59 61 60 59 67 66 61 62 64 65 65 65 65 65 65 66 65 66 67 69 71 69 69 68 69 69 69 68 68 69 69 70 71 71 72 71 71 70 69 69 68 67
51 42 38 43 46 52 59 57 62 63 61 63 66 66 67 65 65 63 62 61 61 63 64 64 65 65 67 69 68 69 66 69 68 68 68 66 67 68 69 69 71 71 70 69 69 68 68 67 66
50 40 44 51 54 54 58 53 59 59 59 60 64 66 64 62 63 62 61 61 60 61 62 63 64 64 64 65 65 66 67 67 67 67 66 66 66 65 67 67 69 70 69 69 68 67 67 65 63
48 46 51 54 57 56 56 55 57 55 56 61 63 65 61 61 61 63 64 63 63 62 62 63 63 63 63 65 65 65 66 66 67 66 65 65 66 65 65 65 67 67 68 67 65 65 62 61 62
47 51 57 55 59 54 56 56 57 58 63 68 67 65 63 61 61 63 63 62 61 61 62 62 62 63 65 64 64 65 65 65 65 65 65 63 64 64 63 63 65 66 65 63 62 62 58 59 59
50 52 56 58 59 57 59 57 57 58 66 66 67 65 64 62 63 65 66 63 61 60 61 61 61 64 64 63 63 63 64 64 65 64 64 64 63 63 63 65 65 65 64 62 60 59 59 58 59
54 54 58 58 57 57 58 60 53 61 61 65 66 65 63 62 64 64 61 61 60 63 62 61 61 62 64 63 62 62 63 62 62 63 63 63 63 63 63 65 65 61 63 62 62 61 59 59 60
56 50 53 53 54 55 57 50 52 63 63 63 64 64 63 63 65 63 66 66 65 63 61 60 60 60 62 63 63 62 62 62 61 62 62 63 63 63 64 64 63 63 63 60 60 57 59 58 60
50 49 42 51 55 58 59 50 56 63 60 60 62 63 63 63 64 67 69 68 64 60 60 60 61 60 59 60 63 62 62 62 62 62 62 62 63 63 64 64 63 62 61 60 60 58 56 57 58
43 38 40 47 56 56 56 52 54 58 59 59 60 59 61 61 61 63 67 66 60 61 60 60 59 59 58 58 62 62 62 62 62 62 62 62 62 63 64 64 63 60 60 60 61 57 57 56 55
37 38 42 42 49 53 49 51 53 58 55 56 57 60 58 60 63 61 60 58 59 60 60 60 59 58 57 58 60 62 62 61 62 62 62 62 62 63 63 63 61 60 59 58 60 56 54 56 56
46 42 40 42 51 48 48 49 50 54 53 53 55 56 58 58 60 56 55 56 57 58 58 58 58 56 59 59 59 60 60 60 61 62 62 62 62 63 63 61 59 59 59 58 58 57 56 52 56
44 43 43 44 51 51 50 50 55 53 54 56 57 59 58 57 58 56 54 55 58 59 58 57 58 57 59 61 60 60 59 60 61 61 62 62 61 63 60 59 59 59 58 57 58 58 52 52 56
43 42 42 42 46 49 43 45 51 54 53 57 59 59 59 60 60 56 54 55 56 57 57 57 57 59 58 57 59 57 59 59 59 60 61 61 61 60 60 59 58 59 59 57 58 58 56 55 52
39 46 46 43 40 33 43 33 41 49 53 55 58 58 58 58 60 58 55 54 56 58 57 56 58 59 56 57 57 56 57 58 59 59 61 60 60 60 60 60 59 59 60 58 59 60 55 59 54
43 49 45 43 38 34 37 33 37 47 48 56 58 57 58 58 59 59 56 57 58 57 55 58 59 57 55 56 58 58 58 59 59 58 59 58 58 59 60 60 59 59 60 59 60 57 57 60 56
50 45 44 40 37 28 36 35 33 40 48 54 55 57 58 58 59 58 57 55 57 56 57 58 57 57 54 56 58 58 57 58 58 57 57 57 58 58 58 60 60 59 59 58 58 59 58 60 60
46 39 29 26 26 28 40 35 41 48 53 55 53 55 56 57 55 54 54 53 55 55 56 57 57 57 57 55 58 58 57 59 58 57 57 58 57 58 58 59 59 58 58 58 58 57 57 57 57
41 42 31 27 25 30 40 32 41 52 56 58 56 55 56 55 57 54 54 53 56 56 56 57 57 57 57 58 58 58 59 59 59 59 58 58 59 58 58 58 59 58 58 58 58 57 56 56 55
40 37 45 35 34 30 33 38 48 51 52 54 53 53 53 55 54 55 54 54 57 57 56 58 58 59 58 58 58 58 58 58 59 59 59 59 59 59 59 58 58 59 59 58 58 57 56 56 56
44 47 35 34 28 27 30 32 37 44 49 51 50 50 52 55 55 55 55 53 57 56 58 58 58 58 58 58 59 58 58 58 59 59 59 58 58 59 59 58 59 58 58 59 58 57 57 56 56
38 37 39 39 33 29 27 31 43 45 47 47 48 52 52 54 54 55 56 55 56 56 57 58 57 57 57 58 55 54 54 58 58 58 58 58 58 58 59 59 59 58 58 59 58 58 57 57 56
41 39 42 32 32 32 32 33 45 46 48 49 49 52 53 55 54 57 56 55 54 54 56 57 57 58 58 58 56 54 54 55 54 57 57 58 57 58 57 57 58 58 58 58 58 57 57 57 56

GFSSGP_sfc_temp_111.txt.gz
Temp
70 72 75 75 65 62 58 61 64 65 68 73 75 73 74 75 69 67 80 81 79 80 79 77 73 75 74 74 74 75 76 76 76 76 75 75 76 76 76 76 77 77 78 78 78 78 77 77 75
71 73 73 67 61 57 61 62 63 69 73 74 74 74 74 74 76 78 81 80 81 80 79 79 73 74 74 74 74 75 76 76 76 75 75 75 76 76 76 76 76 77 78 78 78 77 77 75 74
74 73 71 64 56 57 61 64 69 71 73 73 74 77 76 77 78 81 85 82 80 79 79 78 72 73 73 73 74 74 75 75 75 75 75 75 75 76 76 75 75 76 77 78 78 76 75 73 72
73 72 66 60 57 59 62 68 68 69 74 75 76 73 78 82 81 83 83 82 79 78 78 73 70 72 73 73 73 74 75 74 74 74 75 76 75 76 75 75 75 76 77 77 77 75 73 71 70
70 67 60 55 55 59 64 67 68 69 70 73 75 73 75 80 81 81 81 79 78 77 77 75 70 71 73 74 74 73 73 73 73 75 75 76 75 73 75 74 74 74 75 75 74 72 71 70 70
66 64 56 54 56 59 65 69 69 68 69 71 72 72 77 79 78 79 78 77 77 75 75 75 72 71 72 73 74 72 72 70 71 73 73 72 70 73 74 73 73 73 73 72 71 70 70 70 69
64 60 55 53 54 58 64 70 69 70 70 70 75 72 78 78 77 75 77 76 76 76 75 75 75 74 70 70 71 70 71 71 71 71 71 72 72 72 73 73 73 73 72 72 70 69 69 69 68
65 63 52 54 58 59 67 70 72 72 71 76 77 72 74 77 73 74 75 76 75 75 75 75 75 75 75 75 69 69 69 69 69 69 68 69 70 70 71 71 72 72 72 71 69 68 68 67 67
62 57 52 57 55 63 68 67 71 74 72 73 77 76 78 76 72 73 72 72 72 72 73 74 73 73 73 73 73 69 68 69 68 69 68 68 73 74 73 70 71 71 71 70 68 68 67 66 66
62 55 55 61 63 64 66 66 68 70 69 70 72 76 77 72 72 73 72 72 71 71 69 73 73 71 70 72 71 73 71 71 71 72 72 73 72 73 75 72 69 70 70 69 68 68 66 69 75
60 56 59 62 64 66 66 66 69 68 67 70 71 75 77 73 72 71 74 75 74 74 72 71 72 73 70 70 68 69 68 68 69 70 72 71 71 72 71 68 70 70 70 72 70 70 71 74 75
55 57 63 66 65 65 64 66 66 67 71 76 75 75 74 75 73 73 72 75 73 72 72 72 72 71 70 69 67 67 67 67 66 67 68 70 70 71 71 67 70 68 70 69 72 68 68 72 73
55 58 61 64 64 64 66 64 64 65 73 74 73 73 73 74 74 73 75 76 73 71 72 71 71 71 68 67 66 66 66 67 66 65 66 67 70 69 69 71 67 69 67 68 65 70 68 71 71
61 60 62 64 64 63 62 64 65 68 71 71 70 73 76 73 76 76 73 72 71 72 71 71 70 69 68 67 66 66 66 67 68 65 65 66 66 67 70 70 70 65 67 66 67 70 67 71 71
60 55 59 60 62 62 63 59 59 70 71 69 71 73 74 74 75 74 77 75 76 73 72 70 69 68 67 67 66 65 65 65 65 66 65 66 65 65 68 69 65 68 69 66 67 69 70 70 71
55 55 49 58 60 62 64 55 65 71 67 69 68 70 72 74 75 78 77 78 79 74 71 70 69 66 66 66 67 65 64 64 63 63 63 65 66 66 66 68 65 67 67 67 68 69 69 68 67
51 46 47 52 60 61 60 58 65 68 66 67 69 70 71 72 75 75 76 76 77 73 70 68 68 67 64 65 65 64 65 64 63 63 63 63 64 64 65 69 66 67 65 68 66 68 68 66 67
44 45 47 49 58 58 58 57 62 66 65 66 67 68 70 71 74 77 74 72 72 70 69 69 68 68 64 64 64 64 65 64 65 64 63 63 63 63 63 66 66 64 63 64 68 65 68 68 68
51 48 47 52 58 56 56 57 61 64 64 63 67 68 70 71 76 74 69 66 67 67 67 67 66 65 64 62 61 62 61 62 62 63 63 63 63 62 63 62 61 62 62 63 66 65 64 63 67
49 47 47 52 56 55 55 55 61 63 63 66 66 68 69 71 72 73 69 62 62 63 66 65 66 64 65 65 63 67 63 62 63 64 64 65 63 63 63 61 60 60 60 61 63 65 64 64 66
47 45 46 46 53 55 52 51 56 63 64 65 66 67 70 68 69 72 70 64 61 62 61 62 64 63 65 67 65 62 63 62 61 62 63 63 63 63 62 62 61 60 60 59 61 65 65 62 64
43 50 49 48 46 41 52 42 53 59 61 61 65 64 64 65 67 70 70 67 62 62 62 62 63 63 63 64 64 61 62 62 62 62 63 61 62 62 61 60 61 60 60 60 61 66 67 65 62
46 52 49 48 45 45 47 42 49 54 56 59 61 61 62 64 64 66 70 70 66 64 60 61 65 63 61 62 62 61 62 63 62 61 61 61 61 60 59 59 58 59 59 61 61 63 66 67 65
53 50 48 46 45 35 43 43 45 53 57 57 58 60 61 63 64 65 66 66 65 64 59 62 64 61 60 63 62 62 62 62 61 60 59 59 58 57 57 57 57 58 58 60 62 63 66 66 66
50 46 36 33 32 34 45 41 48 55 58 59 57 58 60 62 63 63 63 62 62 58 58 61 62 58 60 63 64 64 63 62 63 61 59 57 56 55 55 56 56 58 61 62 61 62 63 65 65
45 45 36 28 30 37 44 38 47 59 63 60 58 60 61 61 62 62 62 62 61 58 58 59 59 58 60 62 64 65 64 63 63 61 61 58 58 56 57 57 59 61 61 61 61 60 61 63 61
44 40 51 40 40 37 42 47 54 56 56 57 56 58 58 59 60 61 62 61 61 59 58 58 59 60 59 62 63 62 61 62 60 61 61 60 59 57 57 57 59 60 60 61 61 60 59 59 59
49 53 38 41 31 30 38 41 46 49 51 54 54 55 57 59 59 60 60 60 61 59 58 59 61 60 60 61 61 61 60 61 61 60 60 60 59 58 57 57 58 59 58 60 61 60 60 60 60
45 43 46 46 41 35 34 40 51 51 54 54 54 55 56 57 58 58 58 58 58 58 58 58 59 59 59 59 60 59 59 61 60 59 59 60 59 59 58 57 57 57 57 57 58 58 58 59 60
49 46 47 40 36 41 42 42 51 52 54 55 54 55 57 59 59 59 57 57 56 57 57 57 58 58 60 59 60 60 60 60 60 58 59 59 58 59 59 58 57 57 56 57 58 58 58 58 57

GFSSGP_sfc_temp_114.txt.gz
Temp
75 87 91 87 74 75 72 74 80 77 77 84 86 83 82 85 79 75 92 95 93 93 90 81 73 75 74 75 75 75 76 76 76 76 76 76 76 76 76 76 77 77 78 78 78 78 77 77 75
88 86 88 86 71 68 73 79 75 81 81 82 83 82 82 81 87 89 90 93 93 94 90 88 72 74 74 74 74 75 76 76 76 76 76 75 76 76 76 76 76 77 78 78 78 77 77 75 74
86 86 82 77 73 70 73 78 81 81 82 82 82 87 85 84 90 93 98 94 94 92 92 87 73 73 74 74 74 75 76 75 75 75 76 76 76 76 74 75 76 76 77 78 77 77 75 73 72
85 85 82 70 70 76 76 81 81 79 82 85 86 80 88 92 92 95 97 95 92 91 91 75 71 72 73 74 74 75 75 74 74 73 76 76 76 76 75 75 75 76 77 77 76 75 73 71 71
87 84 72 69 72 78 79 81 79 77 79 81 85 80 83 90 95 93 94 94 90 89 88 80 70 72 73 74 74 74 74 73 74 74 74 76 71 70 69 72 74 75 75 76 74 73 71 70 70
78 80 68 67 73 76 79 83 81 79 81 82 80 82 85 93 91 91 92 91 89 86 85 82 73 72 73 73 73 73 73 73 73 74 74 73 71 72 71 74 74 74 73 73 72 71 70 69 69
74 73 68 71 72 72 77 83 78 79 80 81 85 80 87 89 88 86 89 90 88 86 83 82 81 77 71 71 71 70 71 71 71 72 72 72 71 71 73 74 73 73 72 72 71 70 69 69 68
78 75 68 71 69 72 79 80 83 81 80 85 86 79 81 85 86 86 87 87 87 86 84 83 83 81 79 79 70 69 70 70 70 70 70 68 69 70 72 71 72 72 71 71 70 69 68 68 67
78 67 65 68 70 73 77 76 81 84 82 82 85 83 86 88 86 86 84 84 84 83 84 84 83 82 79 78 77 70 70 69 68 70 69 69 79 78 77 75 70 71 70 70 69 68 67 66 66
70 66 68 76 76 74 76 78 79 78 80 80 82 85 88 89 87 85 84 83 82 82 82 85 83 82 77 76 77 78 80 80 80 79 78 81 79 81 81 76 69 70 70 68 68 67 66 69 77
71 64 74 74 75 77 76 77 82 77 76 81 81 83 87 87 87 85 87 87 87 86 83 83 83 81 75 76 76 79 76 79 78 79 78 79 78 79 80 80 78 74 69 76 72 71 78 77 77
63 71 72 74 76 73 72 78 75 77 79 85 85 85 85 85 86 87 87 88 89 87 84 82 83 81 74 74 76 77 71 73 71 74 75 74 76 76 79 81 80 77 69 72 74 74 76 77 79
65 68 73 73 73 74 75 72 73 76 83 85 85 83 84 86 87 88 89 90 89 86 84 82 83 81 75 72 73 75 72 70 70 70 72 72 76 76 80 80 79 77 72 67 69 73 75 75 77
71 70 71 73 72 74 70 71 74 77 81 80 81 81 85 86 88 89 89 87 86 86 84 83 82 81 77 74 73 72 74 72 69 69 72 73 74 72 76 74 76 71 70 67 69 67 74 75 77
68 62 67 70 71 70 74 67 70 79 81 79 80 82 84 87 89 88 89 90 90 88 85 83 81 81 77 77 76 74 75 75 68 68 70 72 71 70 73 74 74 75 71 70 67 66 72 75 78
62 64 57 69 70 71 70 62 74 78 78 77 78 80 82 85 87 90 91 91 92 91 87 84 83 79 75 76 76 76 74 73 71 68 68 69 69 70 70 70 72 72 68 69 66 67 73 76 77
61 53 58 62 69 69 67 64 75 77 77 77 79 80 82 84 86 89 91 91 91 89 88 82 80 78 74 76 74 72 72 70 69 67 68 70 69 68 69 68 71 70 67 70 68 66 74 75 77
53 54 56 56 66 68 64 65 72 76 75 75 78 80 81 82 85 89 90 90 88 86 85 82 79 78 72 71 68 70 71 69 68 67 66 67 67 68 66 65 66 67 66 70 69 68 74 75 75
58 57 57 62 67 63 63 65 70 75 75 74 75 76 79 80 86 89 89 87 83 82 81 79 77 77 68 67 65 66 67 66 69 71 66 64 65 65 65 64 64 65 65 70 69 71 72 71 74
56 54 55 61 65 61 60 62 69 73 73 75 75 76 79 81 84 86 86 84 79 80 78 78 79 77 68 68 72 72 66 66 67 67 66 66 64 64 64 63 63 63 66 65 66 70 71 70 74
54 52 54 55 61 63 60 57 63 70 74 75 77 78 80 80 81 81 83 83 81 77 77 78 79 78 72 75 71 74 73 68 68 67 66 65 65 64 63 63 62 62 63 63 64 69 71 68 71
49 60 57 54 53 48 62 49 63 65 67 71 74 76 76 77 78 80 82 83 81 77 76 75 77 76 74 76 73 73 72 70 70 71 70 66 70 68 64 63 61 61 61 62 63 66 68 71 68
53 60 56 54 52 52 54 50 59 66 63 68 72 72 73 74 76 77 80 83 83 77 72 68 71 71 73 75 76 74 73 74 70 72 71 69 67 65 65 63 61 61 60 61 61 64 66 69 73
60 55 55 55 53 42 51 51 55 61 64 69 68 69 70 72 74 76 77 78 79 74 67 65 68 67 68 70 74 73 70 68 68 69 67 66 64 63 61 61 61 60 60 59 61 62 65 71 72
56 50 40 38 39 39 55 50 55 64 66 68 66 66 69 72 73 74 75 76 76 72 65 63 67 65 63 66 69 71 69 66 66 66 69 64 60 58 58 59 58 59 59 59 60 61 63 68 70
52 50 41 33 37 43 53 45 55 68 71 68 67 67 69 70 72 72 72 72 70 66 65 63 65 64 63 67 68 69 68 69 69 72 70 63 60 58 58 57 57 58 58 59 59 60 61 65 68
51 47 56 47 50 44 51 55 63 66 68 65 65 66 66 68 69 70 70 70 68 64 63 62 63 64 64 70 70 69 68 68 69 71 67 61 61 57 56 56 56 57 57 58 58 58 58 62 65
56 58 44 47 35 34 47 50 53 58 61 63 63 64 64 67 66 65 67 65 65 64 63 62 62 64 64 69 68 69 68 70 70 68 62 60 60 58 56 57 57 57 57 57 58 59 62 64 65
50 49 50 52 48 40 39 48 64 61 63 62 64 64 65 65 66 65 61 61 62 61 61 60 60 61 63 65 66 67 66 69 68 66 64 61 59 58 57 58 57 57 59 59 59 62 62 63 64
57 51 52 43 42 47 48 49 62 64 66 65 63 64 66 67 66 66 64 57 55 58 59 59 59 60 62 63 64 63 65 68 65 62 61 61 58 58 58 57 58 58 61 62 62 64 64 64 63

GFSSGP_sfc_temp_117.txt.gz
Temp
77 87 94 91 76 78 75 80 88 83 83 91 92 89 87 89 83 76 98 100 99 97 91 82 74 74 75 75 75 75 76 76 76 76 76 75 76 76 76 76 77 77 78 78 78 78 78 77 75
91 93 92 86 72 71 76 87 82 87 88 89 89 88 86 84 93 93 95 98 100 98 92 88 73 74 74 75 75 75 76 76 76 76 76 76 76 76 76 76 76 77 77 78 78 78 77 75 74
83 93 83 79 75 71 77 86 86 90 88 87 86 91 90 87 95 96 100 99 100 98 96 86 73 73 74 74 75 75 75 75 75 75 76 76 76 76 71 72 74 76 77 78 78 77 75 73 72
89 87 84 73 72 82 83 88 88 87 88 91 90 83 92 98 96 100 101 100 98 97 97 74 72 73 74 74 75 75 75 74 75 75 75 76 76 72 69 71 72 75 76 77 77 75 73 72 71
91 86 74 73 74 82 87 89 87 83 86 86 90 84 87 96 101 100 100 99 96 95 93 82 71 73 73 74 75 75 75 74 74 74 75 75 72 71 71 72 71 69 74 76 75 73 72 71 71
80 83 70 69 76 84 88 88 87 84 87 87 86 86 89 99 98 97 99 96 95 91 89 83 73 72 73 73 73 73 73 73 73 73 73 72 70 72 72 72 71 70 73 73 72 71 71 70 70
77 76 71 73 75 80 84 89 84 84 85 86 91 83 91 94 95 94 97 96 93 90 87 83 81 78 71 71 71 71 71 72 72 72 72 70 69 70 72 72 71 71 73 72 71 70 70 70 69
82 78 71 75 73 76 87 87 87 86 86 94 93 82 85 89 93 94 95 94 92 89 87 85 84 81 80 79 70 70 70 70 70 71 70 68 68 70 70 71 73 73 72 71 70 69 69 69 68
86 69 67 72 74 78 88 81 88 93 89 88 91 90 92 93 94 93 90 89 89 88 87 87 85 83 82 81 78 71 70 69 69 71 68 68 78 78 77 75 71 71 70 69 68 68 68 67 67
75 68 70 80 82 80 84 82 85 83 83 85 86 90 92 94 93 91 89 87 86 86 86 87 86 84 83 81 80 79 81 81 81 81 78 78 80 81 81 76 69 70 69 68 68 67 66 69 77
75 67 76 80 83 84 81 80 86 82 79 85 84 87 91 92 92 91 92 91 90 89 88 87 86 85 84 78 80 81 81 83 82 81 81 80 80 78 81 77 78 74 71 75 70 66 75 78 78
70 75 77 79 82 81 77 82 79 82 83 89 91 92 90 89 89 91 91 93 94 92 88 87 87 84 81 82 82 84 81 84 83 81 79 77 77 77 77 81 80 76 74 74 71 77 77 77 77
71 74 77 79 79 78 80 77 77 79 86 89 89 89 88 88 90 91 94 95 94 93 91 87 87 85 80 80 83 84 81 82 82 82 78 77 76 77 79 79 77 75 72 72 69 76 75 76 77
74 74 75 77 76 78 73 74 77 79 85 84 85 86 88 88 90 91 91 92 92 93 91 89 86 86 83 75 77 80 80 80 77 77 79 77 76 75 77 76 76 71 73 71 66 68 75 73 77
73 66 70 72 74 73 77 69 71 80 83 82 84 85 87 90 92 92 93 93 95 93 92 89 86 86 84 76 76 78 82 80 76 75 78 77 75 75 75 75 75 75 73 68 65 64 66 73 76
64 66 59 70 73 74 73 61 75 84 83 82 82 85 86 89 91 94 95 95 96 96 92 90 89 85 84 81 81 82 80 79 76 73 77 77 75 75 75 75 73 75 72 67 64 66 65 64 71
62 55 60 64 76 74 70 64 76 82 82 80 82 84 85 87 90 93 95 95 96 95 94 91 87 85 83 82 82 81 78 78 77 75 74 75 75 74 74 73 73 73 70 70 67 65 64 64 68
52 55 60 61 69 72 67 67 74 79 80 78 81 84 85 86 88 91 93 94 96 94 93 90 89 85 82 81 80 81 78 73 74 74 75 74 74 74 72 73 73 72 69 68 65 65 64 68 72
58 56 55 61 71 68 67 68 72 77 79 78 79 81 83 84 89 91 92 93 93 92 89 87 86 83 82 79 75 71 71 70 71 73 73 74 72 72 73 71 71 67 65 65 66 65 64 64 75
61 55 55 62 67 65 66 64 70 74 76 79 79 80 81 82 86 87 90 90 89 88 85 86 86 84 82 74 71 75 77 74 76 75 73 72 71 71 70 69 67 64 64 64 63 64 63 63 72
59 56 57 56 63 66 63 60 65 71 75 78 80 82 83 83 84 86 87 88 88 85 84 84 85 84 80 71 74 78 77 71 70 68 71 71 70 67 66 66 66 64 63 62 63 64 64 61 67
51 63 60 57 54 49 63 49 62 70 73 76 78 80 81 83 85 86 86 86 86 86 85 84 85 84 77 71 75 77 74 69 72 73 72 71 72 69 65 64 64 63 63 63 62 65 66 65 66
54 63 60 59 55 53 55 53 61 70 68 72 76 78 81 81 82 83 85 87 89 88 83 82 84 83 76 75 78 77 78 76 77 77 74 71 70 70 66 64 62 61 62 62 62 62 64 66 69
60 57 59 58 55 42 52 53 57 64 68 72 75 77 77 78 80 82 84 84 86 82 80 77 79 81 77 75 78 76 77 77 77 75 73 69 70 71 67 66 63 62 62 61 61 62 63 65 68
56 50 41 38 40 40 56 52 57 68 73 75 74 74 75 77 78 79 80 82 83 80 75 69 71 75 73 72 75 77 77 77 75 75 73 70 69 66 66 64 62 61 61 61 61 61 62 63 65
51 50 42 32 36 42 57 49 59 72 76 76 76 75 75 76 77 77 77 78 77 76 74 66 68 68 66 71 73 76 76 76 75 74 75 73 69 68 66 63 61 61 61 60 60 60 61 61 62
51 47 56 47 51 44 52 58 66 72 72 71 71 72 72 74 75 75 75 74 73 71 68 65 66 65 64 67 70 73 74 74 73 73 73 73 71 66 66 60 59 60 60 59 59 59 60 60 61
55 59 45 48 35 35 48 52 54 62 65 69 69 70 71 71 70 70 70 69 68 67 65 64 65 64 65 68 70 72 73 74 73 70 69 69 66 64 59 57 57 57 58 58 58 59 60 60 61
52 49 52 51 48 39 39 49 67 67 68 68 70 70 70 70 70 68 64 63 61 63 64 62 62 62 63 66 69 72 73 73 71 69 69 68 64 62 59 57 57 57 56 57 57 57 59 59 60
53 53 53 43 42 48 48 50 69 71 70 70 66 69 71 70 69 68 65 62 58 56 60 61 60 60 62 65 66 69 70 70 69 68 68 66 61 60 57 58 58 57 56 57 57 57 58 59 59

GFSSGP_sfc_temp_123.txt.gz
Temp
65 66 66 66 53 49 46 56 68 70 72 77 81 79 74 74 72 60 78 80 77 73 74 74 73 74 75 75 75 75 75 75 75 75 75 75 75 76 76 76 75 76 77 78 78 77 77 76 75
69 75 68 61 48 40 47 64 65 73 79 80 82 81 78 71 81 79 77 80 77 75 74 73 73 73 74 74 74 75 75 75 75 75 75 75 75 75 73 73 71 72 73 77 78 77 76 75 73
70 76 59 53 46 45 48 64 70 76 79 78 75 81 80 76 81 81 83 81 80 77 75 73 72 73 73 74 74 74 75 74 74 74 75 75 74 74 73 72 71 71 71 72 77 77 75 73 72
68 64 62 49 47 55 61 69 73 76 76 79 77 76 82 85 84 84 85 84 80 79 75 71 71 72 73 74 74 74 74 75 74 74 75 74 74 74 73 72 71 71 70 69 77 75 73 72 71
66 59 49 45 50 60 69 74 77 75 76 79 76 73 77 82 88 87 84 84 78 73 72 71 70 72 73 74 74 74 74 75 74 74 73 73 74 73 72 72 72 71 71 70 72 74 72 71 71
57 58 45 43 52 64 72 76 78 78 78 78 76 74 75 83 86 85 81 77 75 72 71 71 72 72 72 73 73 73 73 75 74 73 72 72 72 72 72 71 72 72 72 71 71 71 70 71 71
56 51 47 49 55 62 70 77 76 76 72 75 77 72 75 77 83 81 80 76 74 73 70 69 70 71 71 71 71 71 72 73 72 71 71 71 70 70 71 71 72 72 71 71 70 70 68 69 69
62 55 52 54 55 57 72 76 77 74 70 81 80 71 69 74 79 79 78 75 74 72 70 69 69 69 68 68 70 70 70 71 70 70 69 69 69 69 70 70 70 71 70 70 71 69 68 68 66
63 50 50 51 56 63 74 72 79 81 72 75 78 79 79 82 83 77 74 72 72 72 70 70 69 69 69 68 70 70 70 70 69 69 68 67 68 67 69 69 69 70 70 70 70 68 68 66 66
55 49 49 62 66 66 73 70 73 71 72 74 75 80 82 81 79 77 72 71 70 70 70 71 69 69 70 73 68 68 69 68 68 69 68 67 66 66 70 69 69 70 70 69 69 68 67 67 66
59 54 61 65 69 71 70 69 74 68 66 73 73 76 77 77 76 74 74 74 74 73 73 72 72 70 70 70 68 68 68 68 68 68 67 67 69 66 66 66 67 66 68 67 68 66 65 66 66
56 63 66 67 70 69 68 72 70 70 70 76 77 77 78 76 75 76 76 77 75 75 74 73 73 72 70 69 69 69 69 68 68 68 68 68 67 67 65 66 65 66 65 66 67 65 64 66 67
57 61 66 68 69 68 71 68 68 69 74 77 79 79 74 76 76 75 77 77 78 76 76 75 75 74 72 70 69 69 69 70 70 69 69 70 68 68 66 66 65 66 65 64 63 63 63 65 67
60 62 63 65 65 67 66 66 64 70 72 75 77 75 75 74 75 74 75 76 73 78 76 77 75 75 73 71 70 68 70 68 70 70 70 70 68 67 68 65 66 65 66 65 64 63 64 64 68
60 53 57 60 61 63 68 61 62 70 74 74 75 77 78 76 76 75 76 77 77 75 78 76 75 75 73 72 70 70 70 71 68 71 69 69 68 67 66 66 66 66 66 65 64 64 64 64 66
51 50 42 57 60 64 62 53 66 72 72 72 74 75 77 79 79 78 76 76 77 76 77 77 79 75 73 73 71 71 68 68 67 68 69 68 68 68 66 65 65 66 65 65 63 63 63 63 63
44 37 41 49 60 60 59 55 64 70 72 71 72 75 76 76 79 81 82 77 78 76 75 76 77 74 72 72 72 69 68 67 67 66 67 68 68 68 66 65 64 65 64 64 63 61 64 63 62
37 39 47 46 55 58 56 56 63 68 70 70 71 73 75 75 78 82 82 82 82 79 73 77 76 75 72 70 69 69 66 66 67 67 67 67 68 67 66 64 64 65 64 62 62 61 61 62 62
47 45 45 51 58 55 55 56 59 65 67 65 67 70 70 71 75 82 82 82 75 73 72 75 74 74 71 68 67 67 67 68 65 68 69 66 67 67 66 65 64 65 64 63 62 61 61 60 62
47 43 43 50 56 55 54 54 59 62 64 66 66 68 70 70 73 77 73 73 73 75 71 72 74 73 73 72 71 69 69 68 66 69 69 70 68 67 65 65 64 64 64 62 61 61 60 58 62
45 42 43 43 50 52 51 48 54 61 64 67 69 70 71 68 69 72 74 72 70 71 68 72 74 73 74 73 70 65 64 63 63 66 66 67 67 66 65 64 64 64 64 63 62 61 61 59 60
38 48 47 44 41 34 49 34 49 56 59 63 66 69 71 72 74 73 75 71 70 70 69 73 73 73 73 72 71 68 67 63 64 66 67 67 67 66 66 64 64 63 64 64 63 63 62 62 59
42 48 44 43 38 38 40 37 45 55 55 59 64 68 72 74 75 72 72 73 73 69 69 72 72 71 72 71 70 67 66 67 66 67 66 66 66 66 65 64 64 64 64 64 63 62 62 62 61
48 43 42 41 37 28 37 37 40 48 55 60 66 69 72 75 76 73 71 70 65 64 64 65 68 66 69 68 68 68 67 64 66 64 64 63 64 64 64 63 63 64 63 63 63 63 62 61 61
43 34 24 23 25 25 42 38 42 54 60 63 64 67 67 69 66 65 66 65 64 62 61 62 63 63 63 64 65 66 65 64 65 64 63 61 61 63 62 63 63 62 63 63 63 63 62 61 60
38 37 26 18 21 27 42 34 43 59 64 67 68 67 65 64 65 63 62 62 62 61 60 60 61 60 63 63 65 65 65 65 67 68 65 64 63 64 64 63 62 62 62 62 63 62 62 62 61
33 30 40 29 32 27 35 42 52 58 61 64 66 67 63 61 61 59 60 60 60 58 57 58 59 59 62 65 64 66 65 66 66 68 67 65 64 63 64 63 62 62 62 62 62 61 61 61 61
40 42 30 33 22 21 30 34 38 49 55 61 63 60 59 58 56 56 56 57 57 56 57 58 58 58 60 63 64 65 66 67 66 65 64 64 63 62 60 61 61 61 61 61 61 61 61 61 61
36 32 33 33 34 25 24 31 47 53 56 57 63 60 56 54 54 55 54 55 55 55 55 54 57 59 59 60 62 63 64 65 65 64 64 63 62 61 59 59 58 59 59 60 60 60 60 59 60
43 38 34 27 27 31 34 33 56 58 56 57 62 56 54 54 55 54 54 53 52 51 52 52 53 54 57 60 60 62 63 63 63 63 63 62 61 60 59 58 57 57 57 58 58 59 59 59 59

GFSSGP_sfc_temp_126.txt.gz
Temp
62 63 64 64 52 46 42 50 59 63 66 75 77 75 73 71 70 60 73 76 74 72 73 73 73 74 74 75 75 75 75 75 75 75 75 75 76 76 76 75 76 76 78 78 78 78 77 76 75
65 70 64 56 45 38 44 53 59 65 73 76 77 74 72 68 75 72 73 75 74 73 72 72 73 73 74 74 74 75 75 75 75 75 75 75 75 75 75 74 73 74 74 78 78 77 77 75 74
68 72 57 50 41 40 45 56 62 69 76 75 74 76 74 72 76 75 77 75 74 72 72 72 72 73 73 74 74 74 74 74 74 74 75 75 75 75 75 73 73 74 74 75 78 77 75 74 73
64 62 57 46 44 50 53 59 65 68 74 78 74 71 76 80 79 78 79 76 73 72 72 70 71 72 73 73 74 74 74 73 73 74 74 74 75 75 74 72 72 74 75 75 75 75 73 72 71
61 55 45 40 46 53 62 65 68 69 71 75 74 71 73 80 81 81 78 78 73 70 70 70 70 72 73 74 74 73 73 73 73 73 73 74 74 73 72 71 72 73 74 73 73 74 72 71 71
55 53 41 39 48 58 63 67 70 72 74 75 71 71 72 78 79 79 79 76 73 69 69 70 71 72 72 73 73 72 73 72 72 72 73 73 72 71 71 71 72 72 74 72 72 72 71 70 70
50 46 41 43 50 56 63 69 69 70 70 73 72 69 69 75 80 78 78 74 72 70 69 69 70 71 71 70 70 71 71 71 71 71 71 71 70 70 71 71 71 71 71 71 70 70 69 69 68
56 50 42 44 50 52 65 68 70 67 68 76 77 69 66 76 75 75 72 69 69 69 68 67 68 69 69 70 69 69 70 70 70 70 69 68 69 69 69 70 70 70 70 71 71 69 69 69 67
58 45 40 45 50 57 68 65 70 73 67 72 75 75 77 76 74 72 69 67 67 68 67 67 68 68 68 68 70 69 70 69 69 69 68 66 67 67 68 69 69 70 70 70 70 68 68 67 67
53 42 46 56 60 61 66 66 68 67 67 71 72 75 76 76 74 71 69 67 67 66 66 67 67 67 67 70 69 68 70 69 69 67 67 65 64 65 69 68 69 70 70 69 69 68 67 67 67
51 50 57 60 63 65 64 64 69 64 62 67 66 73 76 73 74 72 71 70 70 70 69 67 67 68 68 68 68 69 68 69 69 67 65 64 65 64 65 65 66 65 68 66 66 66 65 65 66
50 58 58 59 64 62 60 66 66 64 67 72 71 74 77 75 71 73 72 72 71 69 70 69 69 68 68 68 67 69 69 68 68 68 65 65 64 63 63 64 64 64 66 67 66 65 63 64 66
52 54 59 60 61 60 64 61 62 64 67 72 73 72 71 73 75 73 73 75 75 72 71 70 70 69 69 68 67 67 67 68 69 67 67 66 66 64 64 64 64 65 66 66 65 64 63 64 65
55 55 56 56 57 58 59 61 58 67 67 71 72 71 69 69 71 72 71 70 73 75 72 71 70 71 70 69 68 67 67 67 67 69 68 67 67 65 66 64 64 64 64 64 63 62 62 62 64
55 48 52 56 54 55 55 56 56 67 70 70 72 74 75 71 72 70 72 73 73 75 75 72 71 71 71 70 69 69 69 68 67 68 68 68 67 66 65 64 64 65 64 63 61 61 62 62 64
48 44 37 49 53 56 52 48 61 67 65 66 71 73 75 76 76 71 73 72 72 76 74 74 75 71 70 71 70 70 69 69 68 68 68 68 68 67 65 64 64 64 64 64 62 61 61 62 63
40 35 38 46 53 52 48 47 58 63 64 65 68 71 74 74 77 78 73 71 73 72 75 74 74 71 71 71 71 70 69 69 67 69 68 68 68 67 66 65 64 64 64 63 62 60 62 61 62
34 35 41 40 48 49 49 49 57 61 61 62 63 64 68 73 76 80 80 74 76 71 75 75 74 73 72 71 69 68 67 67 67 67 68 68 67 67 66 64 64 64 63 62 61 61 59 61 62
42 40 38 44 50 46 45 47 51 57 60 59 62 64 66 69 76 78 81 82 76 75 70 73 73 73 71 68 66 66 66 66 66 67 67 67 67 66 65 64 63 64 63 62 62 60 60 58 60
42 39 38 44 49 47 44 43 50 54 56 60 62 62 65 65 72 72 72 76 76 76 67 72 73 72 72 70 70 70 69 66 67 67 66 67 67 67 67 66 64 63 63 61 61 61 58 58 62
40 38 38 38 44 46 42 39 45 53 56 60 64 66 67 67 66 72 73 70 69 76 68 71 73 72 73 72 69 64 64 62 64 65 66 67 67 67 67 66 64 64 64 63 62 61 61 58 60
35 44 42 39 35 28 41 24 39 46 49 55 61 64 65 66 71 72 74 70 68 68 67 74 74 72 72 71 68 66 66 64 67 67 67 66 67 66 66 65 65 64 65 63 62 61 62 61 59
39 45 41 39 34 33 34 29 36 46 45 51 59 64 62 68 67 71 72 71 74 70 67 71 72 72 71 70 70 67 66 67 64 65 64 66 66 66 65 65 64 63 64 64 63 62 62 62 60
46 41 40 39 34 23 33 31 32 39 45 52 60 64 63 66 69 73 73 74 66 62 61 65 69 71 70 70 70 69 66 64 63 64 63 64 65 64 64 64 64 64 64 64 63 62 62 62 62
40 34 23 22 22 23 39 35 36 46 51 55 58 61 62 63 64 67 60 57 57 57 59 61 63 61 66 68 68 68 66 65 64 64 63 63 62 63 63 64 63 63 64 64 63 62 62 62 61
36 33 24 18 21 24 37 28 37 50 55 59 63 64 58 55 55 55 56 56 57 58 58 59 60 61 62 62 64 65 65 66 65 65 64 63 63 63 64 63 63 63 63 62 63 62 62 62 61
33 28 37 28 30 25 30 36 46 51 53 57 58 60 53 53 53 53 54 53 54 55 55 57 58 59 60 61 62 61 62 63 63 63 63 63 64 63 63 63 62 61 62 62 62 62 61 61 61
38 43 27 31 21 19 28 30 32 43 48 54 55 55 53 53 52 52 52 52 53 53 54 55 56 57 58 62 63 64 62 62 64 63 63 64 64 64 62 62 62 60 61 61 61 61 61 61 61
33 32 34 32 30 23 20 29 45 47 48 47 50 56 52 51 51 51 51 52 52 53 52 52 53 54 56 60 61 62 63 62 64 63 64 64 63 62 62 62 61 61 60 60 60 61 61 60 60
38 35 35 25 24 29 28 31 51 50 46 45 47 51 51 51 50 51 51 51 50 50 50 50 51 52 55 58 60 60 62 63 62 62 62 62 61 61 60 59 59 58 58 59 59 59 59 59 59

GFSSGP_sfc_temp_129.txt.gz
Temp
61 62 61 62 51 45 41 48 53 59 62 68 71 69 68 66 66 59 71 75 73 72 72 73 73 74 74 74 74 74 75 75 75 75 75 75 75 76 76 76 76 77 78 79 78 78 78 77 76
62 67 62 53 43 38 44 48 55 61 68 71 74 73 69 66 72 69 72 72 74 72 72 72 73 73 74 74 74 74 75 75 75 75 75 75 75 75 75 74 74 76 77 78 79 78 78 76 75
65 68 56 47 37 40 44 52 57 64 68 67 70 74 72 70 71 73 73 72 72 71 72 72 72 72 74 74 74 74 74 74 74 74 75 75 75 75 74 74 74 75 77 78 78 78 76 74 72
63 60 54 44 39 46 50 55 59 65 71 68 71 69 72 77 74 76 74 73 71 70 71 70 71 72 73 74 74 74 73 73 73 73 74 75 75 74 73 73 73 75 76 77 77 75 73 72 72
58 53 43 37 41 49 57 59 65 65 65 69 71 68 70 75 77 75 73 73 70 69 69 70 70 72 73 74 74 73 73 72 73 73 73 74 74 73 72 72 73 74 74 74 74 73 72 72 71
53 50 39 36 43 53 58 63 64 66 67 69 69 69 69 74 74 75 74 72 71 68 69 70 70 71 72 73 72 72 72 72 72 72 72 73 73 72 71 72 72 73 73 72 73 72 72 71 70
49 44 39 38 45 50 58 66 64 63 63 65 68 64 69 70 75 74 72 69 68 68 68 69 70 71 71 70 70 70 70 71 71 71 71 71 70 70 70 71 72 71 71 71 72 71 70 70 69
53 48 38 42 46 47 59 63 66 63 62 72 71 63 66 72 71 70 68 66 65 66 67 69 69 69 69 70 69 69 70 69 69 70 69 69 69 69 70 70 70 70 71 71 71 70 69 68 68
54 43 37 43 45 52 63 60 65 69 65 66 69 70 72 72 70 68 66 64 64 65 65 68 69 68 68 68 70 69 70 69 68 69 68 66 66 66 68 68 70 70 70 70 70 69 68 67 67
50 40 44 53 56 57 61 60 64 61 64 65 66 72 75 73 70 68 67 66 65 64 64 66 68 68 68 69 69 67 68 68 68 67 66 65 64 64 67 67 69 69 70 70 69 68 67 67 65
45 45 51 55 58 59 58 58 64 60 59 63 63 68 71 70 72 68 68 68 68 67 66 66 66 67 67 70 70 68 68 70 69 65 65 63 64 64 64 64 65 64 67 66 67 66 65 65 64
45 53 53 54 57 56 55 59 60 62 61 67 68 70 70 70 71 72 70 69 68 67 67 66 66 66 67 69 70 71 70 70 69 67 64 63 63 62 62 63 63 63 63 64 66 65 63 63 65
48 50 53 54 55 55 58 56 59 60 66 67 70 69 68 68 70 70 74 74 72 69 68 66 66 66 67 68 70 70 70 69 69 68 64 64 63 62 62 62 62 63 67 67 66 65 62 63 63
51 51 52 52 52 52 53 56 52 60 64 66 67 69 68 67 69 69 70 69 71 72 69 68 66 67 67 66 67 69 70 69 69 68 66 64 64 63 63 62 62 63 65 65 65 63 62 62 63
53 45 47 47 49 50 52 50 47 57 63 64 66 66 71 67 69 68 70 70 74 75 74 69 68 68 67 67 66 67 69 69 68 68 68 66 65 64 63 63 63 63 64 64 61 60 60 61 62
45 42 35 47 51 52 49 42 55 59 57 59 63 66 68 72 69 70 71 71 69 75 73 70 72 68 68 68 68 67 67 67 68 69 68 68 66 65 64 63 63 63 62 62 60 59 59 60 61
37 31 36 40 50 47 46 43 53 58 58 57 60 63 65 67 71 70 70 70 69 73 75 70 70 68 68 68 68 68 67 67 67 68 69 68 67 66 64 64 63 63 63 62 61 58 60 59 59
31 31 36 36 42 45 41 43 50 54 54 54 56 58 61 64 67 72 73 72 71 71 74 74 71 70 69 69 68 68 66 67 67 68 68 68 67 66 65 63 63 63 63 61 60 59 58 59 59
39 35 34 41 45 42 41 42 46 51 51 52 54 56 58 61 68 72 74 74 70 66 71 72 70 70 69 69 67 66 66 66 66 68 68 67 67 66 65 64 63 63 63 63 61 58 59 57 59
38 36 35 41 45 43 40 38 45 49 50 52 53 55 58 61 65 68 71 68 69 68 66 72 72 71 70 70 70 69 68 67 67 68 68 67 66 66 65 63 63 64 63 61 60 59 56 58 61
36 34 35 35 41 43 40 36 42 48 51 53 55 57 58 59 62 66 70 71 66 66 64 70 73 73 71 71 70 65 64 64 65 65 66 67 66 66 67 65 64 64 63 62 61 61 61 59 61
31 41 39 37 34 26 40 22 36 43 46 50 52 54 56 59 63 66 69 70 70 68 68 68 72 73 72 71 69 66 67 65 67 68 68 67 67 66 68 66 65 65 65 63 62 62 62 62 59
35 42 38 37 32 31 31 25 34 44 42 46 51 54 56 59 62 65 68 73 74 72 66 66 71 73 72 70 70 68 68 68 66 68 67 66 66 67 67 66 65 64 65 64 63 61 62 62 62
43 38 38 35 30 21 30 29 32 39 44 47 52 54 57 59 62 65 70 73 64 58 59 63 69 71 72 70 69 68 68 65 64 66 66 65 65 65 65 65 65 65 64 63 63 63 62 61 62
37 32 23 22 23 24 37 32 35 45 49 51 51 53 56 58 56 56 62 65 59 59 56 59 65 66 68 68 68 68 68 65 64 65 65 64 63 64 64 64 63 63 64 64 64 63 62 61 61
32 30 23 16 20 23 35 26 36 50 52 51 53 55 52 50 51 54 54 54 56 56 57 58 61 61 66 68 67 67 65 65 64 64 65 64 64 64 64 64 64 64 63 63 63 63 62 62 61
31 26 36 25 28 24 29 35 43 50 47 48 47 50 50 53 52 53 54 55 56 56 56 57 59 60 61 61 61 62 64 64 64 64 64 64 65 64 63 64 63 63 63 63 62 62 62 61 61
36 39 25 28 19 18 25 30 32 41 42 48 46 45 47 50 52 51 51 52 52 53 54 54 56 58 60 61 62 62 61 62 63 63 62 62 62 62 63 62 62 62 62 62 62 61 61 61 61
29 26 31 31 26 21 21 27 44 43 44 44 45 46 48 49 50 51 50 50 50 52 52 52 53 54 56 59 61 61 61 62 61 63 62 62 62 63 62 62 61 61 60 60 61 61 61 60 61
36 35 33 24 23 28 26 27 45 44 46 46 45 46 49 49 48 48 48 48 47 48 48 49 50 51 53 57 57 59 61 60 59 60 61 62 61 62 62 61 60 60 59 59 59 59 60 60 60

GFSSGP_sfc_temp_132.txt.gz
Temp
60 60 61 60 51 45 41 47 49 55 59 65 67 65 65 65 65 58 69 72 72 71 72 73 73 74 74 74 74 75 75 76 75 75 75 76 76 76 76 76 76 77 78 79 78 78 78 77 75
61 64 61 52 43 38 44 47 51 56 65 67 68 70 65 67 70 69 70 71 73 71 72 72 73 73 74 74 74 75 75 75 75 75 75 75 76 76 76 76 75 76 77 78 79 79 78 76 74
63 65 55 44 36 39 42 50 53 59 65 63 65 69 69 69 72 71 72 71 72 71 72 72 72 72 74 74 74 74 74 74 74 74 75 75 75 75 75 74 75 75 77 78 79 78 76 74 72
61 59 52 44 38 44 47 52 56 60 63 66 65 65 70 74 72 74 71 71 71 70 71 70 71 72 73 74 74 74 74 73 73 74 75 75 75 75 74 73 74 75 77 77 77 76 73 72 71
56 52 42 37 39 47 53 56 60 59 62 64 63 62 67 75 74 71 70 72 70 69 70 70 70 72 73 74 74 73 73 73 73 73 74 74 74 74 73 73 74 74 75 76 75 74 72 71 71
52 49 39 36 41 51 55 59 60 61 62 64 63 63 65 72 74 71 70 68 69 68 68 70 71 71 72 73 72 72 72 72 72 72 73 73 73 72 72 72 73 73 74 74 73 72 71 70 70
49 44 37 38 44 49 55 61 60 60 59 61 63 60 65 71 73 70 67 66 66 66 66 67 69 70 71 70 70 70 70 70 71 71 71 71 70 70 71 72 72 72 72 73 72 71 70 70 70
50 47 37 40 43 46 57 59 61 58 59 68 67 60 62 70 68 67 66 64 63 65 65 67 70 70 68 70 69 69 69 69 69 70 70 69 69 69 70 70 71 71 72 73 71 70 70 69 68
51 42 36 40 45 50 60 57 62 63 61 62 65 66 71 71 68 66 64 63 63 64 66 69 70 70 68 67 69 69 69 69 69 69 68 67 66 67 68 68 70 70 71 70 69 69 68 67 67
47 39 42 50 52 52 57 55 59 55 57 60 63 68 70 68 66 66 63 62 61 61 66 70 70 69 70 70 67 66 69 69 68 68 67 66 64 64 66 67 69 70 70 69 68 67 67 67 65
42 43 48 52 54 51 53 53 55 54 49 60 62 63 68 68 67 67 67 66 64 65 64 68 69 70 69 70 69 65 66 69 69 66 65 64 63 64 63 63 64 65 67 66 67 66 65 64 64
42 48 49 50 53 51 49 53 55 54 57 64 65 67 65 65 66 66 67 68 66 66 64 65 67 68 68 71 71 67 67 70 69 67 64 63 62 62 62 62 62 62 63 66 67 66 64 64 64
44 45 50 51 51 49 52 48 51 54 60 61 63 65 63 64 66 66 68 70 70 67 66 65 66 67 69 70 71 71 69 71 70 68 64 63 62 62 61 62 62 62 63 64 65 65 63 63 63
46 46 48 47 49 49 49 50 47 53 57 59 61 60 62 62 64 65 66 67 65 71 70 67 66 66 68 68 70 71 71 70 70 68 66 63 63 62 62 61 62 62 63 65 65 64 62 61 62
48 42 44 45 48 45 51 45 45 52 56 57 59 60 61 63 66 64 68 70 68 67 70 68 68 67 66 68 69 69 70 70 69 69 67 63 63 62 62 62 62 64 65 65 63 62 61 61 63
42 39 34 44 46 48 46 38 48 54 55 54 56 59 60 61 63 66 67 70 75 72 67 69 70 67 67 66 67 69 70 70 69 69 68 66 64 63 62 62 63 63 64 63 62 60 59 60 62
36 28 31 37 45 44 43 40 51 54 53 52 54 55 57 59 62 64 66 66 73 74 74 67 68 67 67 67 66 66 68 69 69 69 68 67 66 64 63 63 62 63 62 62 61 58 59 58 59
29 29 34 33 38 40 38 39 47 51 50 50 52 54 55 56 59 64 66 66 70 67 70 71 68 68 68 68 67 66 66 68 68 68 68 68 67 65 64 63 62 63 62 61 60 59 58 59 59
37 33 30 36 42 37 37 39 43 48 48 48 49 51 53 55 60 63 65 67 67 72 68 68 67 68 68 68 66 66 66 66 67 68 69 68 67 66 64 63 62 63 63 63 60 58 57 57 60
36 32 31 37 40 41 37 36 43 47 47 50 50 51 53 55 58 61 62 60 60 66 66 66 68 68 68 70 69 69 69 68 68 68 68 69 67 67 65 63 63 63 63 63 60 59 57 57 60
33 30 31 32 38 39 35 33 41 48 50 52 55 56 55 55 56 59 61 62 61 62 65 66 69 70 68 71 70 66 68 66 65 66 67 67 67 66 66 64 63 64 64 62 61 60 60 58 60
29 38 37 34 30 23 36 20 36 43 46 50 54 55 56 56 58 59 60 61 62 62 65 66 69 72 69 70 69 68 66 66 67 68 68 67 68 66 66 65 64 64 64 63 62 61 61 61 58
33 39 36 35 30 25 26 22 30 43 42 47 48 47 54 58 57 57 59 62 66 67 61 64 65 69 71 70 70 68 68 68 68 68 67 67 67 66 66 65 65 65 64 63 62 61 61 61 61
41 35 34 31 27 20 28 26 30 35 42 46 49 48 50 52 56 57 61 63 64 59 59 59 60 65 68 69 70 69 68 67 65 66 66 66 66 66 66 66 65 65 64 64 62 62 61 61 61
34 28 20 21 22 22 34 28 31 42 47 48 48 49 49 50 49 49 49 51 57 55 55 57 60 61 66 68 69 68 69 68 66 67 66 65 65 65 65 65 64 64 65 64 63 62 62 61 61
29 28 17 6 18 22 32 23 31 47 50 52 51 51 50 49 52 52 55 54 52 53 54 57 60 62 65 67 68 68 68 66 67 67 68 67 66 66 66 65 65 65 65 64 63 63 62 62 61
29 25 33 17 26 22 26 32 43 46 45 48 47 49 47 49 50 50 50 51 52 54 56 59 61 61 65 66 66 66 65 65 65 66 66 68 68 66 65 65 64 64 64 63 63 62 62 61 61
33 37 21 24 14 16 23 28 30 35 38 42 45 45 46 48 48 48 49 48 49 50 52 54 56 57 59 61 64 64 65 64 64 64 64 65 65 64 63 64 64 63 63 63 62 62 62 61 61
28 23 27 28 24 20 20 27 38 38 39 38 44 45 44 44 45 45 46 48 47 47 48 48 51 52 55 59 61 61 61 62 61 61 61 62 62 62 62 63 62 62 61 62 61 61 61 61 61
33 31 30 20 18 27 25 26 44 41 42 41 41 41 42 42 41 42 42 45 45 44 45 45 46 48 50 53 55 56 60 61 61 60 60 60 60 61 61 61 61 61 61 61 61 60 60 60 60